[[{"header":{"parameterUnit":"m.s-1","parameterCategory":1,"la1":31.0,"la2":29.5877,"lo1":-88.7671,"lo2":-86.6584,"dy":0.0162,"dx":0.0185,"nx":115,"ny":88,"refTime":"2023-11-03T12:00:00:Z","depth":0,"parameterNumber":2,"parameterNumberName":"U-component_of_WINDS"},"data":[0.0,0.0,0.0,0.0,0.0,0.0,0.0,0.0,0.0,0.0,0.0,0.0,0.0,0.0,0.0,0.0,0.0,0.0,0.0,0.0,0.0,0.0,0.0,0.0,0.0,0.0,0.0,0.0,0.0,0.0,0.0,0.0,0.0,0.0,0.0,0.0,0.0,0.0,0.0,0.0,0.0,0.0,0.0,0.0,0.0,0.0,0.0,0.0,0.0,0.0,0.0,0.0,0.0,0.0,0.0,0.0,0.0,0.0,0.0,0.0,0.0,0.0,0.0,0.0,0.0,0.0,0.0,0.0,0.0,0.0,0.0,0.0,0.0,0.0,0.0,0.0,0.0,0.0,0.0,0.0,0.0,0.0,0.0,0.0,0.0,0.0,0.0,0.0,0.0,0.0,0.0,0.0,0.0,0.0,0.0,0.0,0.0,0.0,0.0,0.0,0.0,0.0,0.0,0.0,0.0,0.0,0.0,0.0,0.0,0.0,0.0,0.0,0.0,0.0,0.0,0.0,0.0,0.0,0.0,0.0,0.0,0.0,0.0,0.0,0.0,0.0,0.0,0.0,0.0,0.0,0.0,0.0,0.0,0.0,0.0,0.0,0.0,0.0,0.0,0.0,0.0,0.0,0.0,0.0,0.0,0.0,0.0,0.0,0.0,0.0,0.0,0.0,0.0,0.0,0.0,0.0,0.0,0.0,0.0,0.0,0.0,0.0,0.0,0.0,0.0,0.0,0.0,0.0,0.0,0.0,0.0,0.0,0.0,0.0,0.0,0.0,0.0,0.0,0.0,0.0,0.0,0.0,0.0,0.0,0.0,0.0,0.0,0.0,0.0,0.0,0.0,0.0,0.0,0.0,0.0,0.0,0.0,0.0,0.0,0.0,0.0,0.0,0.0,0.0,0.0,0.0,0.0,0.0,0.0,0.0,0.0,0.0,0.0,0.0,0.0,0.0,0.0,0.0,0.0,0.0,0.0,0.0,0.0,0.0,0.0,0.0,0.0,0.0,0.0,0.0,0.0,0.0,0.0,0.0,0.0,0.0,0.0,0.0,0.0,0.0,0.0,0.0,0.0,0.0,0.0,0.0,0.0,0.0,0.0,0.0,0.0,0.0,0.0,0.0,0.0,0.0,0.0,0.0,0.0,0.0,0.0,0.0,0.0,0.0,0.0,0.0,0.0,0.0,0.0,0.0,0.0,0.0,0.0,0.0,0.0,0.0,0.0,0.0,0.0,0.0,0.0,0.0,0.0,0.0,0.0,0.0,0.0,0.0,0.0,0.0,0.0,0.0,0.0,0.0,0.0,0.0,0.0,0.0,0.0,0.0,0.0,0.0,0.0,0.0,0.0,0.0,0.0,0.0,0.0,0.0,0.0,0.0,0.0,0.0,0.0,0.0,0.0,0.0,0.0,0.0,0.0,0.0,0.0,0.0,0.0,0.0,0.0,0.0,0.0,0.0,0.0,0.0,0.0,0.0,0.0,0.0,0.0,0.0,0.0,0.0,0.0,0.0,0.0,0.0,0.0,0.0,0.0,0.0,0.0,0.0,0.0,0.0,0.0,0.0,0.0,0.0,0.0,0.0,0.0,0.0,0.0,0.0,0.0,0.0,0.0,0.0,0.0,0.0,0.0,0.0,0.0,0.0,0.0,0.0,0.0,0.0,0.0,0.0,0.0,0.0,0.0,0.0,0.0,0.0,0.0,0.0,0.0,0.0,0.0,0.0,0.0,0.0,0.0,0.0,0.0,0.0,0.0,0.0,0.0,0.0,0.0,0.0,0.0,0.0,0.0,0.0,0.0,0.0,0.0,0.0,0.0,0.0,0.0,0.0,0.0,0.0,0.0,0.0,0.0,0.0,0.0,0.0,0.0,0.0,0.0,0.0,0.0,0.0,0.0,0.0,0.0,0.0,0.0,0.0,0.0,0.0,0.0,0.0,0.0,0.0,0.0,0.0,0.0,0.0,0.0,0.0,0.0,0.0,0.0,0.0,0.0,0.0,0.0,0.0,0.0,0.0,0.0,0.0,0.0,0.0,0.0,0.0,0.0,0.0,0.0,0.0,0.0,0.0,0.0,0.0,0.0,0.0,0.0,0.0,0.0,0.0,0.0,0.0,0.0,0.0,0.0,0.0,0.0,0.0,0.0,0.0,0.0,0.0,0.0,0.0,0.0,0.0,0.0,0.0,0.0,0.0,0.0,0.0,0.0,0.0,0.0,0.0,0.0,0.0,0.0,0.0,0.0,0.0,0.0,0.0,0.0,0.0,0.0,0.0,0.0,0.0,0.0,0.0,0.0,0.0,0.0,0.0,0.0,0.0,0.0,0.0,0.0,0.0,0.0,0.0,0.0,0.0,0.0,0.0,0.0,0.0,0.0,0.0,0.0,0.0,0.0,0.0,0.0,0.0,0.0,0.0,0.0,0.0,0.0,0.0,0.0,0.0,0.0,0.0,0.0,0.0,0.0,0.0,0.0,0.0,0.0,0.0,0.0,0.0,0.0,0.0,0.0,0.0,0.0,0.0,0.0,0.0,0.0,0.0,0.0,0.0,0.0,0.0,0.0,0.0,0.0,0.0,0.0,0.0,0.0,0.0,0.0,0.0,0.0,0.0,0.0,0.0,0.0,0.0,0.0,0.0,0.0,0.0,0.0,0.0,0.0,0.0,0.0,0.0,0.0,0.0,0.0,0.0,0.0,0.0,0.0,0.0,0.0,0.0,0.0,0.0,0.0,0.0,0.0,0.0,0.0,0.0,0.0,0.0,0.0,0.0,0.0,0.0,0.0,0.0,0.0,0.0,0.0,0.0,0.0,0.0,0.0,0.0,0.0,0.0,0.0,0.0,0.0,0.0,0.0,0.0,0.0,0.0,0.0,0.0,0.0,0.0,0.0,0.0,0.0,0.0,0.0,0.0,0.0,0.0,0.0,0.0,0.0,0.0,0.0,0.0,0.0,0.0,0.0,0.0,0.0,0.0,0.0,0.0,0.0,0.0,0.0,0.0,0.0,0.0,0.0,0.0,0.0,0.0,0.0,0.0,0.0,0.0,0.0,0.0,0.0,0.0,0.0,0.0,0.0,0.0,0.0,0.0,0.0,0.0,0.0,0.0,0.0,0.0,0.0,0.0,0.0,0.0,0.0,0.0,0.0,0.0,0.0,0.0,0.0,0.0,0.0,0.0,0.0,0.0,0.0,0.0,0.0,0.0,0.0,0.0,0.0,0.0,0.0,0.0,0.0,0.0,0.0,0.0,0.0,0.0,0.0,0.0,0.0,0.0,0.0,0.0,0.0,0.0,0.0,0.0,0.0,0.0,0.0,0.0,0.0,0.0,0.0,0.0,0.0,0.0,0.0,0.0,0.0,0.0,0.0,0.0,0.0,0.0,0.0,0.0,0.0,0.0,0.0,0.0,0.0,0.0,0.0,0.0,0.0,0.0,0.0,0.0,0.0,0.0,0.0,0.0,0.0,0.0,0.0,0.0,0.0,0.0,0.0,0.0,0.0,0.0,0.0,0.0,0.0,0.0,0.0,0.0,0.0,0.0,0.0,0.0,0.0,0.0,0.0,0.0,0.0,0.0,0.0,0.0,0.0,0.0,0.0,0.0,0.0,0.0,0.0,0.0,0.0,0.0,0.0,0.0,0.0,0.0,0.0,0.0,0.0,0.0,0.0,0.0,0.0,0.0,0.0,0.0,0.0,0.0,0.0,0.0,0.0,0.0,0.0,0.0,0.0,0.0,0.0,0.0,0.0,0.0,0.0,0.0,0.0,0.0,0.0,0.0,0.0,0.0,0.0,0.0,0.0,0.0,0.0,0.0,0.0,0.0,0.0,0.0,0.0,0.0,0.0,0.0,0.0,0.0,0.0,0.0,0.0,0.0,0.0,0.0,0.0,0.0,0.0,0.0,0.0,0.0,0.0,0.0,0.0,0.0,0.0,0.0,0.0,0.0,0.0,0.0,0.0,0.0,0.0,0.0,0.0,0.0,0.0,0.0,0.0,0.0,0.0,0.0,0.0,0.0,0.0,0.0,0.0,0.0,0.0,0.0,0.0,0.0,0.0,0.0,0.0,0.0,0.0,0.0,0.0,0.0,0.0,0.0,0.0,0.0,0.0,0.0,0.0,0.0,0.0,0.0,0.0,0.0,0.0,0.0,0.0,0.0,0.0,0.0,0.0,0.0,0.0,0.0,0.0,0.0,0.0,0.0,0.0,0.0,0.0,0.0,0.0,0.0,0.0,0.0,0.0,0.0,0.0,0.0,0.0,0.0,0.0,0.0,-0.7759,0.0,0.0,0.0,0.0,0.0,0.0,0.0,0.0,0.0,0.0,0.0,0.0,0.0,0.0,0.0,0.0,0.0,0.0,0.0,0.0,0.0,0.0,0.0,0.0,0.0,0.0,0.0,0.0,0.0,0.0,0.0,0.0,0.0,0.0,0.0,0.0,0.0,0.0,0.0,0.0,0.0,0.0,0.0,0.0,0.0,0.0,0.0,0.0,0.0,0.0,0.0,0.0,0.0,0.0,0.0,0.0,0.0,0.0,0.0,0.0,0.0,0.0,0.0,0.0,0.0,0.0,0.0,0.0,0.0,0.0,0.0,0.0,0.0,0.0,0.0,0.0,0.0,0.0,0.0,0.0,0.0,0.0,0.0,0.0,0.0,0.0,0.0,0.0,0.0,0.0,0.0,0.0,0.0,0.0,0.0,0.0,0.0,0.0,0.0,0.0,0.0,0.0,0.0,0.0,0.0,0.0,0.0,0.0,0.0,0.0,-0.8068,-0.8053,-0.8801,-0.8537,-0.7178,0.0,0.0,0.0,0.0,0.0,0.0,0.0,0.0,0.0,0.0,0.0,0.0,0.0,0.0,0.0,0.0,0.0,0.0,0.0,0.0,0.0,0.0,0.0,0.0,0.0,0.0,0.0,0.0,0.0,0.0,0.0,0.0,0.0,0.0,0.0,0.0,0.0,0.0,0.0,0.0,0.0,0.0,0.0,0.0,0.0,0.0,0.0,0.0,0.0,0.0,0.0,0.0,0.0,0.0,0.0,0.0,0.0,0.0,0.0,0.0,0.0,0.0,0.0,0.0,0.0,0.0,0.0,0.0,0.0,0.0,0.0,0.0,0.0,0.0,0.0,0.0,0.0,0.0,0.0,0.0,0.0,0.0,0.0,0.0,0.0,0.0,0.0,0.0,0.0,0.0,0.0,0.0,0.0,0.0,0.0,0.0,0.0,0.0,0.0,0.0,0.0,0.0,0.0,0.0,0.0,0.0,0.0,0.0,0.0,0.0,0.0,0.0,-0.8004,-0.7332,-0.5916,0.0,0.0,0.0,0.0,0.0,0.0,0.0,0.0,0.0,0.0,0.0,0.0,0.0,0.0,0.0,0.0,0.0,0.0,0.0,0.0,0.0,0.0,0.0,0.0,0.0,0.0,0.0,0.0,0.0,0.0,0.0,0.0,0.0,0.0,0.0,0.0,0.0,0.0,0.0,0.0,0.0,0.0,0.0,0.0,0.0,0.0,0.0,0.0,0.0,0.0,0.0,0.0,0.0,0.0,0.0,0.0,0.0,0.0,0.0,0.0,0.0,0.0,0.0,0.0,0.0,0.0,0.0,0.0,0.0,0.0,0.0,0.0,0.0,0.0,0.0,0.0,0.0,0.0,0.0,0.0,0.0,0.0,0.0,0.0,0.0,0.0,0.0,0.0,0.0,0.0,0.0,0.0,0.0,0.0,0.0,0.0,0.0,0.0,0.0,0.0,0.0,0.0,0.0,0.0,0.0,0.0,0.0,0.0,0.0,0.0,-0.6721,-0.7662,-0.553,0.0,-0.3546,0.0,0.0,0.0,0.0,0.0,0.0,0.0,0.0,0.0,0.0,0.0,0.0,0.0,0.0,0.0,0.0,0.0,0.0,0.0,0.0,0.0,0.0,0.0,0.0,0.0,0.0,0.0,0.0,0.0,0.0,0.0,0.0,0.0,0.0,0.0,0.0,0.0,0.0,0.0,0.0,0.0,0.0,0.0,0.0,0.0,0.0,0.0,0.0,0.0,0.0,0.0,0.0,0.0,0.0,0.0,0.0,0.0,0.0,0.0,0.0,0.0,0.0,0.0,0.0,0.0,0.0,0.0,0.0,0.0,0.0,0.0,0.0,0.0,0.0,0.0,0.0,0.0,0.0,0.0,0.0,0.0,0.0,0.0,0.0,0.0,0.0,0.0,0.0,0.0,0.0,0.0,0.0,0.0,0.0,0.0,0.0,0.0,0.0,0.0,0.0,0.0,0.0,0.0,0.0,0.0,0.0,0.0,0.0,0.0,0.0,-0.5885,-0.5446,-0.2932,0.0692,0.0,0.0,0.0,0.0,0.0,0.0,0.0,0.0,0.0,0.0,0.0,0.0,0.0,0.0,0.0,0.0,0.0,0.0,0.0,0.0,0.0,0.0,0.0,0.0,0.0,0.0,0.0,0.0,0.0,0.0,0.0,0.0,0.0,0.0,0.0,0.0,0.0,0.0,0.0,0.0,0.0,0.0,0.0,0.0,0.0,0.0,0.0,0.0,0.0,0.0,0.0,0.0,0.0,0.0,0.0,0.0,0.0,0.0,0.0,0.0,0.0,0.0,0.0,0.0,0.0,0.0,0.0,0.0,0.0,0.0,0.0,0.0,0.0,0.0,0.0,0.0,0.0,0.0,0.0,0.0,0.0,0.0,0.0,0.0,0.0,0.0,0.0,0.0,0.0,0.0,0.0,0.0,0.0,0.0,0.0,0.0,0.0,0.0,0.0,0.0,0.0,0.0,0.0,0.0,0.0,0.0,0.0,0.0,0.0,0.0,-0.5812,-0.4907,-0.2795,0.0396,0.4832,1.0485,0.0,0.0,0.0,0.0,0.0,0.0,0.0,0.0,0.0,0.0,0.0,0.0,0.0,0.0,0.0,0.0,0.0,0.0,0.0,0.0,0.0,0.0,0.0,0.0,0.0,0.0,0.0,0.0,0.0,0.0,0.0,0.0,0.0,0.0,0.0,0.0,0.0,0.0,0.0,0.0,0.0,0.0,0.0,0.0,0.0,0.0,0.0,0.0,0.0,0.0,0.0,0.0,0.0,0.0,0.0,0.0,0.0,0.0,0.0,0.0,0.0,0.0,0.0,0.0,0.0,0.0,0.0,0.0,0.0,0.0,0.0,0.0,0.0,0.0,0.0,0.0,0.0,0.0,0.0,0.0,0.0,0.0,0.0,0.0,0.0,0.0,0.0,0.0,0.0,0.0,0.0,0.0,0.0,0.0,0.0,0.0,0.0,0.0,0.0,0.0,0.0,0.0,0.0,0.0,0.0,0.0,0.0,0.0,-0.5202,-0.5222,-0.3657,-0.0268,0.4686,0.754,0.0,0.0,0.0,0.0,0.0,0.0,0.0,0.0,0.0,0.0,0.0,0.0,0.0,0.0,0.0,0.0,0.0,0.0,0.0,0.0,0.0,0.0,0.0,0.0,0.0,0.0,0.0,0.0,0.0,0.0,0.0,0.0,0.0,0.0,0.0,0.0,0.0,0.0,0.0,0.0,0.0,0.0,0.0,0.0,0.0,0.0,0.0,0.0,0.0,0.0,0.0,0.0,0.0,0.0,0.0,0.0,0.0,0.0,0.0,0.0,0.0,0.0,0.0,0.0,0.0,0.0,0.0,0.0,0.0,0.0,0.0,0.0,0.0,0.0,0.0,0.0,0.0,0.0,0.0,0.0,0.0,0.0,0.0,0.0,0.0,0.0,0.0,0.0,0.0,0.0,0.0,0.0,0.0,0.0,0.0,0.0,0.0,0.0,0.0,0.0,0.0,0.0,0.0,0.0,0.0,0.0,0.0,0.0,0.0,-0.3496,-0.1958,-0.0787,0.0066,0.3418,0.6035,0.0,0.0,0.0,0.0,0.0,0.0,0.0,0.0,0.0,0.0,0.0,0.0,0.0,0.0,0.0,0.0,0.0,0.0,0.0,0.0,0.0,0.0,0.0,0.0,0.0,0.0,0.0,0.0,0.0,0.0,0.0,0.0,0.0,0.0,0.0,0.0,0.0,0.0,0.0,0.0,0.0,0.0,0.0,0.0,0.0,0.0,0.0,0.0,0.0,0.0,0.0,0.0,0.0,0.0,0.0,0.0,0.0,0.0,0.0,0.0,0.0,0.0,0.0,0.0,0.0,0.0,0.0,0.0,0.0,0.0,0.0,0.0,0.0,0.0,0.0,0.0,0.0,0.0,0.0,0.0,0.0,0.0,0.0,0.0,0.0,0.0,0.0,0.0,0.0,0.0,0.0,0.0,0.0,0.0,0.0,0.0,0.0,0.0,0.0,0.0,0.0,0.0,0.0,0.0,0.0,0.0,0.0,0.0,0.0,-0.1656,0.0,0.3058,0.2587,0.4491,0.6241,0.0,0.0,0.0,0.0,0.0,0.0,0.0,0.0,0.0,0.0,0.0,0.0,0.0,0.0,0.0,0.0,0.0,0.0,0.0,0.0,0.0,0.0,0.0,0.0,0.0,0.0,0.0,0.0,0.0,0.0,0.0,0.0,0.0,0.0,0.0,0.0,0.0,0.0,0.0,0.0,0.0,0.0,0.0,0.0,0.0,0.0,0.0,0.0,0.0,0.0,0.0,0.0,0.0,0.0,0.0,0.0,0.0,0.0,0.0,0.0,0.0,0.0,0.0,0.0,0.0,0.0,0.0,0.0,0.0,0.0,0.0,0.0,0.0,0.0,0.0,0.0,0.0,0.0,0.0,0.0,0.0,0.0,0.0,0.0,0.0,0.0,0.0,0.0,0.0,0.0,0.0,0.0,0.0,0.0,0.0,0.0,0.0,0.0,0.0,0.0,0.0,0.0,0.0,0.0,0.0,0.0,0.0,0.0,-0.0,0.0201,0.4817,0.7105,0.7655,0.8399,0.8598,0.0,0.0,0.0,0.0,0.0,0.0,0.0,0.0,0.0,0.0,0.0,0.0,0.0,0.0,0.0,0.0,0.0,0.0,0.0,0.0,0.0,0.0,0.0,0.0,0.0,0.0,0.0,0.0,0.0,0.0,0.0,0.0,0.0,0.0,0.0,0.0,0.0,0.0,0.0,0.0,0.0,0.0,0.0,0.0,0.0,0.0,0.0,0.0,0.0,0.0,0.0,0.0,0.0,0.0,0.0,0.0,0.0,0.0,0.0,0.0,0.0,0.0,0.0,0.0,0.0,0.0,0.0,0.0,0.0,0.0,0.0,0.0,0.0,0.0,0.0,0.0,0.0,0.0,0.0,0.0,0.0,0.0,0.0,0.0,0.0,0.0,0.0,0.0,0.0,0.0,0.0,0.0,0.0,0.0,0.0,0.0,0.0,0.0,0.0,0.0,0.0,0.0,0.0,0.0,0.0,0.0,0.0,0.0,0.0,0.1824,0.2169,0.3899,0.7002,0.8397,0.8954,0.0,0.0,0.0,0.0,0.0,0.0,0.0,0.0,0.0,0.0,0.0,0.0,0.0,0.0,0.0,0.0,0.0,0.0,0.0,0.0,0.0,0.0,0.0,0.0,0.0,0.0,0.0,0.0,0.0,0.0,0.0,0.0,0.0,0.0,0.0,0.0,0.0,0.0,0.0,0.0,0.0,0.0,0.0,0.0,0.0,0.0,0.0,0.0,0.0,0.0,0.0,0.0,0.0,0.0,0.0,0.0,0.0,0.0,0.0,0.0,0.0,0.0,0.0,0.0,0.0,0.0,0.0,0.0,0.0,0.0,0.0,0.0,0.0,0.0,0.0,0.0,0.0,0.0,0.0,0.0,0.0,0.0,0.0,0.0,0.0,0.0,0.0,0.0,0.0,0.0,0.0,0.0,0.0,0.0,0.0,0.0,0.0,0.0,0.0,0.0,0.0,0.0,0.0,0.0,0.0,0.0,0.0,0.0,0.0,0.212,0.2028,0.3034,0.524,0.7782,0.8856,0.8333,0.0,0.0,0.0,0.0,0.0,0.0,0.0,0.0,0.0,0.0,0.0,0.0,0.0,0.0,0.0,0.0,0.0,0.0,0.0,0.0,0.0,0.0,0.0,0.0,0.0,0.0,0.0,0.0,0.0,0.0,0.0,0.0,0.0,0.0,0.0,0.0,0.0,0.0,0.0,0.0,0.0,0.0,0.0,0.0,0.0,0.0,0.0,0.0,0.0,0.0,0.0,0.0,0.0,0.0,0.0,0.0,0.0,0.0,0.0,0.0,0.0,0.0,0.0,0.0,0.0,0.0,0.0,0.0,0.0,0.0,0.0,0.0,0.0,0.0,0.0,0.0,0.0,0.0,0.0,0.0,0.0,0.0,0.0,0.0,0.0,0.0,0.0,0.0,0.0,0.0,0.0,0.0,0.0,0.0,0.0,0.0,0.0,0.0,0.0,0.0,0.0,0.0,0.0,0.0,0.0,0.0,0.0,0.0,0.1398,0.3784,0.4322,0.2915,0.6924,0.8483,0.0,0.0,0.0,0.0,0.0,0.0,0.0,0.0,0.0,0.0,0.0,0.0,0.0,0.0,0.0,0.0,0.0,0.0,0.0,0.0,0.0,0.0,0.0,0.0,0.0,0.0,0.0,0.0,0.0,0.0,0.0,0.0,0.0,0.0,0.0,0.0,0.0,0.0,0.0,0.0,0.0,0.0,0.0,0.0,0.0,0.0,0.0,0.0,0.0,0.0,0.0,0.0,0.0,0.0,0.0,0.0,0.0,0.0,0.0,0.0,0.0,0.0,0.0,0.0,0.0,0.0,0.0,0.0,0.0,0.0,0.0,0.0,0.0,0.0,0.0,0.0,0.0,0.0,0.0,0.0,0.0,0.0,0.0,0.0,0.0,0.0,0.0,0.0,0.0,0.0,0.0,0.0,0.0,0.0,0.0,0.0,0.0,0.0,0.0,0.0,0.0,0.0,0.0,0.0,0.0,0.0,0.0,0.0,0.0,0.2317,0.2356,0.3058,0.4581,0.7141,0.8348,0.0,0.0,0.0,0.0,0.0,0.0,0.0,0.0,0.0,0.0,0.0,0.0,0.0,0.0,0.0,0.0,0.0,0.0,0.0,0.0,0.0,0.0,0.0,0.0,0.0,0.0,0.0,0.0,0.0,0.0,0.0,0.0,0.0,0.0,0.0,0.0,0.0,0.0,0.0,0.0,0.0,0.0,0.0,0.0,0.0,0.0,0.0,0.0,0.0,0.0,0.0,0.0,0.0,0.0,0.0,0.0,0.0,0.0,0.0,0.0,0.0,0.0,0.0,0.0,0.0,0.0,0.0,0.0,0.0,0.0,0.0,0.0,0.0,0.0,0.0,0.0,0.0,0.0,0.0,0.0,0.0,0.0,0.0,0.0,0.0,0.0,0.0,0.0,0.0,0.0,0.0,0.0,0.0,0.0,0.0,0.0,0.0,0.0,0.0,0.0,0.0,0.0,0.0,0.0,0.0,0.0,0.0,0.0,0.188,0.2673,0.2405,0.298,0.4511,0.6425,0.7472,0.0,0.0,0.0,0.0,0.0,0.0,0.0,0.0,0.0,0.0,0.0,0.0,0.0,0.0,0.0,0.0,0.0,0.0,0.0,0.0,0.0,0.0,0.0,0.0,0.0,0.0,0.0,0.0,0.0,0.0,0.0,0.0,0.0,0.0,0.0,0.0,0.0,0.0,0.0,0.0,0.0,0.0,0.0,0.0,0.0,0.0,0.0,0.0,0.0,0.0,0.0,0.0,0.0,0.0,0.0,0.0,0.0,0.0,0.0,0.0,0.0,0.0,0.0,0.0,0.0,0.0,0.0,0.0,0.0,0.0,0.0,0.0,0.0,0.0,0.0,0.0,0.0,0.0,0.0,0.0,0.0,0.0,0.0,0.0,0.0,0.0,0.0,0.0,0.0,0.0,0.0,0.0,0.0,0.0,0.0,0.0,0.0,0.0,0.0,0.0,0.0,0.0,0.0,0.0,0.0,0.0,0.0,0.0,0.2153,0.2676,0.3166,0.3418,0.3513,0.5243,0.6236,0.0,0.0,0.0,0.0,0.0,0.0,0.0,0.0,0.0,0.0,0.0,0.0,0.0,0.0,0.0,0.0,0.0,0.0,0.0,0.0,0.0,0.0,0.0,0.0,0.0,0.0,0.0,0.0,0.0,0.0,0.0,0.0,0.0,0.0,0.0,0.0,0.0,0.0,0.0,0.0,0.0,0.0,0.0,0.0,0.0,0.0,0.0,0.0,0.0,0.0,0.0,0.0,0.0,0.0,0.0,0.0,0.0,0.0,0.0,0.0,0.0,0.0,0.0,0.0,0.0,0.0,0.0,0.0,0.0,0.0,0.0,0.0,0.0,0.0,0.0,0.0,0.0,0.0,0.0,0.0,0.0,0.0,0.0,0.0,0.0,0.0,0.0,0.0,0.0,0.0,0.0,0.0,0.0,0.0,0.0,0.0,0.0,0.0,0.0,0.0,0.0,0.0,0.0,0.0,0.0,0.0,0.0,0.0,0.2563,0.2703,0.283,0.3018,0.3364,0.4708,0.5469,0.0,0.0,0.0,0.0,0.0,0.0,0.0,0.0,0.0,0.0,0.0,0.0,0.0,0.0,0.0,0.0,0.0,0.0,0.0,0.0,0.0,0.0,0.0,0.0,0.0,0.0,0.0,0.0,0.0,0.0,0.0,0.0,0.0,0.0,0.0,0.0,0.0,0.0,0.0,0.0,0.0,0.0,0.0,0.0,0.0,0.0,0.0,0.0,1.5049,0.0,0.0,0.0,0.0,0.0,0.0,0.0,0.0,0.0,0.0,0.0,0.0,0.0,0.0,0.0,0.0,0.0,0.0,0.0,0.0,0.0,0.0,0.0,0.0,0.0,0.0,0.0,0.0,0.0,0.0,0.0,0.0,0.0,0.0,0.0,0.0,0.0,0.0,0.0,0.0,0.0,0.0,0.0,0.0,0.0,0.0,0.0,0.0,0.0,0.0,0.0,0.0,0.0,0.0,0.0,0.0,0.0,0.0,0.0,0.242,0.2696,0.269,0.2819,0.3035,0.3834,0.4734,0.0,0.0,0.0,0.0,0.0,0.0,0.0,0.0,0.0,0.0,0.0,0.0,0.0,0.0,0.0,0.0,0.0,0.0,0.0,0.0,0.0,0.0,0.0,0.0,0.0,0.0,0.0,0.0,0.0,0.0,0.0,0.0,0.0,0.0,0.0,0.0,0.0,0.0,0.0,0.0,0.0,0.0,0.0,0.0,0.0,0.0,0.0,0.0,0.0,0.0,0.0,0.0,0.0,0.0,0.0,0.0,0.0,0.0,0.0,0.0,0.0,0.0,0.0,0.0,0.0,0.0,0.0,0.0,0.0,0.0,0.0,0.0,0.0,0.0,0.0,0.0,0.0,0.0,0.0,0.0,0.0,0.0,0.0,0.0,0.0,0.0,0.0,0.0,0.0,0.0,0.0,0.0,0.0,0.0,0.0,0.0,0.0,0.0,0.0,0.0,0.0,0.0,0.0,0.0,0.0,0.0,0.0,0.1642,0.2183,0.2663,0.2686,0.2679,0.2712,0.3101,0.4151,0.5898,0.0,0.0,0.0,0.0,0.0,0.0,0.0,0.0,0.0,0.0,0.0,0.0,0.0,0.0,0.0,0.0,0.0,0.0,0.0,0.0,0.0,0.0,0.0,0.0,0.0,0.0,0.0,0.0,0.0,0.0,0.0,0.0,0.0,0.0,0.0,0.0,0.0,0.0,1.5382,1.5347,0.0,0.0,0.0,0.0,0.0,0.0,0.0,0.0,1.498,0.0,0.0,0.0,0.0,0.0,0.0,0.0,0.0,0.0,0.0,0.0,0.0,0.0,0.0,0.0,0.0,0.0,0.0,0.0,0.0,0.0,0.0,0.0,0.0,0.0,0.0,0.0,0.0,0.0,0.0,0.0,0.0,0.0,0.0,0.0,0.0,0.0,0.0,0.0,0.0,0.0,0.0,0.0,0.0,0.0,0.0,0.0,0.0,0.0,0.0,0.0,0.0,0.0,0.0,0.0,0.0,0.0269,0.1747,0.2593,0.2696,0.2686,0.2679,0.2712,0.3097,0.3926,0.5304,0.0,0.0,0.0,0.0,0.0,0.0,0.0,0.0,0.0,0.0,0.0,0.0,0.0,0.0,0.0,0.0,0.0,0.0,0.0,0.0,0.0,0.0,0.0,0.0,0.0,0.0,0.0,0.0,0.0,0.0,0.0,0.0,0.0,0.0,0.0,0.0,0.0,0.0,0.0,1.5303,1.5272,0.0,0.0,0.0,0.0,0.0,0.0,0.0,0.0,1.4977,0.0,0.0,0.0,0.0,0.0,0.0,0.0,0.0,0.0,0.0,0.0,0.0,0.0,0.0,0.0,0.0,0.0,0.0,0.0,0.0,0.0,0.0,0.0,0.0,0.0,0.0,0.0,0.0,0.0,0.0,0.0,0.0,0.0,0.0,0.0,0.0,0.0,0.0,0.0,0.0,0.0,0.0,0.0,0.0,0.0,0.0,0.0,0.0,0.0,0.0,0.0,0.0,0.0,0.0,0.0,0.1377,0.134,0.1747,0.2639,0.2696,0.269,0.269,0.2878,0.3704,0.0,0.0,0.0,0.0,0.0,0.0,0.0,0.0,0.0,0.0,0.0,0.0,0.0,0.0,0.0,0.0,0.0,0.0,0.0,0.0,0.0,0.0,0.0,0.0,0.0,0.0,0.0,0.0,0.0,0.0,0.0,0.0,0.0,0.0,0.0,0.0,0.0,0.0,0.0,0.0,1.5298,1.5272,1.5195,0.0,0.0,0.0,0.0,0.0,0.0,1.5033,1.5068,0.0,0.0,0.0,0.0,0.0,0.0,0.0,0.0,0.0,0.0,0.0,0.0,0.0,0.0,0.0,0.0,0.0,0.0,0.0,0.0,0.0,0.0,0.0,0.0,0.0,0.0,0.0,0.0,0.0,0.0,0.0,0.0,0.0,0.0,0.0,0.0,0.0,0.0,0.0,0.0,0.0,0.0,0.0,0.0,0.0,0.0,0.0,0.0,0.0,0.0,0.0,0.0,0.0,0.0,0.0,0.1984,0.0816,0.0787,0.2021,0.2298,0.2505,0.2684,0.2682,0.344,0.0,0.0,0.0,0.0,0.0,0.0,0.0,0.0,0.0,0.0,0.0,0.0,0.0,0.0,0.0,0.0,0.0,0.0,0.0,0.0,0.0,0.0,0.0,0.0,0.0,0.0,0.0,0.0,0.0,0.0,0.0,0.0,0.0,0.0,0.0,0.0,0.0,0.0,0.0,0.0,0.0,1.5291,1.5234,1.5234,0.0,0.0,0.0,0.0,1.5021,1.5088,0.0,0.0,0.0,0.0,0.0,0.0,0.0,0.0,0.0,0.0,0.0,0.0,0.0,0.0,0.0,0.0,0.0,0.0,0.0,0.0,0.0,0.0,0.0,0.0,0.0,0.0,0.0,0.0,0.0,0.0,0.0,0.0,0.0,0.0,0.0,0.0,0.0,0.0,0.0,0.0,0.0,0.0,0.0,0.0,0.0,0.0,0.0,0.0,0.0,0.0,0.0,0.0,0.0,0.0,0.0,0.0,-0.0073,0.0504,0.0512,0.0038,0.0923,0.1888,0.2668,0.267,0.3247,0.0,0.0,0.0,0.0,0.0,0.0,0.0,0.0,0.0,0.0,0.0,0.0,0.0,0.0,0.0,0.0,0.0,0.0,0.0,0.0,0.0,0.0,0.0,0.0,0.0,0.0,0.0,0.0,0.0,0.0,0.0,0.0,0.0,0.0,0.0,0.0,0.0,0.0,0.0,0.0,0.0,1.5291,1.5291,1.5291,1.5272,0.0,0.0,1.5088,1.5009,1.5021,0.0,0.0,0.0,0.0,0.0,0.0,0.0,0.0,0.0,0.0,0.0,0.0,0.0,0.0,0.0,0.0,0.0,0.0,0.0,0.0,0.0,0.0,0.0,0.0,0.0,0.0,0.0,0.0,0.0,0.0,0.0,0.0,0.0,0.0,0.0,0.0,0.0,0.0,0.0,0.0,0.0,0.0,0.0,0.0,0.0,0.0,0.0,0.0,0.0,0.0,0.0,0.0,0.0,0.0,0.0,-0.1805,-0.216,-0.1761,-0.141,-0.1169,-0.0195,0.0508,0.0938,0.1572,0.2139,0.0,0.0,0.0,0.0,0.0,0.0,0.0,0.0,0.0,0.0,0.0,0.0,0.0,0.0,0.0,0.0,0.0,0.0,0.0,0.0,0.0,0.0,0.0,0.0,0.0,0.0,0.0,0.0,0.0,0.0,0.0,0.0,0.0,0.0,0.0,0.0,0.0,0.0,0.0,0.0,0.0,0.0,1.5295,1.5291,0.0,0.0,0.0,1.5901,1.5856,0.0,0.0,0.0,0.0,0.0,0.0,0.0,0.0,0.0,0.0,0.0,0.0,0.0,0.0,0.0,0.0,0.0,0.0,0.0,0.0,0.0,0.0,0.0,0.0,0.0,0.0,0.0,0.0,0.0,0.0,0.0,0.0,0.0,0.0,0.0,0.0,0.0,0.0,0.0,0.0,0.0,0.0,0.0,0.0,0.0,0.0,0.0,0.0,0.0,0.0,0.0,0.0,0.0,0.0,0.0,0.0,0.0,-0.359,-0.3384,-0.2967,-0.2261,-0.1577,-0.1052,-0.0768,0.008,0.0,0.0,0.0,0.0,0.0,0.0,0.0,0.0,0.0,0.0,0.0,0.0,0.0,0.0,0.0,0.0,0.0,0.0,0.0,0.0,0.0,0.0,0.0,0.0,0.0,0.0,0.0,1.4057,0.0,0.0,0.0,0.0,0.0,0.0,0.0,0.0,0.0,0.0,0.0,0.0,0.0,0.0,1.5367,1.5579,1.5597,1.568,0.0,0.0,1.6851,1.6843,1.7356,1.7734,0.0,0.0,0.0,0.0,0.0,0.0,0.0,0.0,0.0,0.0,0.0,0.0,0.0,0.0,0.0,0.0,0.0,0.0,0.0,0.0,0.0,0.0,0.0,0.0,0.0,0.0,0.0,0.0,0.0,0.0,0.0,0.0,0.0,0.0,0.0,0.0,0.0,0.0,0.0,0.0,0.0,0.0,0.0,0.0,0.0,0.0,0.0,0.0,0.0,0.0,0.0,0.0,0.0,0.0,0.0,-0.3591,-0.338,-0.3331,-0.3453,-0.3422,-0.2843,-0.177,-0.1616,-0.0454,0.0,0.0,0.0,0.0,0.0,0.0,0.0,0.0,0.0,0.0,0.0,0.0,0.0,0.0,0.0,0.0,0.0,0.0,0.0,0.0,0.0,0.0,0.0,0.0,0.0,0.0,0.0,0.0,0.0,0.0,0.0,0.0,0.0,0.0,0.0,0.0,0.0,0.0,0.0,0.0,0.0,1.5595,1.6308,1.6426,1.6699,0.0,0.0,1.7822,1.7798,1.7863,1.7876,1.7895,0.0,0.0,0.0,0.0,0.0,0.0,0.0,0.0,0.0,0.0,0.0,0.0,0.0,0.0,0.0,0.0,0.0,0.0,0.0,0.0,0.0,0.0,0.0,0.0,0.0,0.0,0.0,0.0,0.0,0.0,0.0,0.0,0.0,0.0,0.0,0.0,0.0,0.0,0.0,0.0,0.0,0.0,0.0,0.0,0.0,0.0,0.0,0.0,0.0,0.0,0.0,0.0,0.0,-0.3512,-0.3622,-0.3524,-0.3524,-0.3622,-0.3585,-0.3357,-0.2904,-0.2909,-0.2435,0.0,0.0,0.0,0.0,0.0,0.0,0.0,0.0,0.0,0.0,0.0,0.0,0.0,0.0,0.0,0.0,0.0,0.0,0.0,0.0,0.0,0.0,0.0,0.0,0.0,0.0,0.0,0.0,1.3092,1.3309,1.347,0.0,0.0,0.0,0.0,0.0,0.0,0.0,0.0,0.0,0.0,1.6654,1.6996,1.7122,0.0,0.0,1.8222,1.8627,1.8574,1.9029,1.9378,1.9378,1.9378,0.0,0.0,0.0,0.0,0.0,0.0,0.0,0.0,0.0,0.0,0.0,0.0,0.0,0.0,0.0,0.0,0.0,0.0,0.0,0.0,0.0,0.0,0.0,0.0,0.0,0.0,0.0,0.0,0.0,0.0,0.0,0.0,0.0,0.0,0.0,0.0,0.0,0.0,0.0,0.0,0.0,0.0,0.0,0.0,0.0,0.0,0.0,0.0,0.0,0.0,0.0,0.0,-0.3836,-0.3836,-0.3836,-0.3836,-0.3836,-0.3667,-0.3578,-0.3622,-0.3762,-0.3755,0.0,0.0,0.0,0.0,0.0,0.0,0.0,0.0,0.0,0.0,0.0,0.0,0.0,0.0,0.0,0.0,0.0,0.0,0.0,0.0,0.0,0.0,0.0,0.0,0.0,0.0,0.0,0.0,1.2851,1.3193,1.3393,0.0,0.0,0.0,0.0,0.0,0.0,0.0,0.0,0.0,0.0,1.687,1.716,1.7358,1.7595,1.7863,1.8639,1.9221,1.9196,1.9756,2.0221,2.026,0.0,0.0,0.0,0.0,0.0,0.0,0.0,0.0,0.0,0.0,0.0,0.0,0.0,0.0,0.0,0.0,0.0,0.0,0.0,0.0,0.0,0.0,0.0,0.0,0.0,0.0,0.0,0.0,0.0,0.0,-0.9632,0.0,0.0,0.0,0.0,0.0,0.0,0.0,0.0,0.0,0.0,0.0,0.0,0.0,0.0,0.0,0.0,0.0,0.0,0.0,0.0,0.0,0.0,-0.4387,-0.4347,-0.4391,-0.4387,-0.4387,-0.388,-0.3626,-0.367,-0.4092,-0.4164,-0.3635,0.0,0.0,0.0,0.0,0.0,0.0,0.0,0.0,0.0,0.0,0.0,0.0,0.0,0.0,0.0,0.0,0.0,0.0,0.0,0.0,0.0,0.0,0.0,0.0,0.0,0.0,1.2257,1.3031,1.3625,0.0,0.0,0.0,0.0,0.0,0.0,0.0,0.0,0.0,0.0,1.5435,1.5851,1.6627,1.706,1.7594,1.8418,1.9072,1.9484,1.9541,1.9805,2.0055,0.0,0.0,0.0,0.0,0.0,0.0,0.0,0.0,0.0,0.0,0.0,0.0,0.0,0.0,0.0,0.0,0.0,0.0,0.0,0.0,0.0,0.0,0.0,0.0,0.0,0.0,0.0,-1.1664,-1.1526,0.0,0.0,0.0,0.0,0.0,0.0,0.0,0.0,0.0,0.0,0.0,-1.0954,-1.0427,0.0,0.0,0.0,0.0,0.0,0.0,0.0,0.0,0.0,0.0,0.0,0.0,-0.4387,-0.4387,-0.4783,-0.5,-0.5,-0.4439,-0.4308,-0.47,-0.4522,-0.4618,-0.5116,0.0,0.0,0.0,0.0,0.0,0.0,0.0,0.0,0.0,0.0,0.0,0.0,0.0,0.0,0.0,0.0,0.0,0.0,0.0,0.0,0.0,0.0,0.0,0.0,0.0,1.2501,0.0,0.0,0.0,0.0,0.0,0.0,0.0,0.0,0.0,0.0,0.0,1.5436,1.52,1.567,1.6235,1.6759,1.7016,1.7394,0.0,0.0,0.0,0.0,0.0,0.0,0.0,0.0,0.0,0.0,0.0,0.0,0.0,0.0,2.0309,2.0503,2.0519,2.0539,2.0539,0.0,0.0,0.0,0.0,0.0,0.0,0.0,0.0,0.0,0.0,0.0,0.0,0.0,0.0,-1.2282,0.0,-1.2102,0.0,0.0,0.0,0.0,0.0,0.0,0.0,0.0,-1.1872,-1.2029,-1.2029,-1.1472,-1.0939,0.0,-0.9806,-0.8448,0.0,0.0,0.0,0.0,0.0,0.0,0.0,0.0,-0.5,-0.5043,-0.5432,-0.561,-0.5567,-0.5,-0.4913,-0.5265,-0.4899,-0.5211,-0.6257,-0.6736,-0.652,0.0,0.0,0.0,0.0,0.0,0.0,0.0,0.0,0.0,0.0,0.0,0.0,0.0,0.0,0.0,0.0,0.0,0.0,0.0,0.0,0.0,0.0,0.0,1.1656,0.0,0.0,0.0,0.0,0.0,0.0,0.0,0.0,0.0,1.3391,1.4071,1.4357,1.4136,1.4696,1.5264,1.551,0.0,0.0,0.0,0.0,0.0,0.0,0.0,1.8342,1.8788,1.895,1.9121,1.9449,1.9649,1.9766,1.9764,0.0,0.0,2.0426,2.0498,2.0537,2.0537,2.0486,2.0443,2.0424,2.0366,2.035,0.0,0.0,0.0,0.0,0.0,0.0,0.0,0.0,-1.3163,-1.3176,0.0,-1.272,0.0,0.0,0.0,0.0,0.0,-1.2246,0.0,0.0,-1.2425,-1.2461,-1.2473,-1.1982,-1.1505,-1.1008,-1.0943,-1.0118,-0.8665,-0.8123,0.0,0.0,0.0,0.0,0.0,0.0,-0.6221,-0.6179,-0.6221,-0.6221,-0.6227,-0.5658,-0.5308,-0.5346,-0.5358,-0.5871,-0.6937,-0.6996,-0.6986,-0.6943,-0.5577,0.0,0.0,0.0,0.0,0.0,0.0,0.0,0.0,0.0,0.0,0.0,0.0,0.0,0.0,0.0,0.0,0.0,0.0,0.0,0.0,0.934,0.0,0.0,0.0,0.0,0.0,0.0,0.0,0.0,0.0,0.0,1.1833,1.2391,1.25,1.2163,0.0,0.0,0.0,0.0,1.3409,1.3433,1.4684,1.5637,1.5679,1.6662,1.7473,1.7649,0.0,0.0,1.887,1.923,1.9455,1.9455,1.9699,2.0006,2.0125,2.0288,2.0379,2.0406,2.0387,2.039,2.039,2.0391,2.0376,-1.368,0.0,0.0,0.0,0.0,-1.2873,-1.2873,-1.272,-1.306,-1.321,-1.3198,-1.306,0.0,0.0,0.0,0.0,0.0,0.0,-1.2186,-1.2473,-1.2138,-1.2174,-1.2461,-1.1605,-1.1169,-1.0981,-1.0649,-1.0254,-0.9825,-0.9934,-0.8683,-0.6156,0.0,0.0,0.0,0.0,-0.6784,-0.6748,-0.6761,-0.6774,-0.6768,-0.6215,-0.5959,-0.5959,-0.6325,-0.6666,-0.6979,-0.6996,-0.7003,-0.6992,-0.7068,0.0,0.0,0.0,0.0,0.0,0.0,0.0,0.0,0.0,0.0,0.0,0.0,0.0,0.0,0.0,0.0,0.0,0.0,0.0,0.8178,0.7884,0.785,0.0,0.0,0.0,0.0,0.0,0.0,0.0,0.0,0.0,0.8383,0.9775,1.0714,0.0,0.0,1.1172,1.1895,1.1743,1.1698,1.1971,1.239,0.0,1.3485,1.3874,1.4399,1.5236,1.616,1.7065,1.7807,1.8244,1.8502,1.8502,1.8859,1.9204,1.9451,1.9836,2.0124,2.0222,2.0256,2.0274,2.0324,2.037,2.0375,-1.5341,-1.4463,-1.4074,-1.3728,-1.346,-1.3764,-1.3728,-1.346,-1.374,-1.376,-1.3546,-1.3559,-1.3245,-1.2791,-1.3082,0.0,0.0,0.0,-1.2842,-1.3107,-1.2822,-1.2866,-1.3065,-1.2345,-1.1958,-1.1929,-1.1416,-1.1186,-1.1146,-1.117,-1.0094,-0.804,0.0,0.0,-0.7227,-0.7304,-0.7361,-0.7361,-0.7375,-0.7337,-0.7337,-0.728,-0.728,-0.7273,-0.7085,-0.7276,-0.7865,-0.7743,-0.7601,-0.7384,-0.7991,-0.7942,0.0,0.0,0.0,0.0,0.0,0.0,0.0,0.0,0.0,0.0,0.0,0.1461,0.2082,0.0,0.0,0.0,0.5637,0.5737,0.538,0.5959,0.0,0.0,0.0,0.0,0.0,0.0,0.0,0.7447,0.6318,0.5588,0.5631,0.6657,0.7666,0.839,0.8669,0.9063,0.9639,0.0,0.9349,0.9556,1.0128,1.0699,1.1231,1.1803,1.2527,1.356,1.4298,1.5122,1.5983,1.6694,1.7176,1.7283,1.7793,1.8428,1.8717,1.9038,1.9448,1.9934,2.0068,2.0111,2.0191,2.0274,2.0319,-1.7137,-1.6559,-1.5567,-1.5104,-1.4979,-1.4979,-1.4953,-1.4903,-1.4903,-1.4626,-1.4197,-1.4197,-1.3871,-1.3336,-1.3323,0.0,-1.3348,-1.3921,-1.416,-1.416,-1.4116,-1.4086,-1.4098,-1.3587,-1.3406,-1.3395,-1.2773,-1.2521,-1.2521,-1.193,-1.1435,-1.0964,-1.0226,-0.9614,-0.9067,-0.8421,-0.8112,-0.816,-0.8058,-0.797,-0.7923,-0.8475,-0.8835,-0.8781,-0.7863,-0.7961,-0.9185,-0.9031,-0.8635,-0.8123,-0.8512,-0.8365,-0.737,0.0,0.0,0.0,0.0,0.0,0.0,0.0,0.0,0.0,0.0,0.0,0.0,0.0,0.0,0.0,0.2817,0.0,0.1991,0.3705,0.0,0.0,0.0,0.6626,0.6613,0.6691,0.644,0.5572,0.0,0.0,0.3458,0.3442,0.3982,0.5418,0.6259,0.6811,0.6902,0.6915,0.6771,0.689,0.7993,0.8876,0.8967,1.0044,1.1182,1.2123,1.2418,1.2804,1.3829,1.4877,1.5549,1.563,1.6645,1.7552,1.7868,1.7973,1.837,1.9433,1.9764,1.9886,1.998,2.0096,2.0197,-1.7928,-1.779,-1.7526,-1.6685,-1.5517,-1.5505,-1.5266,-1.4916,-1.4903,-1.484,-1.4714,-1.4714,-1.4639,-1.4525,-1.4488,-1.4475,-1.4488,-1.4664,-1.4714,-1.4676,-1.4298,-1.4086,-1.4086,-1.3639,-1.3406,-1.3365,-1.2784,-1.2742,-1.314,-1.242,-1.2232,-1.2518,-1.1714,-1.0992,-1.0363,-1.0202,-1.0112,-1.0103,-0.9159,-0.8428,-0.7929,-0.8065,-0.8153,-0.816,-0.9321,-0.9649,-0.9035,-0.9894,-1.0118,-0.9604,-0.9712,-0.9694,-0.9518,-0.9253,0.0,0.0,0.0,0.0,0.0,0.0,0.0,0.0,0.0,-0.3983,-0.2452,0.0,-0.0087,0.0,0.0701,0.1453,0.2936,0.2012,0.0,0.0,0.3224,0.3955,0.3152,0.4604,0.4925,0.2978,0.2453,0.2233,0.2233,0.223,0.1997,0.1625,0.3912,0.5964,0.6732,0.6173,0.569,0.5646,0.595,0.6337,0.6719,0.7407,0.8475,0.9809,1.0034,1.0615,1.2346,1.3402,1.4038,1.4142,1.5503,1.6465,1.6413,1.6904,1.763,1.8372,1.895,1.9406,1.9544,1.9785,2.0012,-1.9213,-1.8956,-1.9249,-1.8525,-1.7162,-1.6923,-1.6635,-1.6358,-1.6358,-1.622,-1.5957,-1.5442,-1.5142,-1.4916,-1.4903,-1.4903,-1.4928,-1.5167,-1.5229,-1.5241,-1.5224,-1.5147,-1.5147,-1.4923,-1.4785,-1.4755,-1.4181,-1.4053,-1.4278,-1.3411,-1.3088,-1.339,-1.2647,-1.2119,-1.1742,-1.1127,-1.0798,-1.0798,-1.0083,-0.9552,-0.9227,-0.9463,-0.9512,-0.9227,-1.0501,-1.0798,-0.9988,-1.0886,-1.1104,-1.0474,-1.0628,-1.0705,-1.052,-1.029,-1.0025,0.0,0.0,0.0,0.0,0.0,0.0,0.0,0.0,0.0,0.0,0.0,-0.3165,-0.1706,-0.1588,-0.0792,0.122,-0.0439,-0.1591,-0.1589,0.0044,0.0972,0.0492,0.1425,0.1866,0.1067,0.0534,0.0178,0.0178,0.0091,-0.0183,-0.0914,0.0231,0.1791,0.3378,0.3223,0.2823,0.2852,0.3392,0.4299,0.5394,0.5933,0.6419,0.7158,0.7638,0.8461,1.0236,1.1393,1.2208,1.2718,1.3588,1.4544,1.5233,1.6189,1.7042,1.7601,1.8466,1.9204,1.9563,1.9876,2.0233,-2.0475,-1.9963,-2.0485,-2.0075,-1.9033,-1.8618,-1.8329,-1.8204,-1.8204,-1.794,-1.7426,-1.6446,-1.5743,-1.5344,-1.5344,-1.5344,-1.5369,-1.5718,-1.5906,-1.5932,-1.6333,-1.6534,-1.6534,-1.6522,-1.6534,-1.6479,-1.5864,-1.5632,-1.5676,-1.44,-1.3815,-1.3862,-1.3238,-1.2891,-1.2832,-1.1692,-1.1023,-1.0914,-1.0914,-1.0864,-1.0813,-1.1358,-1.1408,-1.0855,-1.1283,-1.149,-1.13,-1.1827,-1.1758,-1.1055,-1.141,-1.1435,-1.0927,-1.0979,-1.0778,0.0,-0.9853,0.0,0.0,0.0,0.0,0.0,0.0,0.0,0.0,-0.693,-0.5976,-0.3825,-0.3665,-0.3093,-0.1671,-0.276,-0.3595,-0.3551,-0.2684,-0.1873,-0.156,-0.1828,-0.1652,-0.0626,-0.1436,-0.2072,-0.205,-0.2297,-0.2394,-0.2494,-0.3096,-0.2689,-0.1015,-0.0558,-0.0666,-0.0723,0.0539,0.2066,0.3648,0.4413,0.4646,0.471,0.5385,0.6411,0.7862,0.9109,1.0215,1.117,1.1542,1.221,1.3972,1.5224,1.6145,1.6488,1.7638,1.8861,1.9644,2.0101,2.0637,-2.0661,-2.0464,-2.0142,-1.9838,-1.9648,-1.9547,-1.9007,-1.8204,-1.8204,-1.8154,-1.8041,-1.7827,-1.7664,-1.7564,-1.7564,-1.7576,-1.7551,-1.7212,-1.7061,-1.7049,-1.6685,-1.6534,-1.6534,-1.6534,-1.6534,-1.6479,-1.5864,-1.5852,-1.6281,-1.4595,-1.405,-1.4468,-1.343,-1.2891,-1.2881,0.0,0.0,0.0,-1.1616,-1.1366,-1.0813,-1.0914,-1.0922,-1.0813,-1.1437,0.0,-1.1697,-1.2368,-1.248,-1.1991,-1.2008,0.0,0.0,0.0,0.0,0.0,0.0,0.0,0.0,0.0,0.0,0.0,-0.6852,-0.677,-0.6959,-0.6605,-0.5847,-0.4622,-0.4351,-0.3949,-0.3252,-0.3398,-0.3585,-0.3581,-0.3401,-0.3217,-0.317,-0.3185,-0.3224,-0.3289,-0.3447,-0.3586,-0.3538,-0.3639,-0.3701,-0.3745,-0.4179,-0.4069,-0.3352,-0.3169,-0.3345,-0.3512,-0.2057,-0.0999,-0.0548,0.0799,0.1854,0.2529,0.3633,0.473,0.5775,0.6859,0.795,0.899,1.0109,1.098,1.1619,1.2843,1.4082,1.4387,1.5813,1.7562,1.9403,2.0021,2.0416,-2.157,0.0,-2.1681,-2.1519,0.0,-2.1255,-2.0752,-1.9911,-1.9603,-1.9317,-1.9059,-1.875,-1.8455,-1.8204,-1.8204,-1.8204,-1.8191,-1.7915,-1.779,-1.7765,-1.7488,-1.735,-1.735,-1.7061,-1.6948,-1.6923,-1.6318,-1.6194,-1.6423,-1.5276,-1.4812,-1.5096,-1.3967,-1.3324,-1.3324,-1.3055,-1.2715,-1.2344,-1.2344,-1.2187,-1.1841,-1.1841,-1.1633,-1.1316,-1.199,0.0,0.0,0.0,0.0,0.0,0.0,0.0,0.0,-1.2002,0.0,-1.1514,-1.1315,-1.0816,-1.0048,-0.9972,-0.9785,-0.9308,-0.9011,-0.8342,-0.7112,-0.6761,-0.6386,-0.5879,-0.5524,-0.5178,-0.4927,-0.4618,-0.4368,-0.4176,-0.4141,-0.4073,-0.3828,-0.3802,-0.3836,-0.3952,-0.4021,-0.4007,-0.3979,-0.4408,-0.4499,-0.4302,-0.4984,-0.5336,-0.48,-0.444,-0.433,-0.4467,-0.3828,-0.3126,-0.3076,-0.2489,-0.1212,-0.0,0.1263,0.2521,0.3852,0.5019,0.6069,0.7062,0.8072,0.8989,1.0206,1.1469,1.2567,1.3172,1.4627,1.6335,1.8022,1.9351,2.05,-2.2817,-2.2978,-2.3423,-2.3335,-2.2865,-2.2865,-2.2491,-2.1815,0.0,0.0,0.0,-1.9541,-1.9005,-1.8493,-1.8493,-1.8493,-1.848,-1.8392,-1.8355,-1.8342,-1.8242,-1.8204,-1.8179,-1.7752,-1.7526,-1.7501,-1.7036,-1.681,-1.6767,-1.6199,-1.5873,-1.5816,-1.4815,-1.4259,-1.4212,-1.3616,-1.3293,-1.3273,-1.3047,-1.2891,-1.2891,-1.2891,-1.2618,-1.2021,-1.2559,-1.2608,-1.203,-1.2559,-1.292,-1.3065,-1.2968,-1.2978,-1.3055,-1.2577,-1.2297,-1.2334,-1.1992,-1.1758,-1.1724,-1.1714,-1.1653,-1.1493,-1.0929,-0.975,-0.7631,-0.7389,-0.726,-0.7052,-0.6619,-0.632,-0.6182,-0.5782,-0.5341,-0.5009,-0.496,-0.4836,-0.4454,-0.4405,-0.4439,-0.4392,-0.45,-0.4465,-0.4564,-0.5139,-0.5331,-0.493,-0.5761,-0.6426,-0.5742,-0.5099,-0.4698,-0.4747,-0.4429,-0.4408,-0.4425,-0.4359,-0.3805,-0.2266,-0.1329,-0.0111,0.1654,0.2982,0.4078,0.5148,0.5833,0.695,0.8644,0.9869,1.0902,1.154,1.3248,1.4879,1.584,1.7799,1.9626,-2.4214,-2.4226,-2.382,-2.3659,-2.3576,-2.3576,-2.3178,-2.2519,-2.1849,-2.1253,-2.069,-2.0591,-2.0191,-1.9572,-1.9572,-1.9572,-1.9547,-1.912,-1.8858,-1.8894,-1.843,-1.8204,-1.8204,-1.8129,-1.8091,-1.8091,-1.8003,-1.7965,-1.7872,-1.7338,-1.7051,-1.6991,-1.6382,-1.6025,-1.5986,-1.526,-1.4892,-1.4831,-1.3571,-1.2891,-1.2891,-1.2891,-1.2871,-1.2764,-1.2822,-1.2881,-1.2774,-1.2832,-1.3152,-1.3589,-1.32,-1.3152,-1.3637,-1.313,-1.2793,-1.2783,-1.2734,-1.2529,-1.2168,-1.2109,-1.1751,-1.0976,-1.0351,-0.9781,-0.9366,-0.8913,-0.8233,-0.7214,-0.7054,-0.6742,-0.6303,-0.6145,-0.6086,-0.6001,-0.5971,-0.5926,-0.5808,-0.5834,-0.5878,-0.5918,-0.6076,-0.6047,-0.6053,-0.6289,-0.6357,-0.6269,-0.6445,-0.6588,-0.647,-0.5801,-0.5412,-0.5269,-0.4846,-0.4522,-0.4636,-0.4532,-0.4359,-0.4138,-0.3805,-0.2901,-0.1107,-0.0,0.1215,0.3018,0.396,0.507,0.6304,0.7264,0.8084,0.8592,1.0409,1.1969,1.2344,1.4298,1.6718,-2.5241,-2.5533,-2.5317,-2.5249,-2.522,-2.4887,-2.4568,-2.4278,-2.3927,-2.2861,-2.1272,-2.0597,-2.0295,-2.0295,-1.9952,-1.9798,-1.9786,-1.9547,-1.9434,-1.9434,-1.9183,-1.907,-1.9032,-1.8794,-1.8643,-1.8631,-1.8342,-1.8204,-1.8144,-1.7894,-1.7798,-1.775,-1.7193,-1.6749,-1.64,-1.6036,-1.5822,-1.58,-1.4124,-1.3232,-1.3223,-1.2998,-1.2891,-1.2891,-1.2918,-1.2918,-1.2929,-1.2928,-1.3042,-1.3324,-1.3055,-1.32,-1.3732,-1.3505,-1.3563,-1.3836,-1.3563,-1.328,-1.3077,-1.2743,-1.2425,-1.1981,-1.1693,-1.1348,-1.0893,-1.0009,-0.9105,-0.8179,-0.8078,-0.7801,-0.7188,-0.7092,-0.7032,-0.6834,-0.6821,-0.6672,-0.6447,-0.6437,-0.6442,-0.6508,-0.6513,-0.6544,-0.6573,-0.6966,-0.702,-0.675,-0.6912,-0.7289,-0.767,-0.7176,-0.6524,-0.614,-0.5823,-0.5664,-0.5609,-0.5281,-0.5066,-0.5066,-0.4754,-0.4141,-0.3231,-0.2621,-0.161,0.011,0.1382,0.2599,0.3908,0.5124,0.6009,0.7047,0.7576,0.8555,0.932,1.1112,1.3748,-2.6215,-2.6736,-2.6774,-2.6806,-2.6782,-2.6258,-2.5863,-2.5634,-2.5571,-2.4403,-2.24,-2.1289,-2.1049,-2.1143,-2.0527,-2.0169,-2.0016,-1.985,-1.9798,-1.9798,-1.9798,-1.9798,-1.9761,-1.9371,-1.9196,-1.9158,-1.8756,-1.8568,-1.8568,-1.8568,-1.8568,-1.8507,-1.8093,-1.7637,-1.7175,-1.7035,-1.6933,-1.6797,-1.5171,-1.4246,-1.4135,-1.386,-1.3598,-1.3292,-1.3296,-1.315,-1.292,-1.3004,-1.3127,-1.316,-1.3258,-1.3583,-1.4133,-1.4086,-1.419,-1.4617,-1.4226,-1.3931,-1.3794,-1.3354,-1.3065,-1.2891,-1.2891,-1.2657,-1.2083,-1.1196,-1.0276,-0.9479,-0.932,-0.9122,-0.8663,-0.8504,-0.8282,-0.7903,-0.7696,-0.7516,-0.7158,-0.7069,-0.709,-0.7074,-0.7101,-0.7149,-0.7176,-0.7557,-0.7824,-0.7599,-0.7818,-0.8415,-0.8844,-0.8521,-0.7925,-0.7289,-0.6858,-0.6534,-0.6588,-0.615,-0.5814,-0.576,-0.534,-0.4963,-0.4688,-0.4584,-0.4135,-0.2605,-0.1721,-0.0443,0.121,0.2369,0.3534,0.4743,0.53,0.5739,0.7246,0.8517,1.1011,-2.7408,-2.7458,-2.7458,-2.7494,-2.7455,-2.743,-2.6692,-2.5741,-2.5676,-2.5249,-2.4437,-2.431,-2.3576,-2.2523,-2.1867,-2.131,-2.0725,-2.0105,-1.9875,-1.9875,-1.9798,-1.9798,-1.9798,-1.9736,-1.9736,-1.9698,-1.9623,-1.956,-1.956,-1.9597,-1.9635,-1.966,-1.9597,-1.9508,-1.9354,-1.8758,-1.8443,-1.8454,-1.7281,-1.6465,-1.6081,-1.6087,-1.5543,-1.4458,-1.4426,-1.3944,-1.3047,-1.3427,-1.3809,-1.3989,-1.4337,-1.481,-1.5287,-1.4915,-1.4663,-1.4698,-1.4652,-1.437,-1.3865,-1.3751,-1.3457,-1.2978,-1.2929,-1.2881,-1.2774,-1.2648,-1.2036,-1.093,-1.0639,-1.0515,-1.0505,-1.0132,-0.9756,-0.9453,-0.8985,-0.8612,-0.86,-0.8586,-0.8593,-0.8593,-0.8521,-0.8586,-0.8474,-0.8586,-0.8896,-0.9228,-0.9332,-0.9496,-0.9658,-0.9607,-0.9295,-0.8573,-0.7557,-0.6804,-0.6696,-0.6583,-0.6529,-0.6475,-0.6426,-0.605,-0.555,-0.4995,-0.4546,-0.4835,-0.4688,-0.3613,-0.2485,-0.1544,-0.0221,0.1434,0.2526,0.3776,0.5891,0.6685,0.8504,-2.756,-2.756,-2.756,-2.756,-2.756,-2.756,-2.7309,-2.6804,-2.6804,-2.6642,-2.6421,-2.6441,-2.5456,-2.3851,-2.3225,-2.2733,-2.2528,-2.2248,-2.1703,-2.103,-2.0991,-2.0566,-1.9875,-1.9798,-1.9798,-1.9798,-1.9798,-1.9798,-1.9798,-1.9798,-1.9798,-1.9798,-1.9798,-1.9798,-1.9798,-1.9475,-1.9359,-1.9347,-1.8891,-1.857,-1.8253,-1.7051,-1.6148,-1.5687,-1.5225,-1.4782,-1.4376,-1.4947,-1.5156,-1.4858,-1.4727,-1.4994,-1.5588,-1.5365,-1.5421,-1.57,-1.5421,-1.4949,-1.4403,-1.3999,-1.3684,-1.342,-1.3104,-1.2891,-1.2891,-1.2891,-1.2627,-1.2107,-1.1683,-1.1266,-1.0864,-1.0458,-1.0269,-1.0269,-0.9946,-0.9695,-0.9953,-0.9955,-0.9859,-0.9465,-0.9392,-0.9235,-0.8949,-0.9159,-0.9666,-1.021,-1.0415,-1.0415,-1.0364,-1.0415,-1.0261,-0.9961,-0.9117,-0.8396,-0.7984,-0.7509,-0.7295,-0.7182,-0.6858,-0.6421,-0.6199,-0.5692,-0.5584,-0.6213,-0.6475,-0.6137,-0.4852,-0.3981,-0.2881,-0.1711,-0.0608,0.0825,0.2407,0.3182,0.4908,-2.756,-2.756,-2.756,-2.756,-2.756,-2.756,-2.756,-2.756,-2.756,-2.756,-2.756,-2.756,-2.6837,-2.552,-2.4611,-2.4137,-2.3969,-2.3817,-2.3108,-2.2125,-2.2047,-2.142,-2.0328,-2.0263,-2.0188,-2.0062,-2.0049,-1.9962,-1.9823,-1.9798,-1.9798,-1.9798,-1.9798,-1.9798,-1.9798,-1.9798,-1.9798,-1.9798,-1.9798,-1.9798,-1.957,-1.8205,-1.7198,-1.6846,-1.6303,-1.5864,-1.5585,-1.6248,-1.6504,-1.6105,-1.5672,-1.5619,-1.6037,-1.5949,-1.6051,-1.6423,-1.6095,-1.5599,-1.5017,-1.4503,-1.4226,-1.405,-1.361,-1.3296,-1.319,-1.3152,-1.3055,-1.2822,-1.2403,-1.1882,-1.1443,-1.1116,-1.1006,-1.1065,-1.093,-1.0947,-1.0779,-1.0804,-1.0498,-0.9917,-0.9725,-0.9666,-0.9295,-0.9658,-1.0312,-1.0914,-1.1065,-1.1065,-1.1065,-1.1065,-1.1015,-1.0821,-1.0312,-0.9814,-0.9159,-0.8474,-0.8096,-0.7984,-0.7658,-0.7545,-0.7122,-0.6671,-0.6499,-0.7187,-0.8033,-0.7985,-0.6573,-0.5638,-0.4878,-0.4652,-0.3649,-0.232,-0.1266,-0.0552,0.0605,-2.756,-2.756,-2.756,-2.756,-2.756,-2.756,-2.756,-2.756,-2.756,-2.756,-2.756,-2.756,-2.753,-2.7265,-2.6025,-2.5192,-2.4681,-2.4154,-2.3447,-2.2684,-2.2645,-2.2161,-2.1473,-2.1405,-2.1117,-2.0639,-2.0627,-2.0363,-1.9874,-1.9798,-1.9798,-1.9798,-1.9798,-1.9798,-1.9798,-1.9798,-1.9798,-1.9798,-1.9798,-1.9798,-1.9798,-1.9672,-1.9002,-1.813,-1.7996,-1.7467,-1.6632,-1.6985,-1.7501,-1.8044,-1.7488,-1.7244,-1.7267,-1.6748,-1.6473,-1.6504,-1.6479,-1.6194,-1.5632,-1.5454,-1.5231,-1.4732,-1.4514,-1.434,-1.3815,-1.3732,-1.3552,-1.2968,-1.291,-1.2813,-1.2715,-1.2539,-1.2274,-1.1882,-1.2348,-1.2059,-1.0981,-1.1023,-1.0511,-1.0049,-0.9931,-0.9923,-0.9814,-1.0312,-1.1015,-1.1566,-1.1774,-1.1765,-1.1765,-1.1765,-1.1516,-1.1124,-1.0813,-1.0568,-0.9865,-0.9354,-0.8949,-0.889,-0.9079,-0.9124,-0.8547,-0.8019,-0.8025,-0.7931,-0.808,-0.7979,-0.7568,-0.7009,-0.6298,-0.5973,-0.5928,-0.5085,-0.3865,-0.4155,-0.303,-2.756,-2.756,-2.756,-2.756,-2.756,-2.756,-2.756,-2.756,-2.756,-2.756,-2.756,-2.756,-2.756,-2.756,-2.7104,-2.6766,-2.653,-2.6329,-2.5354,-2.3943,-2.3809,-2.2976,-2.1605,-2.1481,-2.1405,-2.123,-2.1179,-2.0903,-2.0363,-1.9999,-1.9798,-1.9798,-1.9798,-1.9798,-1.9798,-1.9798,-1.9798,-1.9798,-1.9798,-1.9798,-1.9798,-1.9798,-1.9583,-1.9204,-1.9191,-1.9025,-1.8586,-1.8462,-1.8648,-1.9208,-1.841,-1.7937,-1.789,-1.7375,-1.7074,-1.7036,-1.6722,-1.638,-1.6194,-1.582,-1.5499,-1.5276,-1.4926,-1.4652,-1.4422,-1.4376,-1.4294,-1.4025,-1.3647,-1.3505,-1.3382,-1.3173,-1.2802,-1.2597,-1.2713,-1.2702,-1.2292,-1.2129,-1.1864,-1.1216,-1.0746,-1.0602,-1.0922,-1.1275,-1.1724,-1.2344,-1.251,-1.2501,-1.2501,-1.251,-1.2353,-1.2098,-1.1733,-1.1358,-1.1157,-1.0509,-1.0115,-1.0115,-1.021,-1.0202,-0.9835,-0.9681,-0.9681,-0.9124,-0.8837,-0.858,-0.8508,-0.8031,-0.7374,-0.6843,-0.6858,-0.7004,-0.5928,-0.5851,-0.4969,-2.756,-2.756,-2.756,-2.756,-2.756,-2.756,-2.756,-2.756,-2.756,-2.756,-2.756,-2.756,-2.756,-2.756,-2.756,-2.756,-2.756,-2.756,-2.6733,-2.5219,-2.5138,-2.4272,-2.2936,-2.2506,-2.2304,-2.2056,-2.1668,-2.1204,-2.0731,-2.0275,-1.9999,-1.9811,-1.9798,-1.9798,-1.9798,-1.9798,-1.9798,-1.9798,-1.9798,-1.9798,-1.9798,-1.9798,-1.9798,-1.9798,-1.9798,-1.9822,-1.98,-1.9438,-1.9418,-1.9623,-1.8958,-1.8385,-1.8157,-1.7852,-1.7639,-1.7601,-1.7287,-1.6974,-1.6767,-1.6409,-1.6102,-1.5888,-1.5543,-1.5242,-1.505,-1.496,-1.4926,-1.4652,-1.4376,-1.4097,-1.3909,-1.3389,-1.2929,-1.291,-1.29,-1.292,-1.29,-1.2891,-1.2501,-1.1873,-1.1358,-1.1366,-1.1733,-1.199,-1.2353,-1.2881,-1.2891,-1.2891,-1.2891,-1.2891,-1.2891,-1.2881,-1.2452,-1.2187,-1.208,-1.1683,-1.0922,-1.0872,-1.1023,-1.1074,-1.1023,-1.1074,-1.0914,-1.0364,-0.9961,-0.971,-0.9347,-0.8928,-0.8336,-0.7694,-0.8159,-0.8567,-0.7823,-0.7191,-0.6464,-2.756,-2.756,-2.756,-2.756,-2.756,-2.756,-2.756,-2.756,-2.756,-2.756,-2.756,-2.756,-2.756,-2.756,-2.756,-2.756,-2.756,-2.756,-2.7159,-2.6357,-2.6304,-2.5929,-2.508,-2.438,-2.3787,-2.327,-2.2137,-2.131,-2.0894,-2.0706,-2.0338,-1.9924,-1.9823,-1.9798,-1.9798,-1.9798,-1.9798,-1.9798,-1.9798,-1.9798,-1.9798,-1.9798,-1.9798,-1.9798,-1.9798,-1.9811,-1.9823,-1.9747,-1.9722,-1.9736,-1.9334,-1.8781,-1.8417,-1.8242,-1.8216,-1.8204,-1.8154,-1.789,-1.7463,-1.7375,-1.706,-1.6735,-1.6535,-1.6267,-1.5852,-1.5683,-1.5468,-1.5028,-1.4789,-1.4698,-1.455,-1.3722,-1.3077,-1.2948,-1.3017,-1.291,-1.2978,-1.2929,-1.2618,-1.203,-1.1823,-1.1814,-1.1972,-1.2344,-1.2774,-1.2881,-1.2891,-1.2891,-1.2891,-1.2891,-1.2891,-1.2891,-1.2822,-1.2657,-1.2764,-1.2822,-1.2039,-1.1475,-1.1674,-1.1783,-1.1584,-1.1534,-1.1616,-1.1208,-1.0847,-1.0543,-1.0064,-0.9695,-0.9799,-0.9467,-0.9982,-0.9974,-0.9393,-0.8711,-0.8292,-2.756,-2.756,-2.756,-2.756,-2.756,-2.756,-2.756,-2.756,-2.756,-2.756,-2.756,-2.756,-2.756,-2.756,-2.756,-2.756,-2.756,-2.7575,-2.7203,-2.6616,-2.6496,-2.6122,-2.5508,-2.5175,-2.4687,-2.3993,-2.3184,-2.2442,-2.1781,-2.1096,-2.0552,-2.0363,-1.9987,-1.9811,-1.9798,-1.9798,-1.9798,-1.9798,-1.9798,-1.9798,-1.9798,-1.9798,-1.9798,-1.9798,-1.9798,-1.9798,-1.9798,-1.9798,-1.9798,-1.9798,-1.9648,-1.9472,-1.9284,-1.897,-1.8733,-1.8731,-1.8392,-1.8166,-1.8003,-1.7953,-1.789,-1.7702,-1.7652,-1.7418,-1.6925,-1.6819,-1.6556,-1.5997,-1.5599,-1.532,-1.5207,-1.4642,-1.4196,-1.4154,-1.3402,-1.3175,-1.3399,-1.32,-1.2822,-1.2618,-1.2559,-1.2559,-1.2608,-1.2871,-1.2881,-1.2929,-1.2929,-1.2929,-1.2929,-1.3027,-1.2891,-1.2891,-1.2929,-1.3152,-1.3286,-1.3467,-1.3198,-1.2638,-1.2609,-1.2521,-1.2276,-1.2227,-1.2218,-1.2199,-1.1828,-1.1332,-1.0855,-1.0669,-1.0771,-1.0712,-1.0653,-1.0543,-1.0442,-1.0171,-0.9783,-2.756,-2.756,-2.756,-2.756,-2.756,-2.756,-2.756,-2.756,-2.756,-2.756,-2.756,-2.756,-2.756,-2.756,-2.756,-2.756,-2.756,-2.756,-2.7357,-2.693,-2.693,-2.6654,-2.6215,-2.5892,-2.5398,-2.4727,-2.4066,-2.338,-2.2706,-2.1787,-2.1134,-2.0706,-2.03,-1.9999,-1.9823,-1.9798,-1.9798,-1.9798,-1.9798,-1.9798,-1.9798,-1.9798,-1.9798,-1.9798,-1.9798,-1.9798,-1.9798,-1.9798,-1.9798,-1.9798,-1.9798,-1.9798,-1.9773,-1.9484,-1.9258,-1.9246,-1.9007,-1.8744,-1.8568,-1.869,-1.8576,-1.8292,-1.8204,-1.8066,-1.7752,-1.7689,-1.7488,-1.7135,-1.6835,-1.6572,-1.6481,-1.61,-1.5788,-1.5693,-1.4901,-1.4258,-1.4176,-1.3836,-1.361,-1.3552,-1.3372,-1.3286,-1.3238,-1.2968,-1.2929,-1.2929,-1.3104,-1.3238,-1.3286,-1.3478,-1.343,-1.343,-1.361,-1.3742,-1.3779,-1.4003,-1.4236,-1.3956,-1.3674,-1.3389,-1.3112,-1.3112,-1.3102,-1.3273,-1.309,-1.2464,-1.1944,-1.1783,-1.1792,-1.1525,-1.1408,-1.1765,-1.1904,-1.1688,-1.1355,-2.7679,-2.7634,-2.7634,-2.7634,-2.7575,-2.756,-2.756,-2.756,-2.756,-2.756,-2.756,-2.756,-2.756,-2.756,-2.756,-2.756,-2.756,-2.756,-2.756,-2.7509,-2.7509,-2.7408,-2.7291,-2.6811,-2.6162,-2.5439,-2.4797,-2.4203,-2.3609,-2.2711,-2.1851,-2.117,-2.0885,-2.0401,-1.9947,-1.9849,-1.9874,-1.9811,-1.9798,-1.9798,-1.9798,-1.9798,-1.9798,-1.9798,-1.9798,-1.9798,-1.9798,-1.9798,-1.9798,-1.9798,-1.9798,-1.9798,-1.9798,-1.9798,-1.9748,-1.9723,-1.9773,-1.9484,-1.9271,-1.9407,-1.9317,-1.8591,-1.8468,-1.8267,-1.8279,-1.8242,-1.8166,-1.8028,-1.7981,-1.7984,-1.7947,-1.7743,-1.7474,-1.7339,-1.6423,-1.559,-1.4846,-1.4617,-1.4479,-1.4468,-1.419,-1.3862,-1.3826,-1.3372,-1.3104,-1.32,-1.3515,-1.3637,-1.3946,-1.4075,-1.4272,-1.4272,-1.4215,-1.4329,-1.4411,-1.4595,-1.4869,-1.5017,-1.4652,-1.4236,-1.3956,-1.3967,-1.392,-1.4086,-1.4168,-1.3585,-1.3168,-1.2996,-1.2667,-1.2355,-1.256,-1.318,-1.316,-1.2783,-1.2812,-2.8771,-2.8353,-2.8338,-2.8038,-2.7604,-2.756,-2.7575,-2.756,-2.756,-2.756,-2.756,-2.756,-2.756,-2.756,-2.756,-2.756,-2.756,-2.756,-2.756,-2.756,-2.756,-2.756,-2.756,-2.7408,-2.693,-2.6229,-2.5892,-2.559,-2.4791,-2.3675,-2.2959,-2.2672,-2.1725,-2.0782,-2.0035,-2.022,-2.0188,-1.9861,-1.9798,-1.9798,-1.9798,-1.9798,-1.9798,-1.9798,-1.9798,-1.9798,-1.9798,-1.9798,-1.9798,-1.9798,-1.9798,-1.9798,-1.9798,-1.9798,-1.9798,-1.9798,-1.9798,-1.9761,-1.9648,-1.9686,-1.9598,-1.9434,-1.9271,-1.9221,-1.8783,-1.8807,-1.8606,-1.8342,-1.8204,-1.8242,-1.8229,-1.8327,-1.8371,-1.8147,-1.7011,-1.5747,-1.5085,-1.4709,-1.4709,-1.4652,-1.4571,-1.4457,-1.4329,-1.4014,-1.3695,-1.3967,-1.405,-1.4039,-1.4435,-1.4664,-1.4824,-1.4676,-1.4619,-1.4846,-1.505,-1.5231,-1.5511,-1.5876,-1.5611,-1.5005,-1.4869,-1.4778,-1.4744,-1.4744,-1.4903,-1.4516,-1.4354,-1.4179,-1.3747,-1.3178,-1.3379,-1.3742,-1.3732,-1.3511,-1.3794,-2.9355,-2.9011,-2.9011,-2.8622,-2.8038,-2.8008,-2.7895,-2.7604,-2.756,-2.756,-2.756,-2.756,-2.756,-2.756,-2.756,-2.756,-2.756,-2.756,-2.756,-2.756,-2.756,-2.756,-2.756,-2.756,-2.7357,-2.6982,-2.6616,-2.6269,-2.5713,-2.4737,-2.4134,-2.3715,-2.2844,-2.1712,-2.0627,-2.0536,-2.041,-1.9905,-1.9783,-1.9798,-1.9798,-1.9798,-1.9798,-1.9798,-1.9798,-1.9798,-1.9862,-2.031,-2.0373,-1.999,-1.9798,-1.9798,-1.9798,-1.9798,-1.9798,-1.9798,-1.9798,-1.9798,-1.9798,-1.9798,-1.9798,-1.9786,-1.9798,-1.9673,-1.9422,-1.9346,-1.9158,-1.8982,-1.8882,-1.8869,-1.8844,-1.8866,-1.8974,-1.891,-1.77,-1.6578,-1.6184,-1.6019,-1.5877,-1.5715,-1.5382,-1.5107,-1.5062,-1.456,-1.4422,-1.456,-1.4641,-1.4812,-1.5039,-1.5231,-1.5297,-1.5149,-1.5194,-1.5475,-1.5543,-1.5676,-1.5832,-1.625,-1.6207,-1.57,-1.5511,-1.5466,-1.5466,-1.5421,-1.5543,-1.5543,-1.5231,-1.4926,-1.4411,-1.4086,-1.419,-1.4283,-1.4365,-1.44,-1.4687,-2.9744,-2.9669,-2.9684,-2.925,-2.8622,-2.8577,-2.8158,-2.7685,-2.756,-2.756,-2.756,-2.756,-2.756,-2.756,-2.756,-2.756,-2.756,-2.756,-2.756,-2.756,-2.756,-2.756,-2.756,-2.756,-2.7575,-2.7408,-2.6878,-2.6721,-2.6414,-2.5849,-2.5258,-2.4749,-2.3986,-2.2944,-2.1882,-2.1304,-2.0769,-2.0501,-2.0307,-2.0348,-2.0399,-2.0322,-2.0194,-2.0003,-1.9862,-1.9901,-2.022,-2.0869,-2.1173,-2.0042,-1.994,-1.9901,-1.9901,-1.9798,-1.9901,-1.9901,-1.9901,-1.985,-1.9901,-1.9901,-1.9798,-1.9798,-1.9798,-1.9798,-1.9736,-1.971,-1.9673,-1.961,-1.9786,-1.966,-1.961,-1.9346,-1.9333,-1.947,-1.8803,-1.843,-1.8267,-1.784,-1.7509,-1.7426,-1.6447,-1.5909,-1.5614,-1.5266,-1.4835,-1.5287,-1.532,-1.5365,-1.5599,-1.5832,-1.586,-1.5731,-1.591,-1.6126,-1.6139,-1.6095,-1.6238,-1.6479,-1.6436,-1.6163,-1.5876,-1.5876,-1.6051,-1.6095,-1.6039,-1.5952,-1.5776,-1.5421,-1.505,-1.4824,-1.4778,-1.5141,-1.541,-1.5386,-1.5576,-3.0806,-3.0313,-3.0298,-2.9639,-2.8697,-2.8577,-2.8218,-2.7655,-2.7575,-2.756,-2.756,-2.756,-2.756,-2.756,-2.756,-2.756,-2.756,-2.756,-2.756,-2.756,-2.756,-2.756,-2.756,-2.756,-2.756,-2.7509,-2.7458,-2.7357,-2.7137,-2.6654,-2.6226,-2.5977,-2.523,-2.427,-2.3023,-2.2797,-2.2813,-2.2511,-2.176,-2.1533,-2.179,-2.1453,-2.1042,-2.0584,-2.008,-2.0105,-2.0612,-2.1322,-2.1556,-2.1277,-2.0868,-2.0446,-2.0003,-1.985,-2.0055,-2.0295,-2.0042,-1.9991,-2.0346,-2.0131,-1.9798,-1.985,-1.9901,-1.9798,-1.9798,-1.985,-1.985,-1.9798,-1.9798,-1.9798,-1.9786,-1.971,-1.9762,-1.9839,-1.9674,-1.9422,-1.9296,-1.8593,-1.8091,-1.7869,-1.7447,-1.6995,-1.6913,-1.6005,-1.5763,-1.5957,-1.5964,-1.5876,-1.6107,-1.6392,-1.6287,-1.6114,-1.6207,-1.638,-1.6337,-1.6324,-1.638,-1.6534,-1.6534,-1.6491,-1.6238,-1.6151,-1.6293,-1.638,-1.6367,-1.6281,-1.6182,-1.6213,-1.5952,-1.5676,-1.5454,-1.5752,-1.6027,-1.6145,-1.6434,-3.1315,-3.1001,-3.0971,-3.0417,-2.9535,-2.9175,-2.8682,-2.8053,-2.773,-2.756,-2.756,-2.756,-2.756,-2.756,-2.756,-2.756,-2.756,-2.756,-2.756,-2.756,-2.756,-2.756,-2.756,-2.756,-2.756,-2.756,-2.756,-2.756,-2.7458,-2.7255,-2.7034,-2.693,-2.6269,-2.5821,-2.5024,-2.4354,-2.4028,-2.3904,-2.3158,-2.2824,-2.2967,-2.2519,-2.1835,-2.1113,-2.0416,-2.0241,-2.1175,-2.1745,-2.1863,-2.1793,-2.1677,-2.1224,-2.0346,-1.9991,-2.0156,-2.0547,-2.0204,-2.0317,-2.0752,-2.0416,-1.9952,-2.0245,-2.0258,-2.0258,-2.0258,-2.0258,-2.0258,-2.0194,-1.9991,-1.9798,-1.9798,-2.0144,-2.0322,-2.0605,-2.0399,-2.0258,-2.0118,-1.927,-1.8593,-1.8493,-1.8103,-1.7677,-1.7215,-1.6647,-1.634,-1.6386,-1.6262,-1.6207,-1.6238,-1.6479,-1.6479,-1.6398,-1.6454,-1.6479,-1.6479,-1.6479,-1.6436,-1.6534,-1.6534,-1.6534,-1.6392,-1.6436,-1.6479,-1.6565,-1.668,-1.6637,-1.6595,-1.6667,-1.6667,-1.6269,-1.6126,-1.6343,-1.6587,-1.6828,-1.7162,-3.1467,-3.1467,-3.1467,-3.112,-3.0462,-2.9819,-2.916,-2.8532,-2.791,-2.756,-2.756,-2.756,-2.756,-2.756,-2.756,-2.756,-2.756,-2.756,-2.756,-2.756,-2.756,-2.756,-2.756,-2.756,-2.756,-2.756,-2.756,-2.756,-2.756,-2.756,-2.7458,-2.7444,-2.7034,-2.6659,-2.6761,-2.5877,-2.4975,-2.5054,-2.4399,-2.4109,-2.4148,-2.3639,-2.2949,-2.2048,-2.0962,-2.082,-2.1752,-2.2311,-2.2447,-2.2053,-2.2438,-2.2081,-2.1259,-2.0534,-2.0283,-2.093,-2.0535,-2.0877,-2.154,-2.1116,-2.0766,-2.1019,-2.0944,-2.0944,-2.0944,-2.093,-2.0917,-2.0782,-2.057,-2.0117,-1.994,-2.0495,-2.1246,-2.1653,-2.1362,-2.093,-2.0629,-1.9876,-1.9407,-1.907,-1.8694,-1.8242,-1.784,-1.741,-1.7067,-1.6773,-1.6647,-1.6522,-1.6522,-1.6595,-1.6637,-1.6637,-1.668,-1.6808,-1.685,-1.6837,-1.6808,-1.6879,-1.6808,-1.6723,-1.668,-1.6522,-1.6607,-1.6863,-1.6947,-1.696,-1.6989,-1.6993,-1.6866,-1.6667,-1.6752,-1.6925,-1.7175,-1.7463,-1.7894,-3.1467,-3.1467,-3.1467,-3.1135,-3.0462,-2.9849,-2.922,-2.8547,-2.7874,-2.7575,-2.756,-2.756,-2.761,-2.761,-2.756,-2.756,-2.756,-2.756,-2.756,-2.756,-2.756,-2.756,-2.756,-2.756,-2.756,-2.756,-2.756,-2.756,-2.756,-2.756,-2.756,-2.756,-2.7458,-2.7292,-2.6846,-2.6289,-2.6093,-2.6088,-2.5586,-2.5488,-2.5643,-2.5257,-2.4422,-2.3359,-2.2104,-2.1917,-2.2445,-2.3059,-2.3376,-2.326,-2.292,-2.2603,-2.2221,-2.1663,-2.152,-2.1459,-2.1315,-2.1586,-2.2285,-2.2757,-2.2309,-2.1876,-2.1582,-2.1568,-2.1568,-2.152,-2.152,-2.1424,-2.1287,-2.096,-1.9926,-2.0927,-2.2034,-2.258,-2.2263,-2.1402,-2.097,-2.0612,-2.0226,-1.985,-1.9344,-1.8879,-1.857,-1.8219,-1.7875,-1.7491,-1.7191,-1.6802,-1.6522,-1.6723,-1.6964,-1.6964,-1.6909,-1.7076,-1.7201,-1.7271,-1.7312,-1.7463,-1.7435,-1.7229,-1.7076,-1.671,-1.6723,-1.7242,-1.7502,-1.7568,-1.7487,-1.7407,-1.7381,-1.7327,-1.7422,-1.7504,-1.7999,-1.8454,-1.8774,-3.2064,-3.2023,-3.1697,-3.1135,-3.0477,-2.9849,-2.922,-2.8547,-2.7874,-2.756,-2.756,-2.7625,-2.781,-2.791,-2.7725,-2.761,-2.7625,-2.756,-2.756,-2.756,-2.756,-2.756,-2.756,-2.756,-2.756,-2.756,-2.756,-2.756,-2.756,-2.756,-2.756,-2.756,-2.756,-2.7408,-2.7152,-2.7086,-2.7034,-2.6931,-2.6762,-2.6686,-2.7021,-2.6437,-2.5589,-2.4637,-2.3531,-2.314,-2.3429,-2.2989,-2.3215,-2.3421,-2.3334,-2.3024,-2.2785,-2.2725,-2.25,-2.2225,-2.1974,-2.2189,-2.2979,-2.3447,-2.3066,-2.2385,-2.2207,-2.2207,-2.2207,-2.2207,-2.21,-2.1852,-2.171,-2.1594,-2.1267,-2.1815,-2.2583,-2.3155,-2.2776,-2.217,-2.1771,-2.1486,-2.1099,-2.0706,-2.0322,-1.9934,-1.9573,-1.9185,-1.8721,-1.8301,-1.7848,-1.7308,-1.6713,-1.6883,-1.7246,-1.7368,-1.7368,-1.7435,-1.7598,-1.7706,-1.7867,-1.8052,-1.8013,-1.7787,-1.7477,-1.7137,-1.7477,-1.8064,-1.8161,-1.8422,-1.8083,-1.7973,-1.7999,-1.8064,-1.8207,-1.8426,-1.897,-1.9441,-1.9671,-3.2586,-3.2532,-3.1645,-3.1016,-3.0432,-2.9684,-2.9086,-2.8517,-2.7874,-2.766,-2.776,-2.771,-2.7993,-2.84,-2.8222,-2.7944,-2.781,-2.781,-2.776,-2.756,-2.756,-2.756,-2.756,-2.756,-2.756,-2.756,-2.756,-2.756,-2.756,-2.756,-2.756,-2.756,-2.756,-2.756,-2.7509,-2.7458,-2.756,-2.756,-2.756,-2.756,-2.7475,-2.7051,-2.6467,-2.5931,-2.4944,-2.4619,-2.4342,-2.3436,-2.3157,-2.345,-2.3508,-2.3377,-2.3054,-2.3319,-2.3377,-2.2891,-2.2376,-2.2746,-2.3245,-2.357,-2.3377,-2.2889,-2.2889,-2.2889,-2.2875,-2.2815,-2.268,-2.2225,-2.2132,-2.2314,-2.248,-2.2752,-2.3076,-2.3325,-2.3196,-2.2802,-2.2509,-2.2178,-2.1805,-2.1486,-2.1307,-2.1021,-2.0658,-2.0141,-1.9696,-1.9017,-1.8587,-1.7967,-1.7468,-1.7302,-1.7531,-1.7772,-1.7853,-1.7854,-1.7987,-1.8185,-1.838,-1.8688,-1.8535,-1.8288,-1.7928,-1.7582,-1.8096,-1.8636,-1.9482,-1.9628,-1.9123,-1.8684,-1.8821,-1.8941,-1.9038,-1.9345,-1.9873,-2.0131,-2.0283,-3.2586,-3.247,-3.1172,-3.0567,-3.0338,-2.9274,-2.8734,-2.8539,-2.7946,-2.7894,-2.8271,-2.7894,-2.8271,-2.895,-2.918,-2.881,-2.8463,-2.8189,-2.7944,-2.761,-2.756,-2.756,-2.756,-2.756,-2.756,-2.756,-2.756,-2.756,-2.756,-2.756,-2.756,-2.756,-2.756,-2.756,-2.756,-2.756,-2.756,-2.756,-2.756,-2.756,-2.7545,-2.7505,-2.7051,-2.6744,-2.6605,-2.6105,-2.4852,-2.3837,-2.3508,-2.3493,-2.3595,-2.3551,-2.3508,-2.3551,-2.3595,-2.3508,-2.3435,-2.342,-2.3551,-2.3583,-2.3569,-2.3392,-2.3421,-2.3465,-2.3406,-2.3363,-2.3319,-2.3406,-2.3304,-2.3231,-2.329,-2.3392,-2.3524,-2.3525,-2.3481,-2.3127,-2.2863,-2.3024,-2.2639,-2.2486,-2.2349,-2.2072,-2.1736,-2.1176,-2.0594,-1.9917,-1.9283,-1.875,-1.8167,-1.8001,-1.7938,-1.8204,-1.844,-1.8468,-1.8521,-1.8674,-1.8939,-1.9266,-1.9043,-1.8803,-1.8641,-1.8403,-1.846,-1.9107,-2.0065,-2.0563,-1.998,-1.9682,-1.9768,-1.9893,-2.0001,-2.0338,-2.0748,-2.0878,-2.0959,-3.2704,-3.2992,-3.1585,-3.0778,-3.0375,-2.9834,-2.9154,-2.8568,-2.8229,-2.8238,-2.8415,-2.8271,-2.8591,-2.9316,-2.9406,-2.9042,-2.8543,-2.8222,-2.7894,-2.766,-2.761,-2.761,-2.756,-2.756,-2.756,-2.756,-2.756,-2.756,-2.756,-2.756,-2.756,-2.756,-2.756,-2.756,-2.756,-2.756,-2.756,-2.756,-2.756,-2.756,-2.756,-2.7545,-2.749,-2.719,-2.745,-2.6609,-2.5364,-2.4118,-2.364,-2.3595,-2.3595,-2.3595,-2.3595,-2.3595,-2.3595,-2.3595,-2.3595,-2.3551,-2.3595,-2.3595,-2.3595,-2.3595,-2.3595,-2.3551,-2.3595,-2.3595,-2.3595,-2.3595,-2.3595,-2.3595,-2.3595,-2.3595,-2.3595,-2.3595,-2.3595,-2.3533,-2.337,-2.3658,-2.3649,-2.352,-2.3375,-2.3142,-2.2922,-2.2526,-2.1885,-2.1102,-2.0581,-2.0105,-1.9331,-1.859,-1.8616,-1.8698,-1.8954,-1.9155,-1.9214,-1.9288,-1.9507,-1.9702,-1.9551,-1.9391,-1.9442,-1.9376,-1.9376,-1.9717,-2.0559,-2.0785,-2.0601,-2.0569,-2.0503,-2.0733,-2.1022,-2.118,-2.1354,-2.1675,-2.179,-3.2531,-3.3065,-3.174,-3.0831,-3.04,-3.0224,-2.9626,-2.8779,-2.8748,-2.8826,-2.9012,-2.915,-2.9406,-2.9629,-2.9805,-2.9673,-2.895,-2.8319,-2.8076,-2.7978,-2.776,-2.771,-2.776,-2.776,-2.756,-2.761,-2.756,-2.756,-2.756,-2.756,-2.756,-2.756,-2.756,-2.756,-2.756,-2.756,-2.756,-2.756,-2.756,-2.756,-2.756,-2.756,-2.756,-2.7579,-2.7476,-2.6994,-2.5648,-2.4313,-2.3625,-2.3595,-2.3595,-2.3595,-2.3595,-2.3595,-2.3595,-2.3595,-2.3595,-2.3724,-2.3724,-2.3724,-2.3638,-2.3595,-2.3595,-2.3595,-2.3623,-2.3666,-2.3794,-2.3879,-2.3879,-2.3837,-2.3752,-2.3709,-2.3595,-2.3595,-2.3595,-2.3679,-2.3803,-2.4055,-2.4358,-2.4358,-2.4261,-2.4251,-2.4028,-2.3849,-2.3268,-2.2411,-2.183,-2.1462,-2.0604,-1.9662,-1.9328,-1.9398,-1.9507,-1.9737,-1.9793,-1.9899,-2.0089,-2.0139,-1.9945,-1.9874,-1.9874,-2.008,-2.0185,-2.0657,-2.1118,-2.1247,-2.1197,-2.1229,-2.1275,-2.146,-2.1642,-2.1688,-2.1899,-2.2203,-2.2571,-3.1725,-3.2285,-3.1001,-3.0494,-3.0366,-2.9713,-2.947,-2.9377,-2.9316,-2.9629,-3.0038,-3.0617,-3.0518,-3.0435,-3.0518,-3.0518,-3.0081,-2.954,-2.918,-2.8764,-2.8255,-2.8042,-2.8042,-2.7944,-2.766,-2.7625,-2.771,-2.771,-2.756,-2.756,-2.756,-2.756,-2.756,-2.756,-2.756,-2.756,-2.756,-2.756,-2.756,-2.756,-2.756,-2.756,-2.756,-2.7605,-2.7491,-2.6994,-2.5646,-2.4403,-2.364,-2.364,-2.3595,-2.3595,-2.3595,-2.3595,-2.3595,-2.3595,-2.3709,-2.3879,-2.4074,-2.394,-2.3696,-2.361,-2.3638,-2.3752,-2.3879,-2.4142,-2.4266,-2.4323,-2.4266,-2.4241,-2.4116,-2.3948,-2.3638,-2.3779,-2.3876,-2.4092,-2.4281,-2.4489,-2.476,-2.5051,-2.5105,-2.5028,-2.4792,-2.4552,-2.4017,-2.3163,-2.3229,-2.283,-2.1988,-2.1081,-2.0376,-2.014,-2.0115,-2.0212,-2.028,-2.0382,-2.0449,-2.0431,-2.0296,-2.0261,-2.0261,-2.0512,-2.0843,-2.1151,-2.1513,-2.1667,-2.1784,-2.1777,-2.1832,-2.2089,-2.222,-2.2118,-2.2248,-2.2573,-2.2989,-3.136,-3.1556,-3.1075,-3.0891,-3.0874,-3.0609,-3.0293,-2.9995,-2.9951,-3.0081,-3.0351,-3.0878,-3.1055,-3.0878,-3.0576,-3.0559,-3.0192,-2.9673,-2.9496,-2.9134,-2.8638,-2.8367,-2.8367,-2.8286,-2.8008,-2.776,-2.791,-2.791,-2.7625,-2.761,-2.756,-2.756,-2.756,-2.756,-2.756,-2.761,-2.7625,-2.7625,-2.7625,-2.7625,-2.756,-2.756,-2.756,-2.7565,-2.7591,-2.6879,-2.5721,-2.4897,-2.4237,-2.3773,-2.3653,-2.3681,-2.3638,-2.3638,-2.3638,-2.3681,-2.3837,-2.4142,-2.4354,-2.4254,-2.4219,-2.4446,-2.4348,-2.4199,-2.4389,-2.4511,-2.4632,-2.4672,-2.4632,-2.4552,-2.4348,-2.3991,-2.3709,-2.396,-2.4246,-2.4507,-2.4775,-2.5032,-2.5265,-2.5598,-2.5652,-2.5615,-2.5373,-2.5144,-2.4536,-2.3967,-2.4147,-2.4148,-2.3222,-2.2366,-2.1584,-2.0969,-2.0928,-2.0861,-2.0894,-2.0894,-2.0813,-2.0748,-2.0665,-2.0715,-2.0732,-2.107,-2.1401,-2.1661,-2.1928,-2.2181,-2.2303,-2.2296,-2.233,-2.2354,-2.2388,-2.236,-2.259,-2.2947,-2.3379,-3.119,-3.119,-3.119,-3.119,-3.119,-3.119,-3.0975,-3.0601,-3.0576,-3.0576,-3.0617,-3.1015,-3.119,-3.1072,-3.0855,-3.0617,-3.046,-3.0038,-2.9908,-2.9629,-2.9271,-2.895,-2.8919,-2.8779,-2.8511,-2.814,-2.814,-2.8189,-2.7625,-2.7625,-2.756,-2.756,-2.756,-2.756,-2.756,-2.761,-2.7675,-2.781,-2.786,-2.8042,-2.8125,-2.8174,-2.8207,-2.8082,-2.7871,-2.7195,-2.6306,-2.563,-2.4943,-2.4434,-2.4142,-2.4017,-2.3906,-2.3794,-2.3767,-2.3837,-2.4074,-2.4415,-2.4574,-2.4651,-2.4798,-2.4954,-2.4854,-2.4847,-2.4973,-2.4989,-2.5221,-2.5335,-2.5105,-2.4871,-2.4776,-2.4449,-2.4256,-2.4558,-2.4894,-2.5162,-2.5378,-2.5619,-2.5878,-2.6139,-2.6139,-2.6104,-2.5815,-2.5577,-2.5373,-2.48,-2.472,-2.4708,-2.4272,-2.342,-2.2617,-2.2059,-2.1729,-2.1647,-2.1556,-2.1354,-2.1213,-2.115,-2.1102,-2.118,-2.1305,-2.1595,-2.196,-2.2307,-2.2591,-2.278,-2.2805,-2.2754,-2.2608,-2.249,-2.2517,-2.2581,-2.3063,-2.3424,-2.3728,-3.119,-3.119,-3.119,-3.119,-3.119,-3.119,-3.1151,-3.1055,-3.1095,-3.1112,-3.1112,-3.119,-3.119,-3.119,-3.1055,-3.1015,-3.0918,-3.0518,-3.0477,-3.0576,-2.9848,-2.9761,-2.9761,-2.9585,-2.9088,-2.8591,-2.8559,-2.8367,-2.7675,-2.7625,-2.761,-2.776,-2.7845,-2.7795,-2.766,-2.7625,-2.7894,-2.8367,-2.8479,-2.8779,-2.8996,-2.9088,-2.9088,-2.887,-2.8232,-2.7576,-2.7142,-2.6358,-2.567,-2.517,-2.4918,-2.4712,-2.4415,-2.4389,-2.4199,-2.3879,-2.4266,-2.4697,-2.5144,-2.5198,-2.5334,-2.5384,-2.5313,-2.5303,-2.5373,-2.5577,-2.5835,-2.5908,-2.5799,-2.5815,-2.5587,-2.5223,-2.5005,-2.5155,-2.5445,-2.5751,-2.5964,-2.6079,-2.63,-2.6436,-2.6521,-2.6505,-2.6227,-2.5997,-2.5997,-2.5726,-2.5411,-2.5199,-2.505,-2.4508,-2.3699,-2.321,-2.2784,-2.232,-2.2175,-2.1787,-2.1598,-2.1538,-2.1552,-2.1625,-2.1799,-2.2029,-2.2424,-2.2912,-2.31,-2.3165,-2.3189,-2.3189,-2.3038,-2.2908,-2.2815,-2.2947,-2.3424,-2.3846,-2.4118,-3.119,-3.119,-3.119,-3.119,-3.119,-3.119,-3.119,-3.119,-3.119,-3.119,-3.119,-3.119,-3.119,-3.119,-3.119,-3.119,-3.1134,-3.1095,-3.1151,-3.1015,-3.0351,-3.0166,-3.0166,-3.0081,-2.9689,-2.9271,-2.9042,-2.8779,-2.8238,-2.7944,-2.7944,-2.814,-2.8448,-2.8543,-2.8319,-2.8222,-2.8496,-2.9012,-2.9088,-2.918,-2.9406,-2.9451,-2.9435,-2.9419,-2.8751,-2.8335,-2.803,-2.7211,-2.6461,-2.594,-2.5673,-2.5182,-2.4973,-2.495,-2.4831,-2.4736,-2.5128,-2.5672,-2.6052,-2.6193,-2.6197,-2.6064,-2.5889,-2.5872,-2.6158,-2.5997,-2.6191,-2.6297,-2.6175,-2.612,-2.5819,-2.54,-2.5269,-2.5712,-2.6052,-2.6286,-2.6468,-2.647,-2.659,-2.659,-2.6657,-2.6657,-2.6487,-2.6332,-2.6297,-2.6332,-2.6052,-2.6052,-2.5982,-2.5564,-2.4912,-2.4461,-2.3972,-2.3301,-2.2815,-2.2543,-2.2279,-2.2199,-2.2157,-2.2169,-2.233,-2.2548,-2.2813,-2.3223,-2.3374,-2.3522,-2.3526,-2.3526,-2.3482,-2.3374,-2.3361,-2.3356,-2.3638,-2.4061,-2.4405,-3.119,-3.119,-3.119,-3.119,-3.119,-3.119,-3.119,-3.119,-3.119,-3.119,-3.119,-3.119,-3.119,-3.119,-3.119,-3.119,-3.119,-3.119,-3.119,-3.1151,-3.0821,-3.0699,-3.0658,-3.0576,-3.0251,-2.9848,-2.9629,-2.9406,-2.8826,-2.8463,-2.8511,-2.8826,-2.918,-2.9225,-2.9088,-2.9088,-2.9088,-2.954,-2.9717,-2.9848,-3.0038,-3.0123,-3.0064,-2.9989,-2.9605,-2.9227,-2.8795,-2.807,-2.7203,-2.6743,-2.6232,-2.5631,-2.5524,-2.5449,-2.5373,-2.5411,-2.5672,-2.6175,-2.6505,-2.6624,-2.6556,-2.659,-2.6383,-2.6401,-2.6607,-2.6401,-2.6436,-2.647,-2.6367,-2.6297,-2.6156,-2.5709,-2.5852,-2.631,-2.6397,-2.6622,-2.664,-2.664,-2.6657,-2.6691,-2.6725,-2.6725,-2.6708,-2.6657,-2.659,-2.6624,-2.6657,-2.6725,-2.6758,-2.6383,-2.597,-2.5541,-2.5193,-2.4682,-2.4002,-2.3369,-2.313,-2.2897,-2.2781,-2.2674,-2.2933,-2.3124,-2.3333,-2.3508,-2.3717,-2.3878,-2.3899,-2.3881,-2.3903,-2.3984,-2.4062,-2.4024,-2.3983,-2.4282,-2.4674,-3.119,-3.119,-3.119,-3.119,-3.119,-3.119,-3.119,-3.119,-3.119,-3.119,-3.119,-3.119,-3.119,-3.119,-3.119,-3.119,-3.119,-3.119,-3.119,-3.119,-3.1055,-3.1095,-3.1095,-3.1055,-3.074,-3.0477,-3.0166,-2.9848,-2.9451,-2.9316,-2.9316,-2.9467,-2.9673,-2.9892,-2.9951,-2.9908,-2.9908,-3.0208,-3.0335,-3.0518,-3.0757,-3.0918,-3.0878,-3.0723,-3.046,-3.0194,-2.9709,-2.8915,-2.8206,-2.7674,-2.7129,-2.6551,-2.6191,-2.6049,-2.5689,-2.5561,-2.5872,-2.628,-2.659,-2.6708,-2.6708,-2.6708,-2.6674,-2.6691,-2.6657,-2.6624,-2.6624,-2.6657,-2.659,-2.6624,-2.659,-2.6539,-2.6505,-2.6607,-2.664,-2.6691,-2.6691,-2.6691,-2.6725,-2.6758,-2.6825,-2.6791,-2.6725,-2.6708,-2.6758,-2.6873,-2.6939,-2.7004,-2.7068,-2.7083,-2.6743,-2.6514,-2.622,-2.6076,-2.539,-2.4537,-2.3892,-2.364,-2.3285,-2.3204,-2.346,-2.3671,-2.3785,-2.3925,-2.4115,-2.4228,-2.4173,-2.4266,-2.4391,-2.4493,-2.4516,-2.4503,-2.4385,-2.461,-2.4948,-3.119,-3.119,-3.119,-3.119,-3.119,-3.119,-3.119,-3.119,-3.119,-3.119,-3.119,-3.119,-3.119,-3.119,-3.119,-3.119,-3.119,-3.119,-3.119,-3.119,-3.119,-3.119,-3.119,-3.119,-3.1038,-3.0838,-3.0535,-3.0293,-3.0081,-3.0038,-3.0038,-3.0081,-3.0351,-3.0699,-3.0757,-3.074,-3.0781,-3.0797,-3.0838,-3.1015,-3.1151,-3.119,-3.119,-3.1095,-3.1015,-3.0796,-3.0494,-2.9808,-2.9138,-2.86,-2.7913,-2.7233,-2.6539,-2.6505,-2.635,-2.6298,-2.647,-2.659,-2.6657,-2.6708,-2.6708,-2.6708,-2.6708,-2.6708,-2.6708,-2.6708,-2.6708,-2.6708,-2.6708,-2.6708,-2.6708,-2.6708,-2.6708,-2.6708,-2.6708,-2.6708,-2.6725,-2.6791,-2.6856,-2.7095,-2.7126,-2.6939,-2.6841,-2.6791,-2.6873,-2.7036,-2.7178,-2.7303,-2.7378,-2.747,-2.7442,-2.7232,-2.7136,-2.6952,-2.6446,-2.5659,-2.4944,-2.438,-2.4131,-2.3916,-2.3988,-2.4178,-2.421,-2.4283,-2.4425,-2.4444,-2.4428,-2.4528,-2.4639,-2.4762,-2.4788,-2.4799,-2.4845,-2.5011,-2.512,-3.119,-3.119,-3.119,-3.119,-3.119,-3.119,-3.119,-3.119,-3.119,-3.119,-3.119,-3.119,-3.119,-3.119,-3.119,-3.119,-3.119,-3.119,-3.119,-3.119,-3.119,-3.119,-3.119,-3.119,-3.119,-3.1015,-3.0878,-3.0699,-3.0617,-3.0658,-3.0658,-3.0699,-3.1095,-3.1151,-3.1151,-3.1095,-3.1095,-3.1151,-3.1151,-3.119,-3.119,-3.119,-3.119,-3.119,-3.119,-3.119,-3.1162,-3.0455,-3.0034,-2.9417,-2.8696,-2.793,-2.7216,-2.6911,-2.6708,-2.6624,-2.6657,-2.6657,-2.6708,-2.6708,-2.6708,-2.6708,-2.6708,-2.6708,-2.6708,-2.6708,-2.6708,-2.6708,-2.6708,-2.6708,-2.6708,-2.6708,-2.6708,-2.6708,-2.6708,-2.6708,-2.6774,-2.6855,-2.7092,-2.7407,-2.7382,-2.7175,-2.7051,-2.6954,-2.6987,-2.721,-2.747,-2.7736,-2.7833,-2.7929,-2.7956,-2.7879,-2.7843,-2.7781,-2.7241,-2.6788,-2.624,-2.5697,-2.5456,-2.5212,-2.4915,-2.4801,-2.4995,-2.4867,-2.4666,-2.4745,-2.4901,-2.4749,-2.4804,-2.4974,-2.5116,-2.511,-2.5139,-2.523,-2.5302,-3.119,-3.119,-3.119,-3.119,-3.119,-3.119,-3.119,-3.119,-3.119,-3.119,-3.119,-3.119,-3.119,-3.119,-3.119,-3.119,-3.119,-3.119,-3.119,-3.119,-3.119,-3.119,-3.119,-3.119,-3.119,-3.119,-3.1134,-3.0998,-3.1095,-3.1095,-3.1055,-3.119,-3.119,-3.119,-3.119,-3.119,-3.119,-3.119,-3.119,-3.119,-3.119,-3.119,-3.119,-3.119,-3.119,-3.119,-3.1179,-3.1057,-3.0844,-3.0102,-2.9451,-2.8672,-2.7978,-2.7266,-2.6979,-2.6776,-2.681,-2.6708,-2.6708,-2.6708,-2.6708,-2.6708,-2.6708,-2.6708,-2.6708,-2.6708,-2.6708,-2.6708,-2.6708,-2.6825,-2.6858,-2.6758,-2.6725,-2.6758,-2.6791,-2.6758,-2.6758,-2.6967,-2.7425,-2.7699,-2.7763,-2.7554,-2.7409,-2.7348,-2.7452,-2.753,-2.7736,-2.8075,-2.8264,-2.835,-2.8376,-2.8446,-2.8395,-2.8367,-2.8233,-2.7804,-2.7507,-2.7128,-2.679,-2.648,-2.6154,-2.5972,-2.5857,-2.5825,-2.5778,-2.5475,-2.5451,-2.5418,-2.5397,-2.5417,-2.5509,-2.5447,-2.5463,-2.5547,-2.5429,-3.119,-3.119,-3.119,-3.119,-3.119,-3.119,-3.119,-3.119,-3.119,-3.119,-3.119,-3.119,-3.119,-3.119,-3.119,-3.119,-3.119,-3.119,-3.119,-3.119,-3.119,-3.119,-3.119,-3.119,-3.119,-3.119,-3.119,-3.119,-3.119,-3.119,-3.119,-3.119,-3.119,-3.119,-3.119,-3.119,-3.119,-3.119,-3.119,-3.119,-3.119,-3.119,-3.119,-3.119,-3.119,-3.119,-3.1196,-3.1162,-3.076,-3.0159,-2.9993,-2.9421,-2.8755,-2.7977,-2.7604,-2.7469,-2.7182,-2.7012,-2.6826,-2.6826,-2.6793,-2.6725,-2.6708,-2.6708,-2.6708,-2.6708,-2.6708,-2.6708,-2.6791,-2.6939,-2.7004,-2.6873,-2.6825,-2.6873,-2.6872,-2.6791,-2.6741,-2.7234,-2.7756,-2.794,-2.8058,-2.7956,-2.7823,-2.7823,-2.789,-2.8029,-2.8139,-2.8394,-2.8633,-2.8773,-2.8779,-2.8821,-2.8839,-2.8819,-2.88,-2.8768,-2.8393,-2.8209,-2.7923,-2.7639,-2.7361,-2.7195,-2.7037,-2.7108,-2.7031,-2.6657,-2.6374,-2.632,-2.6274,-2.6254,-2.6133,-2.6154,-2.5952,-2.5966,-2.5698,-3.119,-3.119,-3.119,-3.119,-3.119,-3.119,-3.119,-3.119,-3.119,-3.119,-3.119,-3.119,-3.119,-3.119,-3.119,-3.119,-3.119,-3.119,-3.119,-3.119,-3.119,-3.119,-3.119,-3.119,-3.119,-3.119,-3.119,-3.119,-3.119,-3.119,-3.119,-3.119,-3.119,-3.119,-3.119,-3.119,-3.119,-3.119,-3.119,-3.119,-3.119,-3.119,-3.119,-3.119,-3.119,-3.119,-3.119,-3.119,-3.097,-3.0548,-3.0285,-3.0156,-2.9604,-2.9076,-2.8682,-2.8528,-2.8254,-2.7742,-2.7403,-2.7131,-2.7012,-2.6877,-2.6708,-2.6708,-2.6708,-2.6708,-2.6708,-2.6725,-2.7004,-2.7147,-2.7272,-2.721,-2.7178,-2.721,-2.7009,-2.6877,-2.7213,-2.7741,-2.8183,-2.8504,-2.8471,-2.8228,-2.8129,-2.8129,-2.8192,-2.829,-2.8446,-2.8615,-2.8863,-2.9044,-2.9089,-2.9156,-2.9181,-2.9181,-2.9166,-2.9221,-2.9213,-2.908,-2.8919,-2.8704,-2.8403,-2.8307,-2.8229,-2.8073,-2.7898,-2.7673,-2.7431,-2.7352,-2.7326,-2.7317,-2.7117,-2.6935,-2.6699,-2.6534,-2.6542,-3.119,-3.119,-3.119,-3.119,-3.119,-3.119,-3.119,-3.119,-3.119,-3.119,-3.119,-3.119,-3.119,-3.119,-3.119,-3.119,-3.119,-3.119,-3.119,-3.119,-3.119,-3.119,-3.119,-3.119,-3.119,-3.119,-3.119,-3.119,-3.119,-3.119,-3.119,-3.119,-3.119,-3.119,-3.119,-3.119,-3.119,-3.119,-3.119,-3.119,-3.119,-3.119,-3.119,-3.119,-3.119,-3.119,-3.119,-3.119,-3.119,-3.1065,-3.0709,-3.07,-3.0576,-3.0179,-2.9967,-2.9741,-2.9349,-2.8801,-2.8288,-2.7809,-2.7436,-2.7063,-2.6843,-2.6742,-2.6742,-2.6791,-2.6791,-2.6906,-2.7178,-2.7365,-2.747,-2.7577,-2.753,-2.7452,-2.7187,-2.7096,-2.7692,-2.8166,-2.854,-2.8887,-2.8749,-2.8496,-2.8471,-2.8471,-2.8496,-2.8565,-2.8682,-2.8863,-2.9021,-2.9134,-2.9222,-2.9353,-2.9436,-2.9455,-2.9454,-2.957,-2.9672,-2.9699,-2.9525,-2.9505,-2.9459,-2.9313,-2.907,-2.8742,-2.8562,-2.866,-2.8554,-2.8443,-2.8411,-2.8298,-2.7846,-2.7539,-2.7559,-2.7461,-2.7676,-3.119,-3.119,-3.119,-3.119,-3.119,-3.119,-3.119,-3.119,-3.119,-3.119,-3.119,-3.119,-3.119,-3.119,-3.119,-3.119,-3.119,-3.119,-3.119,-3.119,-3.119,-3.119,-3.119,-3.119,-3.119,-3.119,-3.119,-3.119,-3.119,-3.119,-3.119,-3.119,-3.123,-3.123,-3.119,-3.123,-3.1291,-3.1252,-3.1213,-3.1252,-3.119,-3.119,-3.119,-3.119,-3.119,-3.119,-3.119,-3.119,-3.119,-3.1223,-3.1353,-3.144,-3.1446,-3.1315,-3.1129,-3.0888,-3.0512,-2.9831,-2.9265,-2.8767,-2.8305,-2.7572,-2.7335,-2.6976,-2.7023,-2.7115,-2.7147,-2.721,-2.7426,-2.7589,-2.7736,-2.7897,-2.7897,-2.7718,-2.7526,-2.771,-2.8103,-2.8342,-2.8608,-2.8839,-2.891,-2.8797,-2.8797,-2.8797,-2.8821,-2.8868,-2.8892,-2.9067,-2.9141,-2.9246,-2.9351,-2.9513,-2.9697,-2.9696,-2.9696,-2.9832,-2.9935,-3.0032,-3.0084,-2.9992,-3.0021,-3.0221,-2.9997,-2.9574,-2.9732,-2.9958,-2.9801,-2.9369,-2.9266,-2.9043,-2.8432,-2.8098,-2.8199,-2.832,-2.8465]},{"header":{"parameterUnit":"m.s-1","parameterCategory":1,"la1":31.0,"la2":29.5877,"lo1":-88.7671,"lo2":-86.6584,"dy":0.0162,"dx":0.0185,"nx":115,"ny":88,"refTime":"2023-11-03T12:00:00:Z","depth":0,"parameterNumber":3,"parameterNumberName":"V-component_of_WINDS"},"data":[0.0,0.0,0.0,0.0,0.0,0.0,0.0,0.0,0.0,0.0,0.0,0.0,0.0,0.0,0.0,0.0,0.0,0.0,0.0,0.0,0.0,0.0,0.0,0.0,0.0,0.0,0.0,0.0,0.0,0.0,0.0,0.0,0.0,0.0,0.0,0.0,0.0,0.0,0.0,0.0,0.0,0.0,0.0,0.0,0.0,0.0,0.0,0.0,0.0,0.0,0.0,0.0,0.0,0.0,0.0,0.0,0.0,0.0,0.0,0.0,0.0,0.0,0.0,0.0,0.0,0.0,0.0,0.0,0.0,0.0,0.0,0.0,0.0,0.0,0.0,0.0,0.0,0.0,0.0,0.0,0.0,0.0,0.0,0.0,0.0,0.0,0.0,0.0,0.0,0.0,0.0,0.0,0.0,0.0,0.0,0.0,0.0,0.0,0.0,0.0,0.0,0.0,0.0,0.0,0.0,0.0,0.0,0.0,0.0,0.0,0.0,0.0,0.0,0.0,0.0,0.0,0.0,0.0,0.0,0.0,0.0,0.0,0.0,0.0,0.0,0.0,0.0,0.0,0.0,0.0,0.0,0.0,0.0,0.0,0.0,0.0,0.0,0.0,0.0,0.0,0.0,0.0,0.0,0.0,0.0,0.0,0.0,0.0,0.0,0.0,0.0,0.0,0.0,0.0,0.0,0.0,0.0,0.0,0.0,0.0,0.0,0.0,0.0,0.0,0.0,0.0,0.0,0.0,0.0,0.0,0.0,0.0,0.0,0.0,0.0,0.0,0.0,0.0,0.0,0.0,0.0,0.0,0.0,0.0,0.0,0.0,0.0,0.0,0.0,0.0,0.0,0.0,0.0,0.0,0.0,0.0,0.0,0.0,0.0,0.0,0.0,0.0,0.0,0.0,0.0,0.0,0.0,0.0,0.0,0.0,0.0,0.0,0.0,0.0,0.0,0.0,0.0,0.0,0.0,0.0,0.0,0.0,0.0,0.0,0.0,0.0,0.0,0.0,0.0,0.0,0.0,0.0,0.0,0.0,0.0,0.0,0.0,0.0,0.0,0.0,0.0,0.0,0.0,0.0,0.0,0.0,0.0,0.0,0.0,0.0,0.0,0.0,0.0,0.0,0.0,0.0,0.0,0.0,0.0,0.0,0.0,0.0,0.0,0.0,0.0,0.0,0.0,0.0,0.0,0.0,0.0,0.0,0.0,0.0,0.0,0.0,0.0,0.0,0.0,0.0,0.0,0.0,0.0,0.0,0.0,0.0,0.0,0.0,0.0,0.0,0.0,0.0,0.0,0.0,0.0,0.0,0.0,0.0,0.0,0.0,0.0,0.0,0.0,0.0,0.0,0.0,0.0,0.0,0.0,0.0,0.0,0.0,0.0,0.0,0.0,0.0,0.0,0.0,0.0,0.0,0.0,0.0,0.0,0.0,0.0,0.0,0.0,0.0,0.0,0.0,0.0,0.0,0.0,0.0,0.0,0.0,0.0,0.0,0.0,0.0,0.0,0.0,0.0,0.0,0.0,0.0,0.0,0.0,0.0,0.0,0.0,0.0,0.0,0.0,0.0,0.0,0.0,0.0,0.0,0.0,0.0,0.0,0.0,0.0,0.0,0.0,0.0,0.0,0.0,0.0,0.0,0.0,0.0,0.0,0.0,0.0,0.0,0.0,0.0,0.0,0.0,0.0,0.0,0.0,0.0,0.0,0.0,0.0,0.0,0.0,0.0,0.0,0.0,0.0,0.0,0.0,0.0,0.0,0.0,0.0,0.0,0.0,0.0,0.0,0.0,0.0,0.0,0.0,0.0,0.0,0.0,0.0,0.0,0.0,0.0,0.0,0.0,0.0,0.0,0.0,0.0,0.0,0.0,0.0,0.0,0.0,0.0,0.0,0.0,0.0,0.0,0.0,0.0,0.0,0.0,0.0,0.0,0.0,0.0,0.0,0.0,0.0,0.0,0.0,0.0,0.0,0.0,0.0,0.0,0.0,0.0,0.0,0.0,0.0,0.0,0.0,0.0,0.0,0.0,0.0,0.0,0.0,0.0,0.0,0.0,0.0,0.0,0.0,0.0,0.0,0.0,0.0,0.0,0.0,0.0,0.0,0.0,0.0,0.0,0.0,0.0,0.0,0.0,0.0,0.0,0.0,0.0,0.0,0.0,0.0,0.0,0.0,0.0,0.0,0.0,0.0,0.0,0.0,0.0,0.0,0.0,0.0,0.0,0.0,0.0,0.0,0.0,0.0,0.0,0.0,0.0,0.0,0.0,0.0,0.0,0.0,0.0,0.0,0.0,0.0,0.0,0.0,0.0,0.0,0.0,0.0,0.0,0.0,0.0,0.0,0.0,0.0,0.0,0.0,0.0,0.0,0.0,0.0,0.0,0.0,0.0,0.0,0.0,0.0,0.0,0.0,0.0,0.0,0.0,0.0,0.0,0.0,0.0,0.0,0.0,0.0,0.0,0.0,0.0,0.0,0.0,0.0,0.0,0.0,0.0,0.0,0.0,0.0,0.0,0.0,0.0,0.0,0.0,0.0,0.0,0.0,0.0,0.0,0.0,0.0,0.0,0.0,0.0,0.0,0.0,0.0,0.0,0.0,0.0,0.0,0.0,0.0,0.0,0.0,0.0,0.0,0.0,0.0,0.0,0.0,0.0,0.0,0.0,0.0,0.0,0.0,0.0,0.0,0.0,0.0,0.0,0.0,0.0,0.0,0.0,0.0,0.0,0.0,0.0,0.0,0.0,0.0,0.0,0.0,0.0,0.0,0.0,0.0,0.0,0.0,0.0,0.0,0.0,0.0,0.0,0.0,0.0,0.0,0.0,0.0,0.0,0.0,0.0,0.0,0.0,0.0,0.0,0.0,0.0,0.0,0.0,0.0,0.0,0.0,0.0,0.0,0.0,0.0,0.0,0.0,0.0,0.0,0.0,0.0,0.0,0.0,0.0,0.0,0.0,0.0,0.0,0.0,0.0,0.0,0.0,0.0,0.0,0.0,0.0,0.0,0.0,0.0,0.0,0.0,0.0,0.0,0.0,0.0,0.0,0.0,0.0,0.0,0.0,0.0,0.0,0.0,0.0,0.0,0.0,0.0,0.0,0.0,0.0,0.0,0.0,0.0,0.0,0.0,0.0,0.0,0.0,0.0,0.0,0.0,0.0,0.0,0.0,0.0,0.0,0.0,0.0,0.0,0.0,0.0,0.0,0.0,0.0,0.0,0.0,0.0,0.0,0.0,0.0,0.0,0.0,0.0,0.0,0.0,0.0,0.0,0.0,0.0,0.0,0.0,0.0,0.0,0.0,0.0,0.0,0.0,0.0,0.0,0.0,0.0,0.0,0.0,0.0,0.0,0.0,0.0,0.0,0.0,0.0,0.0,0.0,0.0,0.0,0.0,0.0,0.0,0.0,0.0,0.0,0.0,0.0,0.0,0.0,0.0,0.0,0.0,0.0,0.0,0.0,0.0,0.0,0.0,0.0,0.0,0.0,0.0,0.0,0.0,0.0,0.0,0.0,0.0,0.0,0.0,0.0,0.0,0.0,0.0,0.0,0.0,0.0,0.0,0.0,0.0,0.0,0.0,0.0,0.0,0.0,0.0,0.0,0.0,0.0,0.0,0.0,0.0,0.0,0.0,0.0,0.0,0.0,0.0,0.0,0.0,0.0,0.0,0.0,0.0,0.0,0.0,0.0,0.0,0.0,0.0,0.0,0.0,0.0,0.0,0.0,0.0,0.0,0.0,0.0,0.0,0.0,0.0,0.0,0.0,0.0,0.0,0.0,0.0,0.0,0.0,0.0,0.0,0.0,0.0,0.0,0.0,0.0,0.0,0.0,0.0,0.0,0.0,0.0,0.0,0.0,0.0,0.0,0.0,0.0,0.0,0.0,0.0,0.0,0.0,0.0,0.0,0.0,0.0,0.0,0.0,0.0,0.0,0.0,0.0,0.0,0.0,0.0,0.0,0.0,0.0,0.0,0.0,0.0,0.0,0.0,0.0,0.0,0.0,0.0,0.0,0.0,0.0,0.0,0.0,0.0,0.0,0.0,0.0,0.0,0.0,0.0,0.0,0.0,0.0,0.0,0.0,0.0,0.0,0.0,0.0,0.0,0.0,0.0,0.0,0.0,0.0,0.0,0.0,0.0,0.0,0.0,0.0,0.0,0.0,0.0,0.0,0.0,0.0,0.0,0.0,0.0,0.0,0.0,0.0,0.0,0.0,0.0,0.0,0.0,0.0,0.0,0.0,0.0,0.0,0.0,0.0,0.0,0.0,-0.8808,0.0,0.0,0.0,0.0,0.0,0.0,0.0,0.0,0.0,0.0,0.0,0.0,0.0,0.0,0.0,0.0,0.0,0.0,0.0,0.0,0.0,0.0,0.0,0.0,0.0,0.0,0.0,0.0,0.0,0.0,0.0,0.0,0.0,0.0,0.0,0.0,0.0,0.0,0.0,0.0,0.0,0.0,0.0,0.0,0.0,0.0,0.0,0.0,0.0,0.0,0.0,0.0,0.0,0.0,0.0,0.0,0.0,0.0,0.0,0.0,0.0,0.0,0.0,0.0,0.0,0.0,0.0,0.0,0.0,0.0,0.0,0.0,0.0,0.0,0.0,0.0,0.0,0.0,0.0,0.0,0.0,0.0,0.0,0.0,0.0,0.0,0.0,0.0,0.0,0.0,0.0,0.0,0.0,0.0,0.0,0.0,0.0,0.0,0.0,0.0,0.0,0.0,0.0,0.0,0.0,0.0,0.0,0.0,0.0,0.0,-1.2483,-1.1884,-1.1316,-1.0878,-1.0542,0.0,0.0,0.0,0.0,0.0,0.0,0.0,0.0,0.0,0.0,0.0,0.0,0.0,0.0,0.0,0.0,0.0,0.0,0.0,0.0,0.0,0.0,0.0,0.0,0.0,0.0,0.0,0.0,0.0,0.0,0.0,0.0,0.0,0.0,0.0,0.0,0.0,0.0,0.0,0.0,0.0,0.0,0.0,0.0,0.0,0.0,0.0,0.0,0.0,0.0,0.0,0.0,0.0,0.0,0.0,0.0,0.0,0.0,0.0,0.0,0.0,0.0,0.0,0.0,0.0,0.0,0.0,0.0,0.0,0.0,0.0,0.0,0.0,0.0,0.0,0.0,0.0,0.0,0.0,0.0,0.0,0.0,0.0,0.0,0.0,0.0,0.0,0.0,0.0,0.0,0.0,0.0,0.0,0.0,0.0,0.0,0.0,0.0,0.0,0.0,0.0,0.0,0.0,0.0,0.0,0.0,0.0,0.0,0.0,0.0,0.0,0.0,-1.2871,-1.2636,-1.1738,0.0,0.0,0.0,0.0,0.0,0.0,0.0,0.0,0.0,0.0,0.0,0.0,0.0,0.0,0.0,0.0,0.0,0.0,0.0,0.0,0.0,0.0,0.0,0.0,0.0,0.0,0.0,0.0,0.0,0.0,0.0,0.0,0.0,0.0,0.0,0.0,0.0,0.0,0.0,0.0,0.0,0.0,0.0,0.0,0.0,0.0,0.0,0.0,0.0,0.0,0.0,0.0,0.0,0.0,0.0,0.0,0.0,0.0,0.0,0.0,0.0,0.0,0.0,0.0,0.0,0.0,0.0,0.0,0.0,0.0,0.0,0.0,0.0,0.0,0.0,0.0,0.0,0.0,0.0,0.0,0.0,0.0,0.0,0.0,0.0,0.0,0.0,0.0,0.0,0.0,0.0,0.0,0.0,0.0,0.0,0.0,0.0,0.0,0.0,0.0,0.0,0.0,0.0,0.0,0.0,0.0,0.0,0.0,0.0,0.0,-1.417,-1.3752,-1.3269,0.0,-1.1783,0.0,0.0,0.0,0.0,0.0,0.0,0.0,0.0,0.0,0.0,0.0,0.0,0.0,0.0,0.0,0.0,0.0,0.0,0.0,0.0,0.0,0.0,0.0,0.0,0.0,0.0,0.0,0.0,0.0,0.0,0.0,0.0,0.0,0.0,0.0,0.0,0.0,0.0,0.0,0.0,0.0,0.0,0.0,0.0,0.0,0.0,0.0,0.0,0.0,0.0,0.0,0.0,0.0,0.0,0.0,0.0,0.0,0.0,0.0,0.0,0.0,0.0,0.0,0.0,0.0,0.0,0.0,0.0,0.0,0.0,0.0,0.0,0.0,0.0,0.0,0.0,0.0,0.0,0.0,0.0,0.0,0.0,0.0,0.0,0.0,0.0,0.0,0.0,0.0,0.0,0.0,0.0,0.0,0.0,0.0,0.0,0.0,0.0,0.0,0.0,0.0,0.0,0.0,0.0,0.0,0.0,0.0,0.0,0.0,0.0,-1.4474,-1.4374,-1.4412,-1.3772,0.0,0.0,0.0,0.0,0.0,0.0,0.0,0.0,0.0,0.0,0.0,0.0,0.0,0.0,0.0,0.0,0.0,0.0,0.0,0.0,0.0,0.0,0.0,0.0,0.0,0.0,0.0,0.0,0.0,0.0,0.0,0.0,0.0,0.0,0.0,0.0,0.0,0.0,0.0,0.0,0.0,0.0,0.0,0.0,0.0,0.0,0.0,0.0,0.0,0.0,0.0,0.0,0.0,0.0,0.0,0.0,0.0,0.0,0.0,0.0,0.0,0.0,0.0,0.0,0.0,0.0,0.0,0.0,0.0,0.0,0.0,0.0,0.0,0.0,0.0,0.0,0.0,0.0,0.0,0.0,0.0,0.0,0.0,0.0,0.0,0.0,0.0,0.0,0.0,0.0,0.0,0.0,0.0,0.0,0.0,0.0,0.0,0.0,0.0,0.0,0.0,0.0,0.0,0.0,0.0,0.0,0.0,0.0,0.0,0.0,-1.4567,-1.4773,-1.4896,-1.5131,-1.4654,-1.3421,0.0,0.0,0.0,0.0,0.0,0.0,0.0,0.0,0.0,0.0,0.0,0.0,0.0,0.0,0.0,0.0,0.0,0.0,0.0,0.0,0.0,0.0,0.0,0.0,0.0,0.0,0.0,0.0,0.0,0.0,0.0,0.0,0.0,0.0,0.0,0.0,0.0,0.0,0.0,0.0,0.0,0.0,0.0,0.0,0.0,0.0,0.0,0.0,0.0,0.0,0.0,0.0,0.0,0.0,0.0,0.0,0.0,0.0,0.0,0.0,0.0,0.0,0.0,0.0,0.0,0.0,0.0,0.0,0.0,0.0,0.0,0.0,0.0,0.0,0.0,0.0,0.0,0.0,0.0,0.0,0.0,0.0,0.0,0.0,0.0,0.0,0.0,0.0,0.0,0.0,0.0,0.0,0.0,0.0,0.0,0.0,0.0,0.0,0.0,0.0,0.0,0.0,0.0,0.0,0.0,0.0,0.0,0.0,-1.4589,-1.4954,-1.5231,-1.5349,-1.509,-1.4878,0.0,0.0,0.0,0.0,0.0,0.0,0.0,0.0,0.0,0.0,0.0,0.0,0.0,0.0,0.0,0.0,0.0,0.0,0.0,0.0,0.0,0.0,0.0,0.0,0.0,0.0,0.0,0.0,0.0,0.0,0.0,0.0,0.0,0.0,0.0,0.0,0.0,0.0,0.0,0.0,0.0,0.0,0.0,0.0,0.0,0.0,0.0,0.0,0.0,0.0,0.0,0.0,0.0,0.0,0.0,0.0,0.0,0.0,0.0,0.0,0.0,0.0,0.0,0.0,0.0,0.0,0.0,0.0,0.0,0.0,0.0,0.0,0.0,0.0,0.0,0.0,0.0,0.0,0.0,0.0,0.0,0.0,0.0,0.0,0.0,0.0,0.0,0.0,0.0,0.0,0.0,0.0,0.0,0.0,0.0,0.0,0.0,0.0,0.0,0.0,0.0,0.0,0.0,0.0,0.0,0.0,0.0,0.0,0.0,-1.4848,-1.4872,-1.5018,-1.5234,-1.4806,-1.4391,0.0,0.0,0.0,0.0,0.0,0.0,0.0,0.0,0.0,0.0,0.0,0.0,0.0,0.0,0.0,0.0,0.0,0.0,0.0,0.0,0.0,0.0,0.0,0.0,0.0,0.0,0.0,0.0,0.0,0.0,0.0,0.0,0.0,0.0,0.0,0.0,0.0,0.0,0.0,0.0,0.0,0.0,0.0,0.0,0.0,0.0,0.0,0.0,0.0,0.0,0.0,0.0,0.0,0.0,0.0,0.0,0.0,0.0,0.0,0.0,0.0,0.0,0.0,0.0,0.0,0.0,0.0,0.0,0.0,0.0,0.0,0.0,0.0,0.0,0.0,0.0,0.0,0.0,0.0,0.0,0.0,0.0,0.0,0.0,0.0,0.0,0.0,0.0,0.0,0.0,0.0,0.0,0.0,0.0,0.0,0.0,0.0,0.0,0.0,0.0,0.0,0.0,0.0,0.0,0.0,0.0,0.0,0.0,0.0,-1.5124,0.0,-1.4864,-1.5053,-1.4353,-1.3854,0.0,0.0,0.0,0.0,0.0,0.0,0.0,0.0,0.0,0.0,0.0,0.0,0.0,0.0,0.0,0.0,0.0,0.0,0.0,0.0,0.0,0.0,0.0,0.0,0.0,0.0,0.0,0.0,0.0,0.0,0.0,0.0,0.0,0.0,0.0,0.0,0.0,0.0,0.0,0.0,0.0,0.0,0.0,0.0,0.0,0.0,0.0,0.0,0.0,0.0,0.0,0.0,0.0,0.0,0.0,0.0,0.0,0.0,0.0,0.0,0.0,0.0,0.0,0.0,0.0,0.0,0.0,0.0,0.0,0.0,0.0,0.0,0.0,0.0,0.0,0.0,0.0,0.0,0.0,0.0,0.0,0.0,0.0,0.0,0.0,0.0,0.0,0.0,0.0,0.0,0.0,0.0,0.0,0.0,0.0,0.0,0.0,0.0,0.0,0.0,0.0,0.0,0.0,0.0,0.0,0.0,0.0,0.0,-1.5312,-1.537,-1.5049,-1.4896,-1.4863,-1.3705,-1.3303,0.0,0.0,0.0,0.0,0.0,0.0,0.0,0.0,0.0,0.0,0.0,0.0,0.0,0.0,0.0,0.0,0.0,0.0,0.0,0.0,0.0,0.0,0.0,0.0,0.0,0.0,0.0,0.0,0.0,0.0,0.0,0.0,0.0,0.0,0.0,0.0,0.0,0.0,0.0,0.0,0.0,0.0,0.0,0.0,0.0,0.0,0.0,0.0,0.0,0.0,0.0,0.0,0.0,0.0,0.0,0.0,0.0,0.0,0.0,0.0,0.0,0.0,0.0,0.0,0.0,0.0,0.0,0.0,0.0,0.0,0.0,0.0,0.0,0.0,0.0,0.0,0.0,0.0,0.0,0.0,0.0,0.0,0.0,0.0,0.0,0.0,0.0,0.0,0.0,0.0,0.0,0.0,0.0,0.0,0.0,0.0,0.0,0.0,0.0,0.0,0.0,0.0,0.0,0.0,0.0,0.0,0.0,0.0,0.0,-1.5125,-1.4961,-1.4808,-1.4599,-1.3569,-1.309,0.0,0.0,0.0,0.0,0.0,0.0,0.0,0.0,0.0,0.0,0.0,0.0,0.0,0.0,0.0,0.0,0.0,0.0,0.0,0.0,0.0,0.0,0.0,0.0,0.0,0.0,0.0,0.0,0.0,0.0,0.0,0.0,0.0,0.0,0.0,0.0,0.0,0.0,0.0,0.0,0.0,0.0,0.0,0.0,0.0,0.0,0.0,0.0,0.0,0.0,0.0,0.0,0.0,0.0,0.0,0.0,0.0,0.0,0.0,0.0,0.0,0.0,0.0,0.0,0.0,0.0,0.0,0.0,0.0,0.0,0.0,0.0,0.0,0.0,0.0,0.0,0.0,0.0,0.0,0.0,0.0,0.0,0.0,0.0,0.0,0.0,0.0,0.0,0.0,0.0,0.0,0.0,0.0,0.0,0.0,0.0,0.0,0.0,0.0,0.0,0.0,0.0,0.0,0.0,0.0,0.0,0.0,0.0,0.0,-1.5086,-1.4902,-1.475,-1.4596,-1.3278,-1.2707,-1.2893,0.0,0.0,0.0,0.0,0.0,0.0,0.0,0.0,0.0,0.0,0.0,0.0,0.0,0.0,0.0,0.0,0.0,0.0,0.0,0.0,0.0,0.0,0.0,0.0,0.0,0.0,0.0,0.0,0.0,0.0,0.0,0.0,0.0,0.0,0.0,0.0,0.0,0.0,0.0,0.0,0.0,0.0,0.0,0.0,0.0,0.0,0.0,0.0,0.0,0.0,0.0,0.0,0.0,0.0,0.0,0.0,0.0,0.0,0.0,0.0,0.0,0.0,0.0,0.0,0.0,0.0,0.0,0.0,0.0,0.0,0.0,0.0,0.0,0.0,0.0,0.0,0.0,0.0,0.0,0.0,0.0,0.0,0.0,0.0,0.0,0.0,0.0,0.0,0.0,0.0,0.0,0.0,0.0,0.0,0.0,0.0,0.0,0.0,0.0,0.0,0.0,0.0,0.0,0.0,0.0,0.0,0.0,0.0,-1.5209,-1.4898,-1.471,-1.4654,-1.2953,-1.2228,0.0,0.0,0.0,0.0,0.0,0.0,0.0,0.0,0.0,0.0,0.0,0.0,0.0,0.0,0.0,0.0,0.0,0.0,0.0,0.0,0.0,0.0,0.0,0.0,0.0,0.0,0.0,0.0,0.0,0.0,0.0,0.0,0.0,0.0,0.0,0.0,0.0,0.0,0.0,0.0,0.0,0.0,0.0,0.0,0.0,0.0,0.0,0.0,0.0,0.0,0.0,0.0,0.0,0.0,0.0,0.0,0.0,0.0,0.0,0.0,0.0,0.0,0.0,0.0,0.0,0.0,0.0,0.0,0.0,0.0,0.0,0.0,0.0,0.0,0.0,0.0,0.0,0.0,0.0,0.0,0.0,0.0,0.0,0.0,0.0,0.0,0.0,0.0,0.0,0.0,0.0,0.0,0.0,0.0,0.0,0.0,0.0,0.0,0.0,0.0,0.0,0.0,0.0,0.0,0.0,0.0,0.0,0.0,0.0,-1.5274,-1.5091,-1.4864,-1.4529,-1.3501,-1.2673,0.0,0.0,0.0,0.0,0.0,0.0,0.0,0.0,0.0,0.0,0.0,0.0,0.0,0.0,0.0,0.0,0.0,0.0,0.0,0.0,0.0,0.0,0.0,0.0,0.0,0.0,0.0,0.0,0.0,0.0,0.0,0.0,0.0,0.0,0.0,0.0,0.0,0.0,0.0,0.0,0.0,0.0,0.0,0.0,0.0,0.0,0.0,0.0,0.0,0.0,0.0,0.0,0.0,0.0,0.0,0.0,0.0,0.0,0.0,0.0,0.0,0.0,0.0,0.0,0.0,0.0,0.0,0.0,0.0,0.0,0.0,0.0,0.0,0.0,0.0,0.0,0.0,0.0,0.0,0.0,0.0,0.0,0.0,0.0,0.0,0.0,0.0,0.0,0.0,0.0,0.0,0.0,0.0,0.0,0.0,0.0,0.0,0.0,0.0,0.0,0.0,0.0,0.0,0.0,0.0,0.0,0.0,0.0,-1.5315,-1.5355,-1.5182,-1.498,-1.4755,-1.3856,-1.3074,0.0,0.0,0.0,0.0,0.0,0.0,0.0,0.0,0.0,0.0,0.0,0.0,0.0,0.0,0.0,0.0,0.0,0.0,0.0,0.0,0.0,0.0,0.0,0.0,0.0,0.0,0.0,0.0,0.0,0.0,0.0,0.0,0.0,0.0,0.0,0.0,0.0,0.0,0.0,0.0,0.0,0.0,0.0,0.0,0.0,0.0,0.0,0.0,0.0,0.0,0.0,0.0,0.0,0.0,0.0,0.0,0.0,0.0,0.0,0.0,0.0,0.0,0.0,0.0,0.0,0.0,0.0,0.0,0.0,0.0,0.0,0.0,0.0,0.0,0.0,0.0,0.0,0.0,0.0,0.0,0.0,0.0,0.0,0.0,0.0,0.0,0.0,0.0,0.0,0.0,0.0,0.0,0.0,0.0,0.0,0.0,0.0,0.0,0.0,0.0,0.0,0.0,0.0,0.0,0.0,0.0,0.0,0.0,-1.5318,-1.5374,-1.5221,-1.5106,-1.5065,-1.4116,-1.3449,0.0,0.0,0.0,0.0,0.0,0.0,0.0,0.0,0.0,0.0,0.0,0.0,0.0,0.0,0.0,0.0,0.0,0.0,0.0,0.0,0.0,0.0,0.0,0.0,0.0,0.0,0.0,0.0,0.0,0.0,0.0,0.0,0.0,0.0,0.0,0.0,0.0,0.0,0.0,0.0,0.0,0.0,0.0,0.0,0.0,0.0,0.0,0.0,0.0,0.0,0.0,0.0,0.0,0.0,0.0,0.0,0.0,0.0,0.0,0.0,0.0,0.0,0.0,0.0,0.0,0.0,0.0,0.0,0.0,0.0,0.0,0.0,0.0,0.0,0.0,0.0,0.0,0.0,0.0,0.0,0.0,0.0,0.0,0.0,0.0,0.0,0.0,0.0,0.0,0.0,0.0,0.0,0.0,0.0,0.0,0.0,0.0,0.0,0.0,0.0,0.0,0.0,0.0,0.0,0.0,0.0,0.0,0.0,-1.5314,-1.533,-1.5267,-1.5171,-1.5018,-1.4489,-1.3884,0.0,0.0,0.0,0.0,0.0,0.0,0.0,0.0,0.0,0.0,0.0,0.0,0.0,0.0,0.0,0.0,0.0,0.0,0.0,0.0,0.0,0.0,0.0,0.0,0.0,0.0,0.0,0.0,0.0,0.0,0.0,0.0,0.0,0.0,0.0,0.0,0.0,0.0,0.0,0.0,0.0,0.0,0.0,0.0,0.0,0.0,0.0,0.0,0.313,0.0,0.0,0.0,0.0,0.0,0.0,0.0,0.0,0.0,0.0,0.0,0.0,0.0,0.0,0.0,0.0,0.0,0.0,0.0,0.0,0.0,0.0,0.0,0.0,0.0,0.0,0.0,0.0,0.0,0.0,0.0,0.0,0.0,0.0,0.0,0.0,0.0,0.0,0.0,0.0,0.0,0.0,0.0,0.0,0.0,0.0,0.0,0.0,0.0,0.0,0.0,0.0,0.0,0.0,0.0,0.0,0.0,0.0,0.0,-1.5278,-1.5291,-1.5253,-1.521,-1.5088,-1.4825,-1.4357,0.0,0.0,0.0,0.0,0.0,0.0,0.0,0.0,0.0,0.0,0.0,0.0,0.0,0.0,0.0,0.0,0.0,0.0,0.0,0.0,0.0,0.0,0.0,0.0,0.0,0.0,0.0,0.0,0.0,0.0,0.0,0.0,0.0,0.0,0.0,0.0,0.0,0.0,0.0,0.0,0.0,0.0,0.0,0.0,0.0,0.0,0.0,0.0,0.0,0.0,0.0,0.0,0.0,0.0,0.0,0.0,0.0,0.0,0.0,0.0,0.0,0.0,0.0,0.0,0.0,0.0,0.0,0.0,0.0,0.0,0.0,0.0,0.0,0.0,0.0,0.0,0.0,0.0,0.0,0.0,0.0,0.0,0.0,0.0,0.0,0.0,0.0,0.0,0.0,0.0,0.0,0.0,0.0,0.0,0.0,0.0,0.0,0.0,0.0,0.0,0.0,0.0,0.0,0.0,0.0,0.0,0.0,-1.5303,-1.5294,-1.5297,-1.5234,-1.5195,-1.5189,-1.5075,-1.4719,-1.4152,0.0,0.0,0.0,0.0,0.0,0.0,0.0,0.0,0.0,0.0,0.0,0.0,0.0,0.0,0.0,0.0,0.0,0.0,0.0,0.0,0.0,0.0,0.0,0.0,0.0,0.0,0.0,0.0,0.0,0.0,0.0,0.0,0.0,0.0,0.0,0.0,0.0,0.0,0.1211,0.2089,0.0,0.0,0.0,0.0,0.0,0.0,0.0,0.0,0.3355,0.0,0.0,0.0,0.0,0.0,0.0,0.0,0.0,0.0,0.0,0.0,0.0,0.0,0.0,0.0,0.0,0.0,0.0,0.0,0.0,0.0,0.0,0.0,0.0,0.0,0.0,0.0,0.0,0.0,0.0,0.0,0.0,0.0,0.0,0.0,0.0,0.0,0.0,0.0,0.0,0.0,0.0,0.0,0.0,0.0,0.0,0.0,0.0,0.0,0.0,0.0,0.0,0.0,0.0,0.0,0.0,-1.5388,-1.533,-1.5289,-1.5291,-1.5234,-1.5195,-1.5189,-1.5056,-1.478,-1.4281,0.0,0.0,0.0,0.0,0.0,0.0,0.0,0.0,0.0,0.0,0.0,0.0,0.0,0.0,0.0,0.0,0.0,0.0,0.0,0.0,0.0,0.0,0.0,0.0,0.0,0.0,0.0,0.0,0.0,0.0,0.0,0.0,0.0,0.0,0.0,0.0,0.0,0.0,0.0,0.2117,0.2693,0.0,0.0,0.0,0.0,0.0,0.0,0.0,0.0,0.3458,0.0,0.0,0.0,0.0,0.0,0.0,0.0,0.0,0.0,0.0,0.0,0.0,0.0,0.0,0.0,0.0,0.0,0.0,0.0,0.0,0.0,0.0,0.0,0.0,0.0,0.0,0.0,0.0,0.0,0.0,0.0,0.0,0.0,0.0,0.0,0.0,0.0,0.0,0.0,0.0,0.0,0.0,0.0,0.0,0.0,0.0,0.0,0.0,0.0,0.0,0.0,0.0,0.0,0.0,0.0,-1.5349,-1.5313,-1.533,-1.5361,-1.5291,-1.5253,-1.5253,-1.5159,-1.4858,0.0,0.0,0.0,0.0,0.0,0.0,0.0,0.0,0.0,0.0,0.0,0.0,0.0,0.0,0.0,0.0,0.0,0.0,0.0,0.0,0.0,0.0,0.0,0.0,0.0,0.0,0.0,0.0,0.0,0.0,0.0,0.0,0.0,0.0,0.0,0.0,0.0,0.0,0.0,0.0,0.2423,0.2693,0.2679,0.0,0.0,0.0,0.0,0.0,0.0,0.3298,0.3134,0.0,0.0,0.0,0.0,0.0,0.0,0.0,0.0,0.0,0.0,0.0,0.0,0.0,0.0,0.0,0.0,0.0,0.0,0.0,0.0,0.0,0.0,0.0,0.0,0.0,0.0,0.0,0.0,0.0,0.0,0.0,0.0,0.0,0.0,0.0,0.0,0.0,0.0,0.0,0.0,0.0,0.0,0.0,0.0,0.0,0.0,0.0,0.0,0.0,0.0,0.0,0.0,0.0,0.0,0.0,-1.5597,-1.5565,-1.5664,-1.5888,-1.585,-1.5818,-1.5829,-1.5611,-1.5202,0.0,0.0,0.0,0.0,0.0,0.0,0.0,0.0,0.0,0.0,0.0,0.0,0.0,0.0,0.0,0.0,0.0,0.0,0.0,0.0,0.0,0.0,0.0,0.0,0.0,0.0,0.0,0.0,0.0,0.0,0.0,0.0,0.0,0.0,0.0,0.0,0.0,0.0,0.0,0.0,0.0,0.2696,0.2686,0.2686,0.0,0.0,0.0,0.0,0.3261,0.3035,0.0,0.0,0.0,0.0,0.0,0.0,0.0,0.0,0.0,0.0,0.0,0.0,0.0,0.0,0.0,0.0,0.0,0.0,0.0,0.0,0.0,0.0,0.0,0.0,0.0,0.0,0.0,0.0,0.0,0.0,0.0,0.0,0.0,0.0,0.0,0.0,0.0,0.0,0.0,0.0,0.0,0.0,0.0,0.0,0.0,0.0,0.0,0.0,0.0,0.0,0.0,0.0,0.0,0.0,0.0,0.0,-1.666,-1.6496,-1.675,-1.7559,-1.7613,-1.7594,-1.7592,-1.686,-1.6141,0.0,0.0,0.0,0.0,0.0,0.0,0.0,0.0,0.0,0.0,0.0,0.0,0.0,0.0,0.0,0.0,0.0,0.0,0.0,0.0,0.0,0.0,0.0,0.0,0.0,0.0,0.0,0.0,0.0,0.0,0.0,0.0,0.0,0.0,0.0,0.0,0.0,0.0,0.0,0.0,0.0,0.2696,0.2696,0.2696,0.2693,0.0,0.0,0.2831,0.3225,0.3261,0.0,0.0,0.0,0.0,0.0,0.0,0.0,0.0,0.0,0.0,0.0,0.0,0.0,0.0,0.0,0.0,0.0,0.0,0.0,0.0,0.0,0.0,0.0,0.0,0.0,0.0,0.0,0.0,0.0,0.0,0.0,0.0,0.0,0.0,0.0,0.0,0.0,0.0,0.0,0.0,0.0,0.0,0.0,0.0,0.0,0.0,0.0,0.0,0.0,0.0,0.0,0.0,0.0,0.0,0.0,-1.7171,-1.7917,-1.749,-1.7424,-1.7833,-1.789,-1.7922,-1.7905,-1.7527,-1.7113,0.0,0.0,0.0,0.0,0.0,0.0,0.0,0.0,0.0,0.0,0.0,0.0,0.0,0.0,0.0,0.0,0.0,0.0,0.0,0.0,0.0,0.0,0.0,0.0,0.0,0.0,0.0,0.0,0.0,0.0,0.0,0.0,0.0,0.0,0.0,0.0,0.0,0.0,0.0,0.0,0.0,0.0,0.256,0.2696,0.0,0.0,0.0,0.2947,0.3082,0.0,0.0,0.0,0.0,0.0,0.0,0.0,0.0,0.0,0.0,0.0,0.0,0.0,0.0,0.0,0.0,0.0,0.0,0.0,0.0,0.0,0.0,0.0,0.0,0.0,0.0,0.0,0.0,0.0,0.0,0.0,0.0,0.0,0.0,0.0,0.0,0.0,0.0,0.0,0.0,0.0,0.0,0.0,0.0,0.0,0.0,0.0,0.0,0.0,0.0,0.0,0.0,0.0,0.0,0.0,0.0,0.0,-1.9139,-1.8482,-1.8217,-1.8416,-1.8488,-1.8525,-1.8519,-1.832,0.0,0.0,0.0,0.0,0.0,0.0,0.0,0.0,0.0,0.0,0.0,0.0,0.0,0.0,0.0,0.0,0.0,0.0,0.0,0.0,0.0,0.0,0.0,0.0,0.0,0.0,0.0,-0.5822,0.0,0.0,0.0,0.0,0.0,0.0,0.0,0.0,0.0,0.0,0.0,0.0,0.0,0.0,0.0335,0.1809,0.1984,0.1786,0.0,0.0,0.2331,0.2894,0.3021,0.3127,0.0,0.0,0.0,0.0,0.0,0.0,0.0,0.0,0.0,0.0,0.0,0.0,0.0,0.0,0.0,0.0,0.0,0.0,0.0,0.0,0.0,0.0,0.0,0.0,0.0,0.0,0.0,0.0,0.0,0.0,0.0,0.0,0.0,0.0,0.0,0.0,0.0,0.0,0.0,0.0,0.0,0.0,0.0,0.0,0.0,0.0,0.0,0.0,0.0,0.0,0.0,0.0,0.0,0.0,0.0,-2.0111,-1.9415,-1.9384,-2.0096,-2.0181,-2.0231,-2.0235,-1.9445,-1.8901,0.0,0.0,0.0,0.0,0.0,0.0,0.0,0.0,0.0,0.0,0.0,0.0,0.0,0.0,0.0,0.0,0.0,0.0,0.0,0.0,0.0,0.0,0.0,0.0,0.0,0.0,0.0,0.0,0.0,0.0,0.0,0.0,0.0,0.0,0.0,0.0,0.0,0.0,0.0,0.0,0.0,-0.0579,0.0071,0.0036,-0.0073,0.0,0.0,0.0583,0.2739,0.3069,0.3112,0.3115,0.0,0.0,0.0,0.0,0.0,0.0,0.0,0.0,0.0,0.0,0.0,0.0,0.0,0.0,0.0,0.0,0.0,0.0,0.0,0.0,0.0,0.0,0.0,0.0,0.0,0.0,0.0,0.0,0.0,0.0,0.0,0.0,0.0,0.0,0.0,0.0,0.0,0.0,0.0,0.0,0.0,0.0,0.0,0.0,0.0,0.0,0.0,0.0,0.0,0.0,0.0,0.0,0.0,-1.9669,-2.0285,-1.9985,-1.9985,-2.0285,-2.0331,-2.033,-2.0341,-2.0064,-1.9831,0.0,0.0,0.0,0.0,0.0,0.0,0.0,0.0,0.0,0.0,0.0,0.0,0.0,0.0,0.0,0.0,0.0,0.0,0.0,0.0,0.0,0.0,0.0,0.0,0.0,0.0,0.0,0.0,-0.7866,-0.7453,-0.72,0.0,0.0,0.0,0.0,0.0,0.0,0.0,0.0,0.0,0.0,-0.26,-0.1786,-0.2064,0.0,0.0,-0.1474,-0.0447,0.0852,0.1122,0.1185,0.1185,0.1185,0.0,0.0,0.0,0.0,0.0,0.0,0.0,0.0,0.0,0.0,0.0,0.0,0.0,0.0,0.0,0.0,0.0,0.0,0.0,0.0,0.0,0.0,0.0,0.0,0.0,0.0,0.0,0.0,0.0,0.0,0.0,0.0,0.0,0.0,0.0,0.0,0.0,0.0,0.0,0.0,0.0,0.0,0.0,0.0,0.0,0.0,0.0,0.0,0.0,0.0,0.0,0.0,-2.0205,-2.0205,-2.0205,-2.0205,-2.0205,-2.0277,-2.0292,-2.0285,-2.0299,-2.026,0.0,0.0,0.0,0.0,0.0,0.0,0.0,0.0,0.0,0.0,0.0,0.0,0.0,0.0,0.0,0.0,0.0,0.0,0.0,0.0,0.0,0.0,0.0,0.0,0.0,0.0,0.0,0.0,-0.875,-0.8445,-0.8047,0.0,0.0,0.0,0.0,0.0,0.0,0.0,0.0,0.0,0.0,-0.4798,-0.353,-0.4167,-0.4962,-0.5504,-0.3707,-0.2105,-0.1764,-0.1642,-0.1458,-0.115,0.0,0.0,0.0,0.0,0.0,0.0,0.0,0.0,0.0,0.0,0.0,0.0,0.0,0.0,0.0,0.0,0.0,0.0,0.0,0.0,0.0,0.0,0.0,0.0,0.0,0.0,0.0,0.0,0.0,0.0,-1.5192,0.0,0.0,0.0,0.0,0.0,0.0,0.0,0.0,0.0,0.0,0.0,0.0,0.0,0.0,0.0,0.0,0.0,0.0,0.0,0.0,0.0,0.0,-1.9993,-2.0022,-2.0012,-1.9993,-1.9993,-2.0197,-2.0304,-2.0296,-2.0115,-2.0021,-2.0104,0.0,0.0,0.0,0.0,0.0,0.0,0.0,0.0,0.0,0.0,0.0,0.0,0.0,0.0,0.0,0.0,0.0,0.0,0.0,0.0,0.0,0.0,0.0,0.0,0.0,0.0,-0.9405,-0.9511,-0.9452,0.0,0.0,0.0,0.0,0.0,0.0,0.0,0.0,0.0,0.0,-0.8164,-0.7182,-0.5203,-0.6294,-0.7926,-0.9793,-0.6989,-0.4768,-0.5099,-0.5168,-0.4815,0.0,0.0,0.0,0.0,0.0,0.0,0.0,0.0,0.0,0.0,0.0,0.0,0.0,0.0,0.0,0.0,0.0,0.0,0.0,0.0,0.0,0.0,0.0,0.0,0.0,0.0,0.0,-1.5836,-1.5937,0.0,0.0,0.0,0.0,0.0,0.0,0.0,0.0,0.0,0.0,0.0,-1.6241,-1.6768,0.0,0.0,0.0,0.0,0.0,0.0,0.0,0.0,0.0,0.0,0.0,0.0,-1.9993,-1.9993,-1.9922,-1.9869,-1.9869,-2.0022,-2.005,-1.9962,-1.9983,-2.0001,-1.996,0.0,0.0,0.0,0.0,0.0,0.0,0.0,0.0,0.0,0.0,0.0,0.0,0.0,0.0,0.0,0.0,0.0,0.0,0.0,0.0,0.0,0.0,0.0,0.0,0.0,-1.0443,0.0,0.0,0.0,0.0,0.0,0.0,0.0,0.0,0.0,0.0,0.0,-0.9976,-1.0156,-1.0225,-0.9803,-0.8539,-0.8764,-0.9592,0.0,0.0,0.0,0.0,0.0,0.0,0.0,0.0,0.0,0.0,0.0,0.0,0.0,0.0,-0.0355,0.0447,0.0582,0.0583,0.0583,0.0,0.0,0.0,0.0,0.0,0.0,0.0,0.0,0.0,0.0,0.0,0.0,0.0,0.0,-1.6448,0.0,-1.6581,0.0,0.0,0.0,0.0,0.0,0.0,0.0,0.0,-1.6722,-1.6633,-1.6633,-1.6928,-1.7254,0.0,-1.7967,-1.8537,0.0,0.0,0.0,0.0,0.0,0.0,0.0,0.0,-1.9869,-1.9858,-1.9755,-1.9726,-1.9738,-1.9869,-1.989,-1.9821,-1.9834,-1.9794,-1.9694,-1.9845,-1.9917,0.0,0.0,0.0,0.0,0.0,0.0,0.0,0.0,0.0,0.0,0.0,0.0,0.0,0.0,0.0,0.0,0.0,0.0,0.0,0.0,0.0,0.0,0.0,-1.2337,0.0,0.0,0.0,0.0,0.0,0.0,0.0,0.0,0.0,-1.1952,-1.2124,-1.248,-1.2672,-1.2775,-1.2527,-1.1741,0.0,0.0,0.0,0.0,0.0,0.0,0.0,-0.8214,-0.7353,-0.7038,-0.6678,-0.5993,-0.5449,-0.4928,-0.4427,0.0,0.0,-0.0981,-0.0626,-0.0627,-0.0627,-0.0313,0.0491,0.2057,0.2998,0.3588,0.0,0.0,0.0,0.0,0.0,0.0,0.0,0.0,-1.5827,-1.5842,0.0,-1.6136,0.0,0.0,0.0,0.0,0.0,-1.6474,0.0,0.0,-1.634,-1.6313,-1.6328,-1.6644,-1.6977,-1.728,-1.7344,-1.7703,-1.8372,-1.8681,0.0,0.0,0.0,0.0,0.0,0.0,-1.9582,-1.9596,-1.9582,-1.9582,-1.9601,-1.9732,-1.9809,-1.9778,-1.9654,-1.9507,-1.932,-1.9485,-1.9592,-1.9608,-1.9775,0.0,0.0,0.0,0.0,0.0,0.0,0.0,0.0,0.0,0.0,0.0,0.0,0.0,0.0,0.0,0.0,0.0,0.0,0.0,0.0,-1.4591,0.0,0.0,0.0,0.0,0.0,0.0,0.0,0.0,0.0,0.0,-1.4418,-1.4767,-1.5437,-1.5852,0.0,0.0,0.0,0.0,-1.5023,-1.5521,-1.3693,-1.2217,-1.2195,-1.1133,-1.0088,-0.9533,0.0,0.0,-0.7196,-0.6481,-0.6041,-0.6041,-0.6496,-0.5974,-0.2605,-0.2043,-0.1917,-0.183,-0.0979,-0.0178,0.0133,0.1784,0.3318,-1.6818,0.0,0.0,0.0,0.0,-1.6039,-1.6039,-1.6136,-1.5913,-1.5814,-1.5799,-1.5913,0.0,0.0,0.0,0.0,0.0,0.0,-1.6543,-1.6328,-1.6554,-1.6528,-1.6313,-1.6885,-1.7199,-1.732,-1.7549,-1.776,-1.8001,-1.8586,-1.9052,-1.9378,0.0,0.0,0.0,0.0,-1.9291,-1.9324,-1.9361,-1.9398,-1.938,-1.9564,-1.9643,-1.9643,-1.9611,-1.9497,-1.9305,-1.9485,-1.9504,-1.9341,-1.9418,0.0,0.0,0.0,0.0,0.0,0.0,0.0,0.0,0.0,0.0,0.0,0.0,0.0,0.0,0.0,0.0,0.0,0.0,0.0,-1.5626,-1.6623,-1.6834,0.0,0.0,0.0,0.0,0.0,0.0,0.0,0.0,0.0,-1.7576,-1.6931,-1.6656,0.0,0.0,-1.68,-1.6223,-1.6238,-1.663,-1.7581,-1.6219,0.0,-1.4398,-1.3996,-1.3369,-1.2283,-1.1211,-1.0203,-0.9319,-0.8751,-0.8383,-0.8383,-0.7957,-0.7085,-0.5854,-0.4808,-0.4049,-0.3293,-0.2802,-0.2176,-0.1065,0.0178,0.1202,-1.8283,-1.7312,-1.6772,-1.6653,-1.6846,-1.6623,-1.6653,-1.6846,-1.6668,-1.6398,-1.6144,-1.6159,-1.614,-1.608,-1.587,0.0,0.0,0.0,-1.666,-1.6478,-1.7093,-1.723,-1.7104,-1.7631,-1.7896,-1.7938,-1.8269,-1.8434,-1.8458,-1.9058,-1.9495,-1.9776,0.0,0.0,-2.0129,-2.0205,-2.0225,-2.0225,-2.0262,-2.0296,-2.0296,-2.0276,-2.0276,-2.0257,-1.9868,-1.9591,-1.9467,-1.9285,-1.9173,-1.9111,-1.9056,-1.9056,0.0,0.0,0.0,0.0,0.0,0.0,0.0,0.0,0.0,0.0,0.0,-1.8066,-1.7926,0.0,0.0,0.0,-1.7349,-1.7399,-1.7737,-1.8477,0.0,0.0,0.0,0.0,0.0,0.0,0.0,-1.8667,-1.9161,-1.9488,-1.9476,-1.8798,-1.8282,-1.8198,-1.8175,-1.7982,-1.7569,0.0,-1.8055,-1.8958,-1.781,-1.6713,-1.6265,-1.5879,-1.5264,-1.4165,-1.3391,-1.2576,-1.1827,-1.1049,-1.0474,-1.0333,-0.9511,-0.8544,-0.8041,-0.7356,-0.6319,-0.4648,-0.4128,-0.3591,-0.239,-0.1774,-0.1154,-2.0423,-1.9735,-1.8553,-1.7921,-1.7772,-1.7772,-1.7742,-1.7682,-1.7682,-1.7354,-1.677,-1.677,-1.6458,-1.5963,-1.5948,0.0,-1.5978,-1.6517,-1.6801,-1.6801,-1.7746,-1.8192,-1.8207,-1.8616,-1.8795,-1.8779,-1.9207,-1.9372,-1.9372,-1.9855,-2.0212,-2.0405,-2.085,-2.1096,-2.1231,-2.1516,-2.1697,-2.1679,-2.1696,-2.175,-2.1767,-2.1516,-2.1329,-2.133,-2.035,-1.9829,-1.981,-1.9149,-1.8838,-1.9022,-1.8787,-1.8788,-1.9075,0.0,0.0,0.0,0.0,0.0,0.0,0.0,0.0,0.0,0.0,0.0,0.0,0.0,0.0,0.0,-1.9426,0.0,-2.0215,-1.9992,0.0,0.0,0.0,-1.9243,-1.9206,-1.9571,-1.982,-1.9757,0.0,0.0,-2.0392,-2.0296,-2.0018,-1.9536,-1.9263,-1.8971,-1.8709,-1.8871,-1.9254,-1.973,-1.8716,-1.7901,-1.779,-1.7137,-1.6346,-1.5587,-1.5403,-1.5058,-1.4258,-1.322,-1.2423,-1.2321,-1.1228,-1.0185,-0.9702,-0.9506,-0.8713,-0.6174,-0.525,-0.4682,-0.3974,-0.3679,-0.3199,-2.1365,-2.1201,-2.0887,-1.9884,-1.8493,-1.8478,-1.8194,-1.7697,-1.7682,-1.7608,-1.7458,-1.7458,-1.7369,-1.7234,-1.7266,-1.7251,-1.7266,-1.7399,-1.7458,-1.749,-1.7975,-1.8192,-1.8192,-1.8602,-1.8795,-1.8824,-1.9223,-1.9251,-1.9029,-2.0267,-2.0767,-2.0527,-2.1687,-2.169,-2.0673,-2.0688,-2.0732,-2.0714,-2.1191,-2.1534,-2.1785,-2.1715,-2.1661,-2.1679,-2.1184,-2.093,-2.0904,-2.0512,-1.9965,-1.9262,-1.9164,-1.8822,-1.8187,-1.8258,0.0,0.0,0.0,0.0,0.0,0.0,0.0,0.0,0.0,-2.0257,-1.9967,0.0,-2.0019,0.0,-2.0066,-2.0143,-1.9941,-1.9977,0.0,0.0,-1.9798,-1.9884,-2.0185,-2.0144,-2.0129,-2.0231,-2.0341,-2.0386,-2.0386,-2.0366,-2.0273,-2.0091,-1.9892,-1.9662,-1.9413,-1.9577,-1.9845,-2.002,-1.9769,-1.936,-1.9107,-1.8683,-1.8072,-1.725,-1.712,-1.6743,-1.566,-1.495,-1.441,-1.4142,-1.3124,-1.2128,-1.1599,-1.0978,-1.0128,-0.8665,-0.7369,-0.6259,-0.5604,-0.4933,-0.4208,-2.2298,-2.2491,-2.2241,-2.1499,-2.0453,-2.0168,-1.9824,-1.9495,-1.9495,-1.9331,-1.9016,-1.8403,-1.7966,-1.7697,-1.7682,-1.7682,-1.7712,-1.7996,-1.8149,-1.8164,-1.8634,-1.8873,-1.8873,-1.91,-1.9182,-1.9229,-1.9609,-1.9701,-1.9562,-2.075,-2.1254,-2.1019,-2.2017,-2.2089,-2.1293,-2.1489,-2.1657,-2.1657,-2.1998,-2.2234,-2.2413,-2.2293,-2.2273,-2.2413,-2.165,-2.1307,-2.1419,-2.08,-2.024,-1.9803,-1.9676,-1.9412,-1.8979,-1.8659,-1.8559,0.0,0.0,0.0,0.0,0.0,0.0,0.0,0.0,0.0,0.0,0.0,-1.9985,-2.0005,-2.0172,-2.016,-1.9943,-2.0112,-2.0211,-2.0191,-2.0137,-2.0231,-2.0482,-2.038,-2.0305,-2.0363,-2.0384,-2.039,-2.0409,-2.0742,-2.0976,-2.0937,-2.1151,-2.0998,-2.0188,-2.0352,-2.0746,-2.0959,-2.1116,-2.113,-2.0857,-2.069,-2.036,-1.9801,-1.9641,-1.9344,-1.8466,-1.7798,-1.7274,-1.6877,-1.598,-1.5061,-1.4393,-1.3584,-1.2726,-1.1872,-1.0554,-0.9006,-0.7461,-0.6458,-0.5754,-2.3245,-2.3686,-2.3053,-2.279,-2.2783,-2.2188,-2.1844,-2.1695,-2.1695,-2.138,-2.0767,-1.96,-1.8762,-1.8205,-1.8205,-1.8205,-1.8235,-1.8732,-1.8957,-1.8986,-1.9465,-1.9705,-1.9705,-1.969,-1.9705,-1.9726,-2.0124,-2.028,-2.0246,-2.1149,-2.1582,-2.1552,-2.2032,-2.2327,-2.2338,-2.2824,-2.3111,-2.3141,-2.3141,-2.3165,-2.3189,-2.2905,-2.288,-2.3147,-2.2024,-2.1497,-2.1707,-2.0798,-2.0365,-2.0467,-2.0271,-2.0212,-2.0336,-1.9505,-1.9148,0.0,-1.8827,0.0,0.0,0.0,0.0,0.0,0.0,0.0,0.0,-1.9571,-1.9699,-1.9909,-2.0019,-2.0095,-2.0106,-2.0282,-2.0389,-2.0396,-2.039,-2.0383,-2.039,-2.0387,-2.0422,-2.0479,-2.0536,-2.0579,-2.0817,-2.1401,-2.1861,-2.189,-2.2384,-2.2299,-2.1128,-2.1301,-2.1787,-2.2097,-2.2474,-2.2483,-2.24,-2.2441,-2.2334,-2.2161,-2.2007,-2.1995,-2.1311,-2.0702,-2.0157,-1.9644,-1.8835,-1.8103,-1.7486,-1.6541,-1.5728,-1.5108,-1.3843,-1.2016,-0.9581,-0.8378,-0.7767,-2.4298,-2.4388,-2.3688,-2.3434,-2.3415,-2.3295,-2.2652,-2.1695,-2.1695,-2.1635,-2.15,-2.1246,-2.1051,-2.0932,-2.0932,-2.0946,-2.0917,-2.0513,-2.0333,-2.0318,-1.9884,-1.9705,-1.9705,-1.9705,-1.9705,-1.9726,-2.0124,-2.0108,-1.9839,-2.1039,-2.143,-2.115,-2.1915,-2.2327,-2.231,0.0,0.0,0.0,-2.2797,-2.2923,-2.3189,-2.3141,-2.3159,-2.3189,-2.2691,0.0,-2.247,-2.2085,-2.1617,-2.1087,-2.101,0.0,0.0,0.0,0.0,0.0,0.0,0.0,0.0,0.0,0.0,0.0,-1.8956,-1.8985,-1.925,-1.9456,-1.9738,-2.002,-2.0041,-2.0084,-2.0248,-2.0304,-2.0331,-2.0312,-2.0323,-2.0313,-2.0301,-2.0397,-2.0648,-2.1369,-2.1463,-2.1718,-2.2339,-2.2659,-2.2728,-2.2681,-2.2824,-2.2784,-2.2427,-2.2552,-2.2724,-2.2817,-2.2935,-2.2888,-2.2825,-2.2877,-2.2913,-2.2633,-2.262,-2.2496,-2.213,-2.1921,-2.1549,-2.1051,-2.0276,-1.9706,-1.9336,-1.8427,-1.7624,-1.707,-1.5951,-1.4221,-1.1659,-1.0646,-0.9958,-2.4596,0.0,-2.3869,-2.3382,0.0,-2.3094,-2.2548,-2.1729,-2.206,-2.2027,-2.1733,-2.2051,-2.1994,-2.1695,-2.1695,-2.1695,-2.168,-2.135,-2.1201,-2.1171,-2.0842,-2.0677,-2.0677,-2.0333,-2.0198,-2.0168,-2.0061,-1.9909,-1.9747,-2.055,-2.0862,-2.0682,-2.1507,-2.1957,-2.1957,-2.2163,-2.236,-2.25,-2.25,-2.2563,-2.2747,-2.2747,-2.2832,-2.2947,-2.2669,0.0,0.0,0.0,0.0,0.0,0.0,0.0,0.0,-2.0788,0.0,-2.0772,-2.0413,-2.013,-1.9935,-1.8853,-1.8599,-1.9515,-1.9546,-1.9417,-1.9277,-1.9361,-1.9509,-1.9688,-1.975,-1.9843,-1.9947,-2.0001,-2.0117,-2.0298,-2.0584,-2.0955,-2.1438,-2.1562,-2.1754,-2.213,-2.2237,-2.2438,-2.2859,-2.3218,-2.3419,-2.3496,-2.37,-2.3824,-2.3858,-2.3669,-2.365,-2.4101,-2.4171,-2.4154,-2.418,-2.4189,-2.413,-2.4082,-2.4107,-2.3989,-2.3653,-2.3613,-2.3466,-2.2921,-2.2482,-2.211,-2.164,-2.0797,-2.0014,-1.9621,-1.8637,-1.7213,-1.5257,-1.3362,-1.1836,-2.4576,-2.4426,-2.3835,-2.3234,-2.2765,-2.2765,-2.2393,-2.191,0.0,0.0,0.0,-2.2479,-2.245,-2.2039,-2.2039,-2.2039,-2.2024,-2.1919,-2.1874,-2.1859,-2.1739,-2.1695,-2.1665,-2.1156,-2.0887,-2.0857,-2.0303,-2.0034,-2.007,-2.0457,-2.0686,-2.0705,-2.1456,-2.1853,-2.1884,-2.2328,-2.2567,-2.2534,-2.2372,-2.2327,-2.2327,-2.2327,-2.2415,-2.2608,-2.2426,-2.2398,-2.2625,-2.2426,-2.2265,-2.218,-2.2237,-2.2254,-2.2163,-2.1674,-2.1407,-2.1363,-2.0771,-2.0365,-2.0204,-1.921,-1.911,-2.0314,-2.0446,-2.0213,-1.9623,-1.9632,-1.968,-1.9776,-1.9926,-2.0043,-2.0065,-2.0164,-2.0285,-2.047,-2.1064,-2.1814,-2.2652,-2.2662,-2.2575,-2.2863,-2.2882,-2.2968,-2.3208,-2.3667,-2.4045,-2.423,-2.4468,-2.4847,-2.4873,-2.4514,-2.4455,-2.5003,-2.512,-2.5322,-2.5418,-2.537,-2.5459,-2.527,-2.5356,-2.541,-2.5239,-2.5195,-2.5041,-2.4484,-2.4531,-2.4238,-2.3749,-2.297,-2.2476,-2.2287,-2.1201,-2.0017,-1.8961,-1.6453,-1.439,-2.4426,-2.4332,-2.3716,-2.3351,-2.3269,-2.3269,-2.2977,-2.2421,-2.2041,-2.2104,-2.2579,-2.2669,-2.2922,-2.3325,-2.3325,-2.3325,-2.3295,-2.2787,-2.2574,-2.2517,-2.1964,-2.1695,-2.1695,-2.1605,-2.156,-2.156,-2.1455,-2.141,-2.1488,-2.1797,-2.2022,-2.2044,-2.2548,-2.278,-2.2831,-2.3275,-2.3489,-2.3505,-2.2698,-2.2327,-2.2327,-2.2327,-2.2293,-2.2332,-2.2321,-2.231,-2.2349,-2.2338,-2.2106,-2.1748,-2.2077,-2.2106,-2.1718,-2.196,-2.2158,-2.2141,-2.2057,-2.1701,-2.1075,-2.1402,-2.1756,-2.1895,-2.1223,-2.0739,-2.0672,-2.0872,-2.117,-2.1559,-2.1551,-2.1712,-2.1802,-2.1787,-2.158,-2.1279,-2.1714,-2.2312,-2.2868,-2.2357,-2.2325,-2.3303,-2.3283,-2.3593,-2.4276,-2.4539,-2.4582,-2.4685,-2.47,-2.4804,-2.4795,-2.4879,-2.4927,-2.5057,-2.5222,-2.5322,-2.5321,-2.538,-2.537,-2.5407,-2.5459,-2.546,-2.5347,-2.5391,-2.5303,-2.5033,-2.5001,-2.4919,-2.4596,-2.4329,-2.3987,-2.3768,-2.2709,-2.1704,-2.138,-1.9861,-1.8165,-2.4696,-2.4336,-2.4025,-2.3442,-2.2808,-2.2507,-2.2219,-2.1957,-2.1734,-2.179,-2.2221,-2.2875,-2.3143,-2.3143,-2.3465,-2.3595,-2.358,-2.3295,-2.3161,-2.3161,-2.2862,-2.2727,-2.2682,-2.2398,-2.2218,-2.2203,-2.1859,-2.1695,-2.1719,-2.1901,-2.1979,-2.2017,-2.2406,-2.2739,-2.2992,-2.3224,-2.3347,-2.3315,-2.3048,-2.2919,-2.2902,-2.2513,-2.2327,-2.2327,-2.204,-2.204,-2.2282,-2.2057,-2.1922,-2.1957,-2.2163,-2.2077,-2.1658,-2.1823,-2.1811,-2.1615,-2.1811,-2.1778,-2.1444,-2.1961,-2.23,-2.2297,-2.1876,-2.1683,-2.1849,-2.1344,-2.1193,-2.1588,-2.1606,-2.1728,-2.1959,-2.199,-2.1968,-2.201,-2.2484,-2.3078,-2.3649,-2.3611,-2.363,-2.4077,-2.4096,-2.4209,-2.4747,-2.47,-2.4685,-2.476,-2.4716,-2.4607,-2.4512,-2.462,-2.478,-2.4858,-2.4975,-2.5031,-2.5043,-2.5115,-2.5179,-2.5179,-2.5339,-2.5427,-2.5401,-2.5471,-2.5418,-2.5293,-2.5314,-2.5257,-2.5029,-2.4908,-2.479,-2.4576,-2.4029,-2.3345,-2.2924,-2.2045,-2.0576,-2.4553,-2.4073,-2.4002,-2.3405,-2.2472,-2.2033,-2.1895,-2.1893,-2.1937,-2.1876,-2.2013,-2.293,-2.3071,-2.2772,-2.3303,-2.3511,-2.3436,-2.3551,-2.3595,-2.3595,-2.3595,-2.3595,-2.355,-2.3086,-2.2877,-2.2832,-2.2353,-2.2128,-2.2128,-2.2128,-2.2128,-2.2154,-2.2443,-2.2779,-2.3105,-2.3232,-2.3307,-2.3333,-2.3473,-2.3477,-2.3293,-2.2728,-2.2408,-2.2341,-2.202,-2.1994,-2.2265,-2.1967,-2.1848,-2.201,-2.2065,-2.1844,-2.1352,-2.1383,-2.1337,-2.1071,-2.129,-2.1554,-2.1757,-2.2007,-2.218,-2.2327,-2.2327,-2.2371,-2.2487,-2.1739,-2.1304,-2.167,-2.1824,-2.1886,-2.2134,-2.2154,-2.2301,-2.279,-2.3169,-2.3659,-2.4361,-2.4651,-2.4726,-2.467,-2.4561,-2.4526,-2.462,-2.4526,-2.4442,-2.4472,-2.4424,-2.4266,-2.4134,-2.4229,-2.4389,-2.4607,-2.4731,-2.4818,-2.4804,-2.4896,-2.4937,-2.4949,-2.5122,-2.5239,-2.5292,-2.5351,-2.5388,-2.5315,-2.541,-2.5367,-2.5186,-2.5182,-2.5143,-2.4983,-2.4671,-2.4372,-2.3886,-2.34,-2.2205,-2.3305,-2.3245,-2.3245,-2.3173,-2.3037,-2.2915,-2.3,-2.3076,-2.3119,-2.2834,-2.2392,-2.2472,-2.2569,-2.272,-2.3245,-2.3256,-2.2917,-2.3334,-2.3581,-2.3581,-2.3595,-2.3595,-2.3595,-2.352,-2.352,-2.3475,-2.3385,-2.331,-2.331,-2.3355,-2.34,-2.343,-2.3458,-2.3456,-2.3583,-2.401,-2.4253,-2.4269,-2.4115,-2.3735,-2.3074,-2.2975,-2.2828,-2.2585,-2.2536,-2.2424,-2.2372,-2.2237,-2.1886,-2.1236,-2.1356,-2.1151,-2.0565,-2.0813,-2.1039,-2.0991,-2.1023,-2.1405,-2.2082,-2.19,-2.1853,-2.2254,-2.2282,-2.231,-2.2349,-2.2241,-2.2401,-2.2788,-2.2946,-2.2939,-2.3051,-2.3026,-2.3124,-2.3397,-2.356,-2.3823,-2.4118,-2.4247,-2.4266,-2.4266,-2.4229,-2.4247,-2.4266,-2.4247,-2.4114,-2.3885,-2.3844,-2.3801,-2.3756,-2.3777,-2.3901,-2.421,-2.4526,-2.4746,-2.4775,-2.4785,-2.4799,-2.4814,-2.4847,-2.4961,-2.5037,-2.5113,-2.5139,-2.5165,-2.5292,-2.531,-2.5229,-2.5246,-2.5351,-2.5252,-2.5088,-2.4891,-2.4537,-2.4312,-2.3364,-2.3125,-2.3125,-2.3125,-2.3125,-2.3125,-2.3125,-2.3119,-2.3198,-2.3198,-2.3058,-2.2866,-2.2783,-2.2721,-2.2535,-2.3124,-2.3336,-2.3126,-2.3342,-2.3478,-2.3562,-2.3518,-2.3555,-2.3581,-2.3595,-2.3595,-2.3595,-2.3595,-2.3595,-2.3595,-2.3595,-2.3595,-2.3595,-2.3595,-2.3595,-2.3595,-2.3837,-2.3906,-2.3891,-2.3856,-2.3661,-2.3363,-2.3148,-2.2955,-2.2824,-2.2572,-2.2654,-2.3007,-2.2476,-2.2052,-2.1924,-2.1328,-2.0732,-2.0314,-2.0483,-2.0465,-2.0277,-2.0465,-2.0861,-2.1454,-2.1556,-2.1688,-2.1899,-2.2135,-2.2327,-2.2327,-2.2327,-2.2432,-2.2651,-2.2807,-2.2972,-2.3165,-2.3351,-2.3477,-2.3477,-2.3574,-2.3699,-2.3592,-2.3739,-2.3801,-2.3876,-2.3842,-2.3903,-2.4095,-2.4016,-2.3774,-2.3482,-2.3392,-2.3392,-2.3414,-2.3392,-2.3459,-2.361,-2.3906,-2.4211,-2.4391,-2.4561,-2.4626,-2.4639,-2.4731,-2.4828,-2.4864,-2.4905,-2.4929,-2.4921,-2.5036,-2.508,-2.4962,-2.5136,-2.5286,-2.5255,-2.5325,-2.5201,-2.5001,-2.5013,-2.4394,-2.3125,-2.3125,-2.3125,-2.3125,-2.3125,-2.3125,-2.3125,-2.3125,-2.3125,-2.3125,-2.3125,-2.3125,-2.2921,-2.2678,-2.3152,-2.3309,-2.3146,-2.3303,-2.3515,-2.3726,-2.3746,-2.3894,-2.4119,-2.4148,-2.4059,-2.3909,-2.3894,-2.3789,-2.3625,-2.3595,-2.3595,-2.3595,-2.3595,-2.3595,-2.3595,-2.3595,-2.3595,-2.3595,-2.3595,-2.3595,-2.3531,-2.3302,-2.3136,-2.308,-2.275,-2.2868,-2.3435,-2.2885,-2.2508,-2.2579,-2.1374,-2.0634,-2.0435,-2.0231,-2.0,-1.9747,-1.9965,-2.033,-2.0764,-2.1102,-2.129,-2.143,-2.1781,-2.202,-2.2061,-2.2106,-2.2163,-2.2321,-2.249,-2.2704,-2.295,-2.3175,-2.3206,-2.3069,-2.3307,-2.3342,-2.3248,-2.3301,-2.344,-2.3649,-2.3623,-2.3627,-2.3901,-2.3756,-2.3437,-2.3141,-2.3069,-2.3069,-2.3069,-2.3069,-2.3093,-2.3206,-2.3437,-2.3692,-2.4016,-2.4266,-2.4374,-2.4391,-2.4474,-2.4489,-2.4636,-2.4681,-2.4686,-2.4657,-2.4724,-2.476,-2.4747,-2.4917,-2.5097,-2.51,-2.5166,-2.5245,-2.5203,-2.5306,-2.5208,-2.3125,-2.3125,-2.3125,-2.3125,-2.3125,-2.3125,-2.3125,-2.3125,-2.3125,-2.3125,-2.3125,-2.3125,-2.31,-2.3081,-2.3228,-2.2984,-2.2616,-2.3122,-2.3756,-2.4326,-2.439,-2.483,-2.5478,-2.551,-2.5166,-2.4597,-2.4582,-2.4268,-2.3684,-2.3595,-2.3595,-2.3595,-2.3595,-2.3595,-2.3595,-2.3595,-2.3595,-2.3595,-2.3595,-2.3595,-2.3595,-2.3548,-2.3466,-2.331,-2.3242,-2.3179,-2.3211,-2.3703,-2.3544,-2.2382,-2.15,-2.0918,-2.067,-2.0137,-1.9807,-1.9756,-1.9726,-1.9909,-2.028,-2.0416,-2.0583,-2.0943,-2.1118,-2.126,-2.1582,-2.1658,-2.1794,-2.2237,-2.2248,-2.2304,-2.236,-2.2504,-2.2605,-2.2704,-2.2743,-2.292,-2.3153,-2.2981,-2.3199,-2.353,-2.3538,-2.352,-2.3692,-2.3437,-2.3093,-2.2822,-2.2738,-2.2721,-2.2721,-2.2721,-2.2848,-2.3063,-2.3189,-2.3323,-2.3671,-2.3899,-2.4095,-2.4096,-2.3963,-2.3925,-2.4137,-2.4317,-2.4336,-2.4408,-2.4503,-2.4557,-2.4564,-2.4648,-2.4799,-2.4879,-2.493,-2.4996,-2.5114,-2.5167,-2.513,-2.3125,-2.3125,-2.3125,-2.3125,-2.3125,-2.3125,-2.3125,-2.3125,-2.3125,-2.3125,-2.3125,-2.3125,-2.3125,-2.3125,-2.3149,-2.3063,-2.2859,-2.309,-2.3643,-2.4365,-2.4441,-2.4855,-2.5521,-2.56,-2.551,-2.53,-2.5241,-2.4911,-2.4268,-2.3834,-2.3595,-2.3595,-2.3595,-2.3595,-2.3595,-2.3595,-2.3595,-2.3595,-2.3595,-2.3595,-2.3595,-2.3595,-2.3546,-2.3504,-2.3489,-2.3599,-2.3896,-2.3844,-2.355,-2.2993,-2.2234,-2.1663,-2.1321,-2.0707,-2.0348,-2.0303,-1.9929,-1.9782,-1.9909,-2.0158,-2.0382,-2.055,-2.0829,-2.1023,-2.1181,-2.1213,-2.1291,-2.1493,-2.1735,-2.1823,-2.1945,-2.2252,-2.2513,-2.2494,-2.2586,-2.2681,-2.264,-2.2573,-2.2669,-2.2996,-2.3177,-2.3264,-2.3159,-2.2989,-2.2764,-2.25,-2.2453,-2.2436,-2.2436,-2.2453,-2.2517,-2.2634,-2.2781,-2.2905,-2.3003,-2.3328,-2.3544,-2.3544,-2.3482,-2.3464,-2.3599,-2.3663,-2.3663,-2.3925,-2.4115,-2.4229,-2.4192,-2.4355,-2.45,-2.4674,-2.4731,-2.4629,-2.493,-2.4848,-2.4979,-2.3125,-2.3125,-2.3125,-2.3125,-2.3125,-2.3125,-2.3125,-2.3125,-2.3125,-2.3125,-2.3125,-2.3125,-2.3125,-2.3125,-2.3125,-2.3125,-2.3125,-2.3125,-2.3548,-2.4354,-2.4381,-2.4808,-2.5473,-2.5776,-2.5771,-2.5597,-2.5595,-2.527,-2.4597,-2.4163,-2.3834,-2.361,-2.3595,-2.3595,-2.3595,-2.3595,-2.3595,-2.3595,-2.3595,-2.3595,-2.3595,-2.3595,-2.3595,-2.3595,-2.3595,-2.3728,-2.4126,-2.3791,-2.3556,-2.3385,-2.2795,-2.2204,-2.1734,-2.1276,-2.1021,-2.0976,-2.0602,-2.0228,-2.007,-2.0263,-2.0334,-2.0154,-2.0348,-2.0599,-2.0715,-2.0781,-2.0829,-2.1023,-2.1213,-2.1399,-2.1521,-2.1849,-2.2169,-2.2248,-2.2457,-2.2491,-2.2344,-2.2327,-2.2436,-2.2686,-2.2905,-2.2923,-2.2781,-2.2669,-2.2517,-2.231,-2.2327,-2.2327,-2.2327,-2.2327,-2.2327,-2.231,-2.2463,-2.2563,-2.2599,-2.2807,-2.3159,-2.3183,-2.3111,-2.3087,-2.3111,-2.3087,-2.3141,-2.3414,-2.361,-2.3735,-2.3881,-2.404,-2.421,-2.4402,-2.4209,-2.4026,-2.4258,-2.4473,-2.4554,-2.3125,-2.3125,-2.3125,-2.3125,-2.3125,-2.3125,-2.3125,-2.3125,-2.3125,-2.3125,-2.3125,-2.3125,-2.3125,-2.3125,-2.3125,-2.3125,-2.3125,-2.3125,-2.3505,-2.4257,-2.4315,-2.4714,-2.5411,-2.603,-2.6073,-2.5618,-2.5579,-2.5284,-2.4791,-2.4567,-2.4238,-2.3744,-2.3625,-2.3595,-2.3595,-2.3595,-2.3595,-2.3595,-2.3595,-2.3595,-2.3595,-2.3595,-2.3595,-2.3595,-2.3595,-2.361,-2.3625,-2.3638,-2.3608,-2.352,-2.3041,-2.2383,-2.1949,-2.1739,-2.171,-2.1695,-2.1635,-2.1321,-2.0812,-2.0707,-2.0512,-2.0122,-1.9882,-2.0178,-2.0381,-2.0438,-2.0527,-2.078,-2.0926,-2.0991,-2.0974,-2.1131,-2.1444,-2.2091,-2.2209,-2.2248,-2.2254,-2.2282,-2.2415,-2.2625,-2.2712,-2.2695,-2.2634,-2.25,-2.2349,-2.231,-2.2327,-2.2327,-2.2327,-2.2327,-2.2327,-2.2327,-2.2321,-2.2371,-2.2332,-2.2321,-2.2643,-2.289,-2.2789,-2.2755,-2.2857,-2.2883,-2.2797,-2.2979,-2.313,-2.327,-2.3566,-2.3699,-2.3656,-2.3728,-2.3516,-2.3498,-2.3694,-2.3933,-2.4081,-2.3125,-2.3125,-2.3125,-2.3125,-2.3125,-2.3125,-2.3125,-2.3125,-2.3125,-2.3125,-2.3125,-2.3125,-2.3125,-2.3125,-2.3125,-2.3125,-2.3125,-2.3138,-2.3543,-2.4176,-2.4279,-2.4681,-2.5287,-2.5618,-2.5901,-2.6069,-2.5749,-2.5703,-2.5729,-2.503,-2.4492,-2.4268,-2.3819,-2.361,-2.3595,-2.3595,-2.3595,-2.3595,-2.3595,-2.3595,-2.3595,-2.3595,-2.3595,-2.3595,-2.3595,-2.3595,-2.3595,-2.3595,-2.3595,-2.3595,-2.3415,-2.3206,-2.2981,-2.2607,-2.2424,-2.2323,-2.1919,-2.165,-2.1455,-2.1395,-2.1321,-2.1096,-2.1036,-2.085,-2.0624,-2.0585,-2.0446,-2.0292,-2.033,-2.0516,-2.0552,-2.0815,-2.1146,-2.1385,-2.1657,-2.1819,-2.1866,-2.2077,-2.2321,-2.2415,-2.2426,-2.2426,-2.2398,-2.2293,-2.231,-2.2282,-2.2282,-2.2282,-2.2282,-2.2225,-2.2327,-2.2327,-2.2282,-2.2106,-2.2003,-2.1869,-2.1965,-2.2224,-2.2286,-2.2358,-2.2493,-2.252,-2.2502,-2.2468,-2.26,-2.2853,-2.3147,-2.3277,-2.323,-2.3236,-2.3241,-2.327,-2.3315,-2.3392,-2.3473,-2.3125,-2.3125,-2.3125,-2.3125,-2.3125,-2.3125,-2.3125,-2.3125,-2.3125,-2.3125,-2.3125,-2.3125,-2.3125,-2.3125,-2.3125,-2.3125,-2.3125,-2.3125,-2.3365,-2.3826,-2.3826,-2.4105,-2.4553,-2.4894,-2.5398,-2.5943,-2.5921,-2.5966,-2.612,-2.5622,-2.5075,-2.4567,-2.4193,-2.3834,-2.3625,-2.3595,-2.3595,-2.3595,-2.3595,-2.3595,-2.3595,-2.3595,-2.3595,-2.3595,-2.3595,-2.3595,-2.3595,-2.3595,-2.3595,-2.3595,-2.3595,-2.3595,-2.3565,-2.3221,-2.3053,-2.2936,-2.2652,-2.2338,-2.2128,-2.2077,-2.1943,-2.1799,-2.1695,-2.153,-2.1156,-2.1081,-2.0842,-2.0603,-2.0697,-2.0834,-2.0906,-2.1078,-2.1142,-2.092,-2.1182,-2.1339,-2.1417,-2.1615,-2.1781,-2.1794,-2.1928,-2.2003,-2.2032,-2.2237,-2.2282,-2.2282,-2.2135,-2.2032,-2.2003,-2.1886,-2.1915,-2.1915,-2.1781,-2.1675,-2.1628,-2.146,-2.1306,-2.1491,-2.1672,-2.1849,-2.2039,-2.2039,-2.2022,-2.1874,-2.1893,-2.2255,-2.2583,-2.2755,-2.2773,-2.2865,-2.288,-2.2721,-2.2626,-2.2694,-2.2775,-2.3226,-2.3188,-2.3188,-2.3188,-2.3138,-2.3125,-2.3125,-2.3125,-2.3125,-2.3125,-2.3125,-2.3125,-2.3125,-2.3125,-2.3125,-2.3125,-2.3125,-2.3125,-2.3125,-2.3185,-2.3185,-2.3305,-2.3412,-2.393,-2.461,-2.5329,-2.5903,-2.5954,-2.5652,-2.6012,-2.5926,-2.4787,-2.4671,-2.4313,-2.3878,-2.3655,-2.3684,-2.361,-2.3595,-2.3595,-2.3595,-2.3595,-2.3595,-2.3595,-2.3595,-2.3595,-2.3595,-2.3595,-2.3595,-2.3595,-2.3595,-2.3595,-2.3595,-2.3595,-2.3535,-2.3505,-2.3565,-2.3221,-2.2864,-2.2723,-2.2518,-2.2058,-2.2009,-2.1769,-2.1784,-2.1739,-2.165,-2.1485,-2.1524,-2.1624,-2.1579,-2.162,-2.1386,-2.0941,-2.0926,-2.0973,-2.1006,-2.1071,-2.1166,-2.115,-2.1337,-2.1552,-2.1598,-2.1928,-2.2135,-2.2077,-2.184,-2.1718,-2.1475,-2.1366,-2.1259,-2.1259,-2.1274,-2.1244,-2.1165,-2.1039,-2.0846,-2.0764,-2.1023,-2.1306,-2.1491,-2.1507,-2.1538,-2.1383,-2.1305,-2.1635,-2.1915,-2.2062,-2.2275,-2.2405,-2.2313,-2.2044,-2.201,-2.2141,-2.2079,-2.4142,-2.3791,-2.3778,-2.3527,-2.3163,-2.3125,-2.3138,-2.3125,-2.3125,-2.3125,-2.3125,-2.3125,-2.3125,-2.3125,-2.3125,-2.3125,-2.3125,-2.3125,-2.3125,-2.3125,-2.3125,-2.3125,-2.3125,-2.3305,-2.3826,-2.4567,-2.4894,-2.5037,-2.5448,-2.5724,-2.561,-2.529,-2.5213,-2.4987,-2.4413,-2.4312,-2.4059,-2.367,-2.3595,-2.3595,-2.3595,-2.3595,-2.3595,-2.3595,-2.3595,-2.3595,-2.3595,-2.3595,-2.3595,-2.3595,-2.3595,-2.3595,-2.3595,-2.3595,-2.3595,-2.3595,-2.3595,-2.355,-2.3415,-2.3357,-2.3253,-2.3161,-2.2966,-2.2906,-2.2484,-2.2413,-2.2173,-2.1859,-2.1695,-2.1739,-2.1724,-2.1744,-2.1605,-2.1436,-2.1007,-2.0708,-2.0955,-2.1007,-2.1007,-2.1023,-2.1103,-2.1134,-2.1244,-2.1477,-2.1705,-2.1507,-2.143,-2.1413,-2.1101,-2.0943,-2.0878,-2.0863,-2.0879,-2.0814,-2.0715,-2.0583,-2.0398,-2.0139,-2.0345,-2.0748,-2.0846,-2.091,-2.0959,-2.0959,-2.0797,-2.1022,-2.118,-2.1321,-2.1579,-2.1931,-2.1832,-2.1675,-2.1658,-2.1728,-2.1549,-2.4632,-2.4343,-2.4343,-2.4017,-2.3527,-2.3502,-2.3303,-2.3163,-2.3125,-2.3125,-2.3125,-2.3125,-2.3125,-2.3125,-2.3125,-2.3125,-2.3125,-2.3125,-2.3125,-2.3125,-2.3125,-2.3125,-2.3125,-2.3125,-2.3365,-2.3767,-2.4176,-2.4496,-2.4939,-2.5282,-2.5321,-2.51,-2.5371,-2.5198,-2.4582,-2.4582,-2.4432,-2.404,-2.3786,-2.3595,-2.3595,-2.3595,-2.3595,-2.3595,-2.3595,-2.3595,-2.3566,-2.3364,-2.3334,-2.3509,-2.3595,-2.3595,-2.3595,-2.3595,-2.3595,-2.3595,-2.3595,-2.3595,-2.3595,-2.3595,-2.3595,-2.358,-2.3595,-2.3445,-2.3146,-2.3056,-2.2832,-2.2622,-2.2503,-2.2488,-2.2458,-2.2286,-2.2117,-2.2043,-2.1377,-2.1029,-2.1284,-2.1066,-2.0879,-2.0855,-2.0787,-2.0698,-2.0731,-2.1086,-2.1181,-2.1086,-2.1007,-2.0862,-2.0699,-2.0583,-2.0485,-2.0473,-2.044,-2.0351,-2.0348,-2.0246,-2.0174,-1.9889,-1.9925,-2.0277,-2.0398,-2.0431,-2.0431,-2.0465,-2.0348,-2.0348,-2.0583,-2.0829,-2.1165,-2.1383,-2.1337,-2.1275,-2.1197,-2.1149,-2.0975,-2.4958,-2.4895,-2.4908,-2.4544,-2.4017,-2.3979,-2.3627,-2.3128,-2.3125,-2.3125,-2.3125,-2.3125,-2.3125,-2.3125,-2.3125,-2.3125,-2.3125,-2.3125,-2.3125,-2.3125,-2.3125,-2.3125,-2.3125,-2.3125,-2.3138,-2.3305,-2.3884,-2.406,-2.431,-2.4854,-2.4929,-2.4749,-2.5166,-2.5149,-2.4842,-2.4724,-2.4642,-2.4433,-2.3881,-2.3511,-2.3363,-2.3275,-2.3231,-2.3421,-2.3566,-2.3508,-2.3363,-2.3076,-2.2904,-2.3363,-2.345,-2.3508,-2.3508,-2.3595,-2.3508,-2.3508,-2.3508,-2.3551,-2.3508,-2.3508,-2.3595,-2.3595,-2.3595,-2.3595,-2.352,-2.349,-2.3445,-2.337,-2.358,-2.343,-2.337,-2.3056,-2.2837,-2.2695,-2.2211,-2.1964,-2.1769,-2.1261,-2.0774,-2.0767,-2.0584,-2.0362,-2.0441,-2.063,-2.0894,-2.0565,-2.0516,-2.0483,-2.033,-2.0174,-2.0028,-1.9955,-1.9913,-1.9914,-1.9929,-1.9965,-1.9874,-1.9726,-1.9762,-1.996,-2.0139,-2.0139,-2.0,-1.9965,-1.9984,-2.0054,-2.0193,-2.0465,-2.0715,-2.0878,-2.091,-2.0649,-2.0449,-2.0418,-2.0299,-2.585,-2.5435,-2.5423,-2.487,-2.4079,-2.3979,-2.3678,-2.3103,-2.3138,-2.3125,-2.3125,-2.3125,-2.3125,-2.3125,-2.3125,-2.3125,-2.3125,-2.3125,-2.3125,-2.3125,-2.3125,-2.3125,-2.3125,-2.3125,-2.3125,-2.3185,-2.3245,-2.3365,-2.359,-2.4105,-2.4456,-2.4436,-2.4902,-2.5353,-2.5236,-2.5098,-2.5005,-2.4566,-2.3956,-2.3396,-2.2861,-2.2508,-2.2466,-2.286,-2.3304,-2.3334,-2.2992,-2.2765,-2.2517,-2.2324,-2.2575,-2.3009,-2.3421,-2.3551,-2.3377,-2.3143,-2.3363,-2.3406,-2.3098,-2.326,-2.3595,-2.3551,-2.3508,-2.3595,-2.3595,-2.3551,-2.3551,-2.3595,-2.3595,-2.3595,-2.358,-2.349,-2.3344,-2.3228,-2.3137,-2.3044,-2.2996,-2.2158,-2.156,-2.1389,-2.0978,-2.0617,-2.0609,-2.0485,-2.045,-2.015,-2.007,-2.0139,-1.998,-1.9797,-1.9758,-1.9723,-1.9748,-1.9782,-1.9818,-1.9803,-1.9782,-1.9705,-1.9705,-1.9741,-1.9874,-1.9945,-1.9854,-1.9782,-1.9767,-1.9839,-1.9894,-1.9844,-2.0054,-2.0246,-2.0416,-2.0162,-1.9969,-1.9849,-1.9585,-2.6276,-2.6013,-2.5988,-2.5523,-2.4782,-2.4481,-2.4067,-2.354,-2.3165,-2.3125,-2.3125,-2.3125,-2.3125,-2.3125,-2.3125,-2.3125,-2.3125,-2.3125,-2.3125,-2.3125,-2.3125,-2.3125,-2.3125,-2.3125,-2.3125,-2.3125,-2.3125,-2.3125,-2.3245,-2.3484,-2.3708,-2.3826,-2.4496,-2.4827,-2.4915,-2.5001,-2.4773,-2.4431,-2.3876,-2.3328,-2.2967,-2.2421,-2.2027,-2.2346,-2.2774,-2.2878,-2.2314,-2.2225,-2.2055,-2.1793,-2.1771,-2.2267,-2.3098,-2.3406,-2.329,-2.292,-2.2937,-2.2863,-2.2548,-2.2774,-2.3156,-2.3187,-2.3201,-2.3201,-2.3201,-2.3201,-2.3201,-2.3231,-2.3406,-2.3595,-2.3595,-2.3275,-2.3275,-2.3495,-2.3363,-2.3305,-2.3348,-2.2763,-2.2158,-2.2039,-2.1575,-2.1066,-2.079,-2.0649,-2.0269,-2.0056,-1.9904,-1.9925,-1.9874,-1.9726,-1.9726,-1.9717,-1.9696,-1.9726,-1.9726,-1.9726,-1.9762,-1.9705,-1.9705,-1.9705,-1.9797,-1.9762,-1.9726,-1.9654,-1.953,-1.9566,-1.9603,-1.9515,-1.9515,-1.9823,-1.9914,-1.9737,-1.9507,-1.9273,-1.8977,-2.6521,-2.6521,-2.6521,-2.6113,-2.5561,-2.5021,-2.4469,-2.3941,-2.3315,-2.3125,-2.3125,-2.3125,-2.3125,-2.3125,-2.3125,-2.3125,-2.3125,-2.3125,-2.3125,-2.3125,-2.3125,-2.3125,-2.3125,-2.3125,-2.3125,-2.3125,-2.3125,-2.3125,-2.3125,-2.3125,-2.3245,-2.3233,-2.3708,-2.4216,-2.4308,-2.4343,-2.4436,-2.43,-2.3768,-2.3282,-2.3016,-2.2531,-2.2065,-2.1952,-2.2381,-2.2326,-2.1752,-2.1545,-2.1488,-2.139,-2.1015,-2.1417,-2.2207,-2.2905,-2.3128,-2.2543,-2.2509,-2.2193,-2.1824,-2.2154,-2.2563,-2.254,-2.2558,-2.2558,-2.2558,-2.2543,-2.2529,-2.268,-2.2846,-2.3142,-2.3244,-2.2862,-2.2783,-2.3018,-2.2808,-2.2942,-2.3317,-2.3067,-2.2723,-2.2727,-2.2278,-2.1739,-2.1261,-2.0933,-2.043,-1.9989,-1.9839,-1.969,-1.969,-1.9603,-1.9566,-1.9566,-1.953,-1.942,-1.9384,-1.9369,-1.942,-1.9332,-1.942,-1.9493,-1.953,-1.969,-1.9617,-1.9398,-1.9325,-1.9339,-1.9288,-1.9207,-1.9317,-1.9515,-1.9442,-1.9214,-1.8991,-1.8727,-1.8288,-2.6521,-2.6521,-2.6521,-2.6126,-2.5561,-2.5046,-2.4519,-2.3954,-2.3389,-2.3138,-2.3125,-2.3125,-2.3065,-2.3065,-2.3125,-2.3125,-2.3125,-2.3125,-2.3125,-2.3125,-2.3125,-2.3125,-2.3125,-2.3125,-2.3125,-2.3125,-2.3125,-2.3125,-2.3125,-2.3125,-2.3125,-2.3125,-2.3245,-2.362,-2.4067,-2.4302,-2.4226,-2.4116,-2.3652,-2.3152,-2.2687,-2.215,-2.1797,-2.1688,-2.2201,-2.1917,-2.1207,-2.0946,-2.0681,-2.022,-2.0547,-2.0894,-2.1272,-2.1758,-2.1899,-2.1932,-2.1881,-2.1586,-2.1148,-2.1502,-2.1827,-2.1876,-2.1866,-2.1852,-2.1852,-2.1899,-2.1899,-2.1993,-2.2044,-2.2087,-2.2033,-2.1956,-2.1939,-2.1997,-2.2069,-2.2259,-2.2985,-2.2992,-2.2761,-2.2935,-2.2649,-2.2301,-2.1743,-2.1144,-2.0563,-2.0121,-1.9863,-1.976,-1.969,-1.9493,-1.9258,-1.9258,-1.9281,-1.9132,-1.902,-1.893,-1.8893,-1.8727,-1.8779,-1.8968,-1.9132,-1.9479,-1.9493,-1.8983,-1.8851,-1.8922,-1.8917,-1.8831,-1.8803,-1.8826,-1.8765,-1.8688,-1.8157,-1.7666,-1.7354,-2.5734,-2.5816,-2.6245,-2.6126,-2.5573,-2.5046,-2.4519,-2.3954,-2.3389,-2.3125,-2.3125,-2.3078,-2.2823,-2.2702,-2.2957,-2.3065,-2.3078,-2.3125,-2.3125,-2.3125,-2.3125,-2.3125,-2.3125,-2.3125,-2.3125,-2.3125,-2.3125,-2.3125,-2.3125,-2.3125,-2.3125,-2.3125,-2.3125,-2.3305,-2.3603,-2.3649,-2.3708,-2.3618,-2.3366,-2.3096,-2.2673,-2.2184,-2.1855,-2.1701,-2.1847,-2.1579,-2.1003,-2.0791,-2.0449,-2.0003,-2.0105,-2.0459,-2.0696,-2.0733,-2.089,-2.1183,-2.122,-2.0965,-2.051,-2.0836,-2.1228,-2.1242,-2.1259,-2.1259,-2.1259,-2.1259,-2.1342,-2.1568,-2.171,-2.1688,-2.1736,-2.1438,-2.143,-2.1592,-2.1425,-2.141,-2.1677,-2.196,-2.2331,-2.2696,-2.257,-2.2236,-2.193,-2.1307,-2.07,-2.0237,-1.9909,-1.9736,-1.9656,-1.9251,-1.8821,-1.8788,-1.8788,-1.8779,-1.8626,-1.8496,-1.8341,-1.8131,-1.8171,-1.8419,-1.8579,-1.8867,-1.8579,-1.8064,-1.8161,-1.8342,-1.8321,-1.821,-1.8157,-1.8064,-1.7892,-1.7639,-1.7081,-1.6604,-1.6361,-2.5004,-2.5075,-2.597,-2.6025,-2.5536,-2.4908,-2.4406,-2.3929,-2.3389,-2.3005,-2.2884,-2.2944,-2.2567,-2.199,-2.2249,-2.2628,-2.2823,-2.2823,-2.2884,-2.3125,-2.3125,-2.3125,-2.3125,-2.3125,-2.3125,-2.3125,-2.3125,-2.3125,-2.3125,-2.3125,-2.3125,-2.3125,-2.3125,-2.3125,-2.3185,-2.3245,-2.3125,-2.3125,-2.3125,-2.3125,-2.2952,-2.2698,-2.2209,-2.1663,-2.1588,-2.1307,-2.079,-2.0553,-2.0308,-1.994,-1.9901,-2.0055,-2.0396,-2.0093,-2.0055,-2.0521,-2.0594,-2.0302,-2.0118,-2.022,-2.0591,-2.061,-2.061,-2.061,-2.0597,-2.0633,-2.0782,-2.1183,-2.128,-2.1175,-2.1055,-2.0848,-2.0869,-2.1002,-2.0794,-2.0531,-2.0535,-2.0863,-2.1615,-2.196,-2.2161,-2.2055,-2.1674,-2.141,-2.0755,-2.0482,-2.0108,-1.9352,-1.9147,-1.8636,-1.8313,-1.8243,-1.8246,-1.8327,-1.8224,-1.8027,-1.7827,-1.7504,-1.7666,-1.7894,-1.8007,-1.8128,-1.7783,-1.7531,-1.7388,-1.7518,-1.7523,-1.7423,-1.7246,-1.7055,-1.6918,-1.6596,-1.6022,-1.5728,-1.5564,-2.5004,-2.5028,-2.5469,-2.5649,-2.5344,-2.4455,-2.4004,-2.3841,-2.3242,-2.2689,-2.2187,-2.2689,-2.2187,-2.1227,-2.091,-2.1416,-2.1939,-2.2322,-2.2628,-2.3065,-2.3125,-2.3125,-2.3125,-2.3125,-2.3125,-2.3125,-2.3125,-2.3125,-2.3125,-2.3125,-2.3125,-2.3125,-2.3125,-2.3125,-2.3125,-2.3125,-2.3125,-2.3125,-2.3125,-2.3125,-2.3113,-2.2977,-2.2698,-2.2243,-2.1737,-2.1329,-2.0761,-2.0359,-1.9901,-1.9888,-1.9798,-1.985,-1.9901,-1.985,-1.9798,-1.9901,-1.9927,-1.9914,-1.985,-1.9964,-2.0041,-2.0067,-2.0003,-1.9952,-1.9991,-2.0042,-2.0093,-1.9991,-2.008,-2.0194,-2.0246,-2.0067,-2.0003,-2.0092,-2.0144,-2.0016,-1.9962,-1.9926,-2.0654,-2.0877,-2.1024,-2.1315,-2.1267,-2.1084,-2.0865,-2.0625,-2.0232,-1.9417,-1.8731,-1.8238,-1.786,-1.7812,-1.7652,-1.7679,-1.7653,-1.749,-1.7203,-1.6896,-1.7146,-1.7381,-1.7383,-1.7464,-1.7518,-1.728,-1.6986,-1.6504,-1.6324,-1.6225,-1.6151,-1.5966,-1.5768,-1.5395,-1.5005,-1.4824,-1.4675,-2.2793,-2.2994,-2.3478,-2.351,-2.3202,-2.2687,-2.2675,-2.2724,-2.2555,-2.2261,-2.2002,-2.2187,-2.1741,-2.0719,-2.059,-2.1101,-2.1803,-2.2249,-2.2689,-2.3005,-2.3065,-2.3065,-2.3125,-2.3125,-2.3125,-2.3125,-2.3125,-2.3125,-2.3125,-2.3125,-2.3125,-2.3125,-2.3125,-2.3125,-2.3125,-2.3125,-2.3125,-2.3125,-2.3125,-2.3125,-2.3125,-2.3113,-2.2965,-2.2714,-2.1933,-2.1452,-2.1001,-2.0238,-1.9836,-1.9798,-1.9798,-1.9798,-1.9798,-1.9798,-1.9798,-1.9798,-1.9798,-1.985,-1.9798,-1.9798,-1.9798,-1.9798,-1.9798,-1.985,-1.9798,-1.9798,-1.9798,-1.9798,-1.9798,-1.9798,-1.9798,-1.9798,-1.9798,-1.9798,-1.9798,-1.9659,-1.961,-1.9416,-1.9581,-1.9736,-1.9876,-2.0117,-2.0369,-2.0371,-2.0319,-2.0378,-1.9962,-1.9331,-1.8586,-1.8031,-1.7666,-1.7436,-1.7216,-1.7021,-1.6925,-1.6841,-1.6587,-1.6386,-1.6625,-1.6782,-1.6752,-1.6769,-1.6769,-1.6398,-1.5846,-1.545,-1.5174,-1.5151,-1.5241,-1.4926,-1.4516,-1.4354,-1.4201,-1.3742,-1.3484,-2.0327,-2.0762,-2.1611,-2.1789,-2.1385,-2.1261,-2.1327,-2.1588,-2.1565,-2.1428,-2.1175,-2.0985,-2.059,-2.0268,-2.0009,-2.0204,-2.1227,-2.2125,-2.2433,-2.2555,-2.2884,-2.2944,-2.2884,-2.2884,-2.3125,-2.3065,-2.3125,-2.3125,-2.3125,-2.3125,-2.3125,-2.3125,-2.3125,-2.3125,-2.3125,-2.3125,-2.3125,-2.3125,-2.3125,-2.3125,-2.3125,-2.3125,-2.3125,-2.2735,-2.2151,-2.1472,-2.1331,-2.0401,-1.9823,-1.9798,-1.9798,-1.9798,-1.9798,-1.9798,-1.9798,-1.9798,-1.9798,-1.9643,-1.9643,-1.9643,-1.9747,-1.9798,-1.9798,-1.9798,-1.9734,-1.9683,-1.9527,-1.9423,-1.9423,-1.9475,-1.9579,-1.9631,-1.9798,-1.9798,-1.9798,-1.9606,-1.9362,-1.9049,-1.8691,-1.8691,-1.8785,-1.8862,-1.9113,-1.9399,-1.9611,-1.9915,-1.9656,-1.9071,-1.839,-1.7626,-1.7326,-1.7012,-1.6587,-1.6343,-1.6244,-1.6114,-1.5908,-1.5876,-1.6151,-1.6238,-1.6238,-1.6044,-1.5913,-1.5426,-1.4856,-1.4603,-1.4433,-1.4387,-1.4283,-1.4003,-1.3721,-1.3684,-1.342,-1.2949,-1.2255,-1.8409,-1.8923,-2.0714,-2.1352,-2.1263,-2.0902,-2.0635,-2.0666,-2.0719,-2.0268,-1.9694,-1.8854,-1.8977,-1.911,-1.8977,-1.8977,-1.9628,-2.0398,-2.091,-2.1479,-2.2175,-2.2506,-2.2506,-2.2628,-2.3005,-2.3078,-2.2944,-2.2944,-2.3125,-2.3125,-2.3125,-2.3125,-2.3125,-2.3125,-2.3125,-2.3125,-2.3125,-2.3125,-2.3125,-2.3125,-2.3125,-2.3125,-2.3125,-2.2857,-2.2163,-2.1472,-2.1425,-2.0476,-1.9836,-1.9836,-1.9798,-1.9798,-1.9798,-1.9798,-1.9798,-1.9798,-1.9631,-1.9423,-1.915,-1.9473,-1.9708,-1.9811,-1.9747,-1.9579,-1.9423,-1.9032,-1.8874,-1.8833,-1.8874,-1.8939,-1.9097,-1.9307,-1.9747,-1.9515,-1.9334,-1.8907,-1.8631,-1.8454,-1.8155,-1.7786,-1.7743,-1.7852,-1.8178,-1.8501,-1.919,-1.9522,-1.8643,-1.8079,-1.7568,-1.6919,-1.6796,-1.6529,-1.6001,-1.572,-1.5632,-1.5499,-1.541,-1.5466,-1.5644,-1.5688,-1.5688,-1.5457,-1.5074,-1.4673,-1.4172,-1.3936,-1.3678,-1.3542,-1.3379,-1.3142,-1.2958,-1.3094,-1.2716,-1.2129,-1.1275,-1.8105,-1.8311,-1.9043,-1.9303,-1.9292,-1.9127,-1.9299,-1.9759,-1.9824,-1.9628,-1.9243,-1.8462,-1.8202,-1.8462,-1.8921,-1.8911,-1.942,-2.0204,-2.0462,-2.0974,-2.1678,-2.2063,-2.2063,-2.2199,-2.258,-2.2884,-2.2702,-2.2702,-2.3078,-2.3065,-2.3125,-2.3125,-2.3125,-2.3125,-2.3125,-2.3065,-2.3078,-2.3078,-2.3078,-2.3078,-2.3125,-2.3125,-2.3125,-2.3027,-2.2443,-2.1864,-2.1487,-2.0799,-2.0248,-1.9859,-1.9759,-1.9695,-1.9747,-1.9747,-1.9747,-1.9695,-1.9475,-1.9032,-1.8857,-1.9206,-1.9438,-1.8673,-1.8768,-1.8992,-1.8715,-1.8555,-1.8394,-1.834,-1.8394,-1.8501,-1.8768,-1.9254,-1.9631,-1.923,-1.8773,-1.83,-1.7836,-1.7609,-1.7446,-1.7024,-1.6978,-1.7034,-1.7357,-1.7688,-1.8489,-1.9064,-1.8031,-1.7066,-1.6717,-1.64,-1.6338,-1.6017,-1.5486,-1.4949,-1.4835,-1.4835,-1.4915,-1.5005,-1.5152,-1.505,-1.4994,-1.4549,-1.4165,-1.38,-1.3372,-1.2871,-1.2618,-1.255,-1.257,-1.2647,-1.2666,-1.2715,-1.2138,-1.1316,-1.0348,-1.8008,-1.8008,-1.8008,-1.8008,-1.8008,-1.8008,-1.8337,-1.8844,-1.8921,-1.8921,-1.8854,-1.8269,-1.8008,-1.8212,-1.8539,-1.8854,-1.9034,-1.9694,-1.989,-2.0268,-2.0782,-2.1227,-2.1302,-2.1491,-2.1877,-2.2384,-2.2384,-2.2322,-2.3078,-2.3078,-2.3125,-2.3125,-2.3125,-2.3125,-2.3125,-2.3065,-2.3017,-2.2823,-2.2763,-2.2506,-2.2372,-2.231,-2.2237,-2.2237,-2.1873,-2.1343,-2.0831,-2.0205,-1.9752,-1.9262,-1.9032,-1.919,-1.9359,-1.9527,-1.9592,-1.9475,-1.915,-1.865,-1.8602,-1.8661,-1.8433,-1.7311,-1.7893,-1.797,-1.7895,-1.7907,-1.7578,-1.7413,-1.7743,-1.807,-1.8167,-1.8507,-1.8951,-1.859,-1.8336,-1.7865,-1.7037,-1.6637,-1.6486,-1.6255,-1.6255,-1.6312,-1.6765,-1.709,-1.7357,-1.8101,-1.7878,-1.6981,-1.6372,-1.6096,-1.5984,-1.559,-1.5004,-1.4464,-1.3999,-1.4201,-1.4376,-1.4468,-1.4503,-1.4354,-1.4168,-1.3758,-1.313,-1.2492,-1.2012,-1.1607,-1.1557,-1.1657,-1.2021,-1.2403,-1.2353,-1.2197,-1.1124,-1.0246,-0.9467,-1.8008,-1.8008,-1.8008,-1.8008,-1.8008,-1.8008,-1.8076,-1.8202,-1.8134,-1.8144,-1.8144,-1.8008,-1.8008,-1.8008,-1.8202,-1.8269,-1.8395,-1.8977,-1.9044,-1.8921,-1.9944,-2.0074,-2.0074,-2.0333,-2.1037,-2.1741,-2.1815,-2.2063,-2.3017,-2.3078,-2.3065,-2.2884,-2.275,-2.2811,-2.3005,-2.3078,-2.2689,-2.2063,-2.1951,-2.1491,-2.1164,-2.1037,-2.1037,-2.1072,-2.1178,-2.0686,-1.9993,-1.9772,-1.9256,-1.8455,-1.8104,-1.8286,-1.865,-1.8715,-1.8992,-1.9423,-1.8874,-1.8274,-1.7688,-1.7644,-1.6927,-1.6171,-1.6994,-1.739,-1.7357,-1.709,-1.6698,-1.6585,-1.6754,-1.6765,-1.6935,-1.7335,-1.7918,-1.7943,-1.7734,-1.7288,-1.6461,-1.5981,-1.5881,-1.5806,-1.57,-1.569,-1.6151,-1.6482,-1.6482,-1.6866,-1.7302,-1.6917,-1.6113,-1.5764,-1.5612,-1.5217,-1.4655,-1.422,-1.379,-1.3747,-1.3826,-1.392,-1.3862,-1.3711,-1.3358,-1.2976,-1.2239,-1.1299,-1.0956,-1.0864,-1.0813,-1.0813,-1.1174,-1.1484,-1.1625,-1.1316,-1.0246,-0.9273,-0.8541,-1.8008,-1.8008,-1.8008,-1.8008,-1.8008,-1.8008,-1.8008,-1.8008,-1.8008,-1.8008,-1.8008,-1.8008,-1.8008,-1.8008,-1.8008,-1.8008,-1.8066,-1.8134,-1.8076,-1.8269,-1.9243,-1.9497,-1.9497,-1.9628,-2.0215,-2.0782,-2.1101,-2.1491,-2.2261,-2.2628,-2.2628,-2.2384,-2.1928,-2.1803,-2.2125,-2.2249,-2.1865,-2.1175,-2.1037,-2.091,-2.059,-2.0526,-2.0515,-2.0504,-2.0603,-2.0211,-1.9354,-1.9231,-1.8701,-1.7912,-1.7645,-1.7633,-1.7895,-1.7961,-1.8124,-1.8221,-1.7677,-1.6912,-1.6358,-1.613,-1.5975,-1.5894,-1.6177,-1.6641,-1.6187,-1.6482,-1.6208,-1.6036,-1.6197,-1.6322,-1.6687,-1.7213,-1.7611,-1.7099,-1.6757,-1.6425,-1.5904,-1.5748,-1.5584,-1.5584,-1.5468,-1.5468,-1.5758,-1.5979,-1.6036,-1.5979,-1.6358,-1.6358,-1.5689,-1.5285,-1.5043,-1.477,-1.4333,-1.3932,-1.3641,-1.3411,-1.332,-1.3339,-1.3182,-1.2929,-1.257,-1.2052,-1.1499,-1.0645,-1.0407,-1.0167,-1.0108,-1.0108,-1.021,-1.0407,-1.034,-1.0399,-0.9791,-0.8758,-0.7812,-1.8008,-1.8008,-1.8008,-1.8008,-1.8008,-1.8008,-1.8008,-1.8008,-1.8008,-1.8008,-1.8008,-1.8008,-1.8008,-1.8008,-1.8008,-1.8008,-1.8008,-1.8008,-1.8008,-1.8076,-1.8519,-1.8721,-1.8787,-1.8921,-1.9365,-1.9944,-2.0268,-2.059,-2.1428,-2.1939,-2.1877,-2.1428,-2.091,-2.0846,-2.1037,-2.1037,-2.1037,-2.0398,-2.0139,-1.9944,-1.9694,-1.9562,-1.9617,-1.9661,-1.9781,-1.9714,-1.9059,-1.8668,-1.8348,-1.7701,-1.7198,-1.7045,-1.7135,-1.7246,-1.7357,-1.7302,-1.6912,-1.6197,-1.569,-1.5526,-1.5565,-1.5507,-1.5931,-1.5864,-1.5517,-1.5864,-1.5806,-1.5748,-1.5921,-1.6036,-1.6265,-1.6856,-1.6708,-1.6202,-1.6097,-1.576,-1.5692,-1.5536,-1.5468,-1.541,-1.5352,-1.5352,-1.542,-1.5468,-1.5584,-1.5526,-1.5468,-1.5352,-1.5294,-1.4927,-1.4544,-1.4231,-1.3893,-1.3401,-1.31,-1.2953,-1.2821,-1.2757,-1.2563,-1.2311,-1.1434,-1.0906,-1.045,-1.01,-0.9703,-0.9406,-0.9354,-0.9347,-0.9235,-0.8967,-0.8698,-0.8803,-0.9026,-0.8125,-0.6843,-1.8008,-1.8008,-1.8008,-1.8008,-1.8008,-1.8008,-1.8008,-1.8008,-1.8008,-1.8008,-1.8008,-1.8008,-1.8008,-1.8008,-1.8008,-1.8008,-1.8008,-1.8008,-1.8008,-1.8008,-1.8202,-1.8134,-1.8134,-1.8202,-1.8654,-1.9044,-1.9497,-1.9944,-2.0526,-2.0719,-2.0719,-2.0537,-2.0204,-1.9879,-1.9824,-1.989,-1.989,-1.9431,-1.9233,-1.8977,-1.8664,-1.8395,-1.8462,-1.8643,-1.8849,-1.8685,-1.8206,-1.7893,-1.7369,-1.6628,-1.5901,-1.6032,-1.6208,-1.6436,-1.6922,-1.7079,-1.6641,-1.6026,-1.5584,-1.542,-1.542,-1.542,-1.5478,-1.541,-1.5468,-1.5526,-1.5526,-1.5468,-1.5584,-1.5526,-1.5584,-1.5633,-1.569,-1.5594,-1.5536,-1.5488,-1.5488,-1.541,-1.5352,-1.5294,-1.5177,-1.5235,-1.5352,-1.542,-1.5294,-1.505,-1.4932,-1.4815,-1.4697,-1.4628,-1.4145,-1.3656,-1.3288,-1.2788,-1.259,-1.2502,-1.2305,-1.2241,-1.1992,-1.1633,-1.0691,-0.9865,-0.9429,-0.9124,-0.8837,-0.8639,-0.8679,-0.8355,-0.7984,-0.7664,-0.732,-0.7433,-0.7747,-0.6709,-0.5588,-1.8008,-1.8008,-1.8008,-1.8008,-1.8008,-1.8008,-1.8008,-1.8008,-1.8008,-1.8008,-1.8008,-1.8008,-1.8008,-1.8008,-1.8008,-1.8008,-1.8008,-1.8008,-1.8008,-1.8008,-1.8008,-1.8008,-1.8008,-1.8008,-1.8192,-1.8529,-1.8988,-1.9299,-1.9628,-1.9694,-1.9694,-1.9628,-1.9243,-1.8721,-1.8664,-1.8654,-1.8586,-1.8596,-1.8529,-1.8269,-1.8076,-1.8008,-1.8008,-1.8134,-1.8269,-1.814,-1.7962,-1.7471,-1.6992,-1.6596,-1.5792,-1.5644,-1.5633,-1.569,-1.5911,-1.5958,-1.5748,-1.5584,-1.5468,-1.542,-1.542,-1.542,-1.542,-1.542,-1.542,-1.542,-1.542,-1.542,-1.542,-1.542,-1.542,-1.542,-1.542,-1.542,-1.542,-1.542,-1.5352,-1.5157,-1.504,-1.4483,-1.4423,-1.4932,-1.5108,-1.5235,-1.505,-1.4756,-1.4451,-1.4213,-1.4025,-1.3846,-1.3682,-1.3135,-1.2654,-1.2212,-1.2192,-1.217,-1.1898,-1.1629,-1.1381,-1.0962,-1.012,-0.9281,-0.8633,-0.8184,-0.7877,-0.7883,-0.7996,-0.7616,-0.7182,-0.6519,-0.618,-0.6298,-0.6195,-0.5202,-0.4542,-1.8008,-1.8008,-1.8008,-1.8008,-1.8008,-1.8008,-1.8008,-1.8008,-1.8008,-1.8008,-1.8008,-1.8008,-1.8008,-1.8008,-1.8008,-1.8008,-1.8008,-1.8008,-1.8008,-1.8008,-1.8008,-1.8008,-1.8008,-1.8008,-1.8008,-1.8269,-1.8462,-1.8721,-1.8854,-1.8787,-1.8787,-1.8721,-1.8134,-1.8076,-1.8076,-1.8134,-1.8134,-1.8076,-1.8076,-1.8008,-1.8008,-1.8008,-1.8008,-1.8008,-1.8008,-1.8008,-1.7901,-1.7406,-1.7079,-1.6899,-1.6153,-1.5722,-1.5634,-1.5537,-1.542,-1.5526,-1.5468,-1.5468,-1.542,-1.542,-1.542,-1.542,-1.542,-1.542,-1.542,-1.542,-1.542,-1.542,-1.542,-1.542,-1.542,-1.542,-1.542,-1.542,-1.542,-1.542,-1.5225,-1.4963,-1.4405,-1.3665,-1.3802,-1.4373,-1.4688,-1.4864,-1.4805,-1.4392,-1.3846,-1.3304,-1.3053,-1.2801,-1.274,-1.2485,-1.2034,-1.1578,-1.1704,-1.1717,-1.1409,-1.104,-1.0609,-1.0122,-0.9377,-0.86,-0.7761,-0.7307,-0.7015,-0.7095,-0.7258,-0.6864,-0.6357,-0.5651,-0.4882,-0.4597,-0.4433,-0.3883,-0.3387,-1.8008,-1.8008,-1.8008,-1.8008,-1.8008,-1.8008,-1.8008,-1.8008,-1.8008,-1.8008,-1.8008,-1.8008,-1.8008,-1.8008,-1.8008,-1.8008,-1.8008,-1.8008,-1.8008,-1.8008,-1.8008,-1.8008,-1.8008,-1.8008,-1.8008,-1.8008,-1.8066,-1.8259,-1.8134,-1.8134,-1.8202,-1.8008,-1.8008,-1.8008,-1.8008,-1.8008,-1.8008,-1.8008,-1.8008,-1.8008,-1.8008,-1.8008,-1.8008,-1.8008,-1.8008,-1.8008,-1.791,-1.7571,-1.7273,-1.7118,-1.6918,-1.6471,-1.6072,-1.5742,-1.5576,-1.5459,-1.5478,-1.542,-1.542,-1.542,-1.542,-1.542,-1.542,-1.542,-1.542,-1.542,-1.542,-1.542,-1.542,-1.5177,-1.5118,-1.5294,-1.5352,-1.5294,-1.5235,-1.5294,-1.5294,-1.4718,-1.3673,-1.3064,-1.302,-1.3588,-1.3965,-1.4085,-1.3837,-1.3726,-1.3304,-1.2573,-1.2143,-1.1888,-1.1826,-1.171,-1.1472,-1.1174,-1.1193,-1.1163,-1.0905,-1.0481,-0.9883,-0.9183,-0.8435,-0.7632,-0.6808,-0.6619,-0.6487,-0.6411,-0.6346,-0.5985,-0.5456,-0.4653,-0.3869,-0.3012,-0.2508,-0.2235,-0.2001,-1.8008,-1.8008,-1.8008,-1.8008,-1.8008,-1.8008,-1.8008,-1.8008,-1.8008,-1.8008,-1.8008,-1.8008,-1.8008,-1.8008,-1.8008,-1.8008,-1.8008,-1.8008,-1.8008,-1.8008,-1.8008,-1.8008,-1.8008,-1.8008,-1.8008,-1.8008,-1.8008,-1.8008,-1.8008,-1.8008,-1.8008,-1.8008,-1.8008,-1.8008,-1.8008,-1.8008,-1.8008,-1.8008,-1.8008,-1.8008,-1.8008,-1.8008,-1.8008,-1.8008,-1.8008,-1.8008,-1.792,-1.7901,-1.7581,-1.7412,-1.7579,-1.7244,-1.6602,-1.6152,-1.5937,-1.5859,-1.5536,-1.5439,-1.5488,-1.5488,-1.5469,-1.543,-1.542,-1.542,-1.542,-1.542,-1.542,-1.542,-1.5235,-1.4932,-1.4815,-1.505,-1.5177,-1.505,-1.4972,-1.5157,-1.5284,-1.4177,-1.2943,-1.2586,-1.2419,-1.274,-1.3122,-1.3122,-1.2931,-1.2626,-1.2381,-1.1834,-1.1351,-1.1045,-1.0975,-1.0919,-1.0926,-1.0703,-1.0696,-1.0329,-0.9985,-0.9439,-0.8737,-0.8056,-0.7459,-0.678,-0.618,-0.6134,-0.6117,-0.5727,-0.5366,-0.5235,-0.4633,-0.3631,-0.2862,-0.2001,-0.1133,-0.0737,-0.0505,-1.8008,-1.8008,-1.8008,-1.8008,-1.8008,-1.8008,-1.8008,-1.8008,-1.8008,-1.8008,-1.8008,-1.8008,-1.8008,-1.8008,-1.8008,-1.8008,-1.8008,-1.8008,-1.8008,-1.8008,-1.8008,-1.8008,-1.8008,-1.8008,-1.8008,-1.8008,-1.8008,-1.8008,-1.8008,-1.8008,-1.8008,-1.8008,-1.8008,-1.8008,-1.8008,-1.8008,-1.8008,-1.8008,-1.8008,-1.8008,-1.8008,-1.8008,-1.8008,-1.8008,-1.8008,-1.8008,-1.8008,-1.8008,-1.7881,-1.7637,-1.7662,-1.7062,-1.641,-1.5869,-1.5735,-1.5651,-1.5501,-1.5457,-1.5583,-1.5664,-1.5596,-1.5518,-1.542,-1.542,-1.542,-1.542,-1.542,-1.5352,-1.4815,-1.451,-1.4273,-1.4392,-1.4451,-1.4392,-1.4436,-1.4517,-1.4091,-1.3158,-1.2181,-1.1516,-1.1648,-1.2128,-1.2451,-1.2451,-1.2258,-1.2081,-1.171,-1.1344,-1.0863,-1.0428,-1.0301,-1.011,-0.9977,-0.9977,-0.9901,-0.9424,-0.8862,-0.8202,-0.7681,-0.7024,-0.6427,-0.5952,-0.5551,-0.533,-0.4982,-0.4445,-0.4222,-0.4088,-0.3416,-0.239,-0.1659,-0.0999,-0.0175,0.0695,0.1043,-1.8008,-1.8008,-1.8008,-1.8008,-1.8008,-1.8008,-1.8008,-1.8008,-1.8008,-1.8008,-1.8008,-1.8008,-1.8008,-1.8008,-1.8008,-1.8008,-1.8008,-1.8008,-1.8008,-1.8008,-1.8008,-1.8008,-1.8008,-1.8008,-1.8008,-1.8008,-1.8008,-1.8008,-1.8008,-1.8008,-1.8008,-1.8008,-1.8008,-1.8008,-1.8008,-1.8008,-1.8008,-1.8008,-1.8008,-1.8008,-1.8008,-1.8008,-1.8008,-1.8008,-1.8008,-1.8008,-1.8008,-1.8008,-1.8008,-1.7755,-1.7552,-1.693,-1.6172,-1.5626,-1.5269,-1.5154,-1.5359,-1.5475,-1.5761,-1.5974,-1.576,-1.5625,-1.5498,-1.5362,-1.5362,-1.5235,-1.5235,-1.4991,-1.4451,-1.4094,-1.3846,-1.3674,-1.3726,-1.3837,-1.3927,-1.3806,-1.2987,-1.232,-1.1531,-1.08,-1.1108,-1.1586,-1.1648,-1.1648,-1.1586,-1.1469,-1.1226,-1.0863,-1.0491,-1.0174,-0.9919,-0.9396,-0.9,-0.9005,-0.9075,-0.8479,-0.7812,-0.7474,-0.6952,-0.6137,-0.546,-0.5169,-0.4734,-0.4167,-0.376,-0.3456,-0.3001,-0.2739,-0.1924,-0.1112,-0.0547,0.012,0.1023,0.18,0.2543,-1.8008,-1.8008,-1.8008,-1.8008,-1.8008,-1.8008,-1.8008,-1.8008,-1.8008,-1.8008,-1.8008,-1.8008,-1.8008,-1.8008,-1.8008,-1.8008,-1.8008,-1.8008,-1.8008,-1.8008,-1.8008,-1.8008,-1.8008,-1.8008,-1.8008,-1.8008,-1.8008,-1.8008,-1.8008,-1.8008,-1.8008,-1.8008,-1.794,-1.794,-1.8008,-1.794,-1.7794,-1.7862,-1.793,-1.7862,-1.8008,-1.8008,-1.8008,-1.8008,-1.8008,-1.8008,-1.8008,-1.8008,-1.8008,-1.7755,-1.7201,-1.6629,-1.5936,-1.5189,-1.4765,-1.4816,-1.4964,-1.5364,-1.5643,-1.5946,-1.5852,-1.5679,-1.5465,-1.5107,-1.4902,-1.4569,-1.451,-1.4392,-1.3974,-1.3606,-1.3304,-1.3009,-1.3009,-1.3295,-1.3425,-1.2995,-1.2366,-1.1958,-1.1413,-1.0926,-1.0737,-1.0982,-1.0982,-1.0982,-1.0919,-1.0793,-1.073,-1.0364,-1.0034,-0.9786,-0.9466,-0.8812,-0.8096,-0.8027,-0.8027,-0.7507,-0.6911,-0.6658,-0.6326,-0.5694,-0.5091,-0.4584,-0.4082,-0.337,-0.2994,-0.2687,-0.2215,-0.1218,-0.083,-0.0063,0.0558,0.1227,0.2157,0.2977,0.3748]}]]